<?xml version="1.0" encoding="UTF-8" standalone="no" ?>
<gpx xmlns="http://www.topografix.com/GPX/1/1" xmlns:xsi="http://www.w3.org/2001/XMLSchema-instance" xsi:schemaLocation="http://www.topografix.com/GPX/1/1 http://www.topografix.com/GPX/1/1/gpx.xsd" version="1.1" creator="VisuGPX - https://www.visugpx.com">
  <metadata>
    <name>Montrieux-Valbelle</name>
    <desc><![CDATA[boucle au départ de Montrieux via les aiguilles de Valbelle]]></desc>
  </metadata>
  <trk>
    <name><![CDATA[2018-10-14 Montrieux]]></name>
    <desc><![CDATA[JL + Guillaume + Matthieux + Serge]]></desc>
    <trkseg>
      <trkpt lat="43.26294" lon="5.96319">
        <ele>229.93359375</ele>
        <time>2018-10-14T07:07:04Z</time>
      </trkpt>
      <trkpt lat="43.26295" lon="5.96317">
        <ele>230.01171875</ele>
        <time>2018-10-14T07:07:06Z</time>
      </trkpt>
      <trkpt lat="43.26291" lon="5.96315">
        <ele>230.046875</ele>
        <time>2018-10-14T07:07:22Z</time>
      </trkpt>
      <trkpt lat="43.2629" lon="5.96315">
        <ele>230.05859375</ele>
        <time>2018-10-14T07:07:23Z</time>
      </trkpt>
      <trkpt lat="43.26292" lon="5.96315">
        <ele>230.078125</ele>
        <time>2018-10-14T07:07:32Z</time>
      </trkpt>
      <trkpt lat="43.26292" lon="5.96311">
        <ele>230.1796875</ele>
        <time>2018-10-14T07:07:35Z</time>
      </trkpt>
      <trkpt lat="43.26292" lon="5.9631">
        <ele>230.203125</ele>
        <time>2018-10-14T07:07:36Z</time>
      </trkpt>
      <trkpt lat="43.26293" lon="5.96308">
        <ele>230.296875</ele>
        <time>2018-10-14T07:07:47Z</time>
      </trkpt>
      <trkpt lat="43.26293" lon="5.96308">
        <ele>230.296875</ele>
        <time>2018-10-14T07:07:49Z</time>
      </trkpt>
      <trkpt lat="43.26289" lon="5.96309">
        <ele>230.19140625</ele>
        <time>2018-10-14T07:08:02Z</time>
      </trkpt>
      <trkpt lat="43.26299" lon="5.9632">
        <ele>229.859375</ele>
        <time>2018-10-14T07:08:18Z</time>
      </trkpt>
      <trkpt lat="43.26299" lon="5.9632">
        <ele>229.890625</ele>
        <time>2018-10-14T07:08:41Z</time>
      </trkpt>
      <trkpt lat="43.26295" lon="5.96322">
        <ele>229.81640625</ele>
        <time>2018-10-14T07:09:17Z</time>
      </trkpt>
      <trkpt lat="43.26296" lon="5.96329">
        <ele>229.50390625</ele>
        <time>2018-10-14T07:09:48Z</time>
      </trkpt>
      <trkpt lat="43.26298" lon="5.96335">
        <ele>230.0625</ele>
        <time>2018-10-14T07:10:26Z</time>
      </trkpt>
      <trkpt lat="43.26296" lon="5.96325">
        <ele>229.68359375</ele>
        <time>2018-10-14T07:10:53Z</time>
      </trkpt>
      <trkpt lat="43.26295" lon="5.9633">
        <ele>229.54296875</ele>
        <time>2018-10-14T07:11:18Z</time>
      </trkpt>
      <trkpt lat="43.26297" lon="5.96332">
        <ele>229.5390625</ele>
        <time>2018-10-14T07:11:36Z</time>
      </trkpt>
      <trkpt lat="43.263" lon="5.96331">
        <ele>229.33984375</ele>
        <time>2018-10-14T07:11:44Z</time>
      </trkpt>
      <trkpt lat="43.26299" lon="5.96332">
        <ele>229.42578125</ele>
        <time>2018-10-14T07:11:45Z</time>
      </trkpt>
      <trkpt lat="43.26299" lon="5.96326">
        <ele>229.5859375</ele>
        <time>2018-10-14T07:12:04Z</time>
      </trkpt>
      <trkpt lat="43.263" lon="5.96329">
        <ele>229.3984375</ele>
        <time>2018-10-14T07:12:10Z</time>
      </trkpt>
      <trkpt lat="43.26291" lon="5.96344">
        <ele>232.0234375</ele>
        <time>2018-10-14T07:12:19Z</time>
      </trkpt>
      <trkpt lat="43.26271" lon="5.96363">
        <ele>237.76953125</ele>
        <time>2018-10-14T07:12:33Z</time>
      </trkpt>
      <trkpt lat="43.26258" lon="5.96391">
        <ele>243.8828125</ele>
        <time>2018-10-14T07:12:47Z</time>
      </trkpt>
      <trkpt lat="43.2624" lon="5.96412">
        <ele>247.58984375</ele>
        <time>2018-10-14T07:13:01Z</time>
      </trkpt>
      <trkpt lat="43.26224" lon="5.96435">
        <ele>250.5703125</ele>
        <time>2018-10-14T07:13:15Z</time>
      </trkpt>
      <trkpt lat="43.26221" lon="5.9644">
        <ele>251.69140625</ele>
        <time>2018-10-14T07:13:18Z</time>
      </trkpt>
      <trkpt lat="43.26216" lon="5.96453">
        <ele>254.73828125</ele>
        <time>2018-10-14T07:13:25Z</time>
      </trkpt>
      <trkpt lat="43.26207" lon="5.96469">
        <ele>256.8828125</ele>
        <time>2018-10-14T07:13:33Z</time>
      </trkpt>
      <trkpt lat="43.26199" lon="5.96492">
        <ele>260.17578125</ele>
        <time>2018-10-14T07:13:45Z</time>
      </trkpt>
      <trkpt lat="43.26197" lon="5.9653">
        <ele>269.57421875</ele>
        <time>2018-10-14T07:14:03Z</time>
      </trkpt>
      <trkpt lat="43.26196" lon="5.9654">
        <ele>272.12109375</ele>
        <time>2018-10-14T07:14:08Z</time>
      </trkpt>
      <trkpt lat="43.26179" lon="5.96555">
        <ele>272.4453125</ele>
        <time>2018-10-14T07:14:23Z</time>
      </trkpt>
      <trkpt lat="43.26177" lon="5.96556">
        <ele>271.8515625</ele>
        <time>2018-10-14T07:14:25Z</time>
      </trkpt>
      <trkpt lat="43.26168" lon="5.9656">
        <ele>270.9140625</ele>
        <time>2018-10-14T07:14:31Z</time>
      </trkpt>
      <trkpt lat="43.26144" lon="5.96572">
        <ele>268.53515625</ele>
        <time>2018-10-14T07:14:48Z</time>
      </trkpt>
      <trkpt lat="43.26132" lon="5.96585">
        <ele>270.046875</ele>
        <time>2018-10-14T07:14:59Z</time>
      </trkpt>
      <trkpt lat="43.26125" lon="5.96601">
        <ele>272.59375</ele>
        <time>2018-10-14T07:15:09Z</time>
      </trkpt>
      <trkpt lat="43.26124" lon="5.96606">
        <ele>273.578125</ele>
        <time>2018-10-14T07:15:12Z</time>
      </trkpt>
      <trkpt lat="43.26117" lon="5.96631">
        <ele>276.87890625</ele>
        <time>2018-10-14T07:15:25Z</time>
      </trkpt>
      <trkpt lat="43.26112" lon="5.9665">
        <ele>278.53515625</ele>
        <time>2018-10-14T07:15:34Z</time>
      </trkpt>
      <trkpt lat="43.26099" lon="5.96678">
        <ele>277.5546875</ele>
        <time>2018-10-14T07:15:48Z</time>
      </trkpt>
      <trkpt lat="43.26098" lon="5.96682">
        <ele>277.58203125</ele>
        <time>2018-10-14T07:15:50Z</time>
      </trkpt>
      <trkpt lat="43.26096" lon="5.96685">
        <ele>277.25</ele>
        <time>2018-10-14T07:15:52Z</time>
      </trkpt>
      <trkpt lat="43.26094" lon="5.96697">
        <ele>277.62890625</ele>
        <time>2018-10-14T07:15:58Z</time>
      </trkpt>
      <trkpt lat="43.26091" lon="5.96706">
        <ele>277.57421875</ele>
        <time>2018-10-14T07:16:02Z</time>
      </trkpt>
      <trkpt lat="43.26088" lon="5.96717">
        <ele>277.46875</ele>
        <time>2018-10-14T07:16:07Z</time>
      </trkpt>
      <trkpt lat="43.26084" lon="5.96735">
        <ele>277.69140625</ele>
        <time>2018-10-14T07:16:15Z</time>
      </trkpt>
      <trkpt lat="43.26077" lon="5.96755">
        <ele>277.42578125</ele>
        <time>2018-10-14T07:16:24Z</time>
      </trkpt>
      <trkpt lat="43.26074" lon="5.96787">
        <ele>278.80078125</ele>
        <time>2018-10-14T07:16:38Z</time>
      </trkpt>
      <trkpt lat="43.26074" lon="5.9682">
        <ele>281.33984375</ele>
        <time>2018-10-14T07:16:52Z</time>
      </trkpt>
      <trkpt lat="43.26073" lon="5.96826">
        <ele>281.74609375</ele>
        <time>2018-10-14T07:16:55Z</time>
      </trkpt>
      <trkpt lat="43.26072" lon="5.9686">
        <ele>285.04296875</ele>
        <time>2018-10-14T07:17:10Z</time>
      </trkpt>
      <trkpt lat="43.26071" lon="5.96887">
        <ele>287.5703125</ele>
        <time>2018-10-14T07:17:24Z</time>
      </trkpt>
      <trkpt lat="43.26071" lon="5.96917">
        <ele>291.1015625</ele>
        <time>2018-10-14T07:17:39Z</time>
      </trkpt>
      <trkpt lat="43.26067" lon="5.96928">
        <ele>290.93359375</ele>
        <time>2018-10-14T07:17:46Z</time>
      </trkpt>
      <trkpt lat="43.26059" lon="5.96931">
        <ele>288.2578125</ele>
        <time>2018-10-14T07:17:53Z</time>
      </trkpt>
      <trkpt lat="43.26053" lon="5.9693">
        <ele>286.9921875</ele>
        <time>2018-10-14T07:17:57Z</time>
      </trkpt>
      <trkpt lat="43.26048" lon="5.96926">
        <ele>285.6171875</ele>
        <time>2018-10-14T07:18:01Z</time>
      </trkpt>
      <trkpt lat="43.26046" lon="5.96925">
        <ele>285.08203125</ele>
        <time>2018-10-14T07:18:03Z</time>
      </trkpt>
      <trkpt lat="43.26028" lon="5.96913">
        <ele>281.24609375</ele>
        <time>2018-10-14T07:18:17Z</time>
      </trkpt>
      <trkpt lat="43.26011" lon="5.96903">
        <ele>282.28515625</ele>
        <time>2018-10-14T07:18:30Z</time>
      </trkpt>
      <trkpt lat="43.25992" lon="5.96886">
        <ele>283.31640625</ele>
        <time>2018-10-14T07:18:44Z</time>
      </trkpt>
      <trkpt lat="43.25981" lon="5.96869">
        <ele>282.89453125</ele>
        <time>2018-10-14T07:18:57Z</time>
      </trkpt>
      <trkpt lat="43.25966" lon="5.9685">
        <ele>283.5</ele>
        <time>2018-10-14T07:19:09Z</time>
      </trkpt>
      <trkpt lat="43.25961" lon="5.9684">
        <ele>283.8046875</ele>
        <time>2018-10-14T07:19:15Z</time>
      </trkpt>
      <trkpt lat="43.25961" lon="5.96848">
        <ele>284.734375</ele>
        <time>2018-10-14T07:19:27Z</time>
      </trkpt>
      <trkpt lat="43.25964" lon="5.96845">
        <ele>283.5703125</ele>
        <time>2018-10-14T07:19:31Z</time>
      </trkpt>
      <trkpt lat="43.2596" lon="5.96841">
        <ele>284.24609375</ele>
        <time>2018-10-14T07:19:35Z</time>
      </trkpt>
      <trkpt lat="43.25942" lon="5.96819">
        <ele>285.859375</ele>
        <time>2018-10-14T07:19:49Z</time>
      </trkpt>
      <trkpt lat="43.2593" lon="5.96801">
        <ele>286.40234375</ele>
        <time>2018-10-14T07:19:56Z</time>
      </trkpt>
      <trkpt lat="43.25928" lon="5.96799">
        <ele>286.66796875</ele>
        <time>2018-10-14T07:19:57Z</time>
      </trkpt>
      <trkpt lat="43.25926" lon="5.96796">
        <ele>286.92578125</ele>
        <time>2018-10-14T07:19:58Z</time>
      </trkpt>
      <trkpt lat="43.25925" lon="5.96794">
        <ele>287.19921875</ele>
        <time>2018-10-14T07:19:59Z</time>
      </trkpt>
      <trkpt lat="43.25923" lon="5.96791">
        <ele>287.4375</ele>
        <time>2018-10-14T07:20:00Z</time>
      </trkpt>
      <trkpt lat="43.25902" lon="5.96753">
        <ele>288.45703125</ele>
        <time>2018-10-14T07:20:11Z</time>
      </trkpt>
      <trkpt lat="43.2588" lon="5.96717">
        <ele>290.4296875</ele>
        <time>2018-10-14T07:20:23Z</time>
      </trkpt>
      <trkpt lat="43.25859" lon="5.96686">
        <ele>291.546875</ele>
        <time>2018-10-14T07:20:35Z</time>
      </trkpt>
      <trkpt lat="43.25836" lon="5.96657">
        <ele>292.62109375</ele>
        <time>2018-10-14T07:20:47Z</time>
      </trkpt>
      <trkpt lat="43.25806" lon="5.96618">
        <ele>293.46484375</ele>
        <time>2018-10-14T07:21:02Z</time>
      </trkpt>
      <trkpt lat="43.25786" lon="5.96591">
        <ele>294.84765625</ele>
        <time>2018-10-14T07:21:15Z</time>
      </trkpt>
      <trkpt lat="43.25781" lon="5.96592">
        <ele>295.40625</ele>
        <time>2018-10-14T07:21:32Z</time>
      </trkpt>
      <trkpt lat="43.25782" lon="5.96588">
        <ele>295.19921875</ele>
        <time>2018-10-14T07:22:06Z</time>
      </trkpt>
      <trkpt lat="43.25781" lon="5.96589">
        <ele>295.28515625</ele>
        <time>2018-10-14T07:22:31Z</time>
      </trkpt>
      <trkpt lat="43.25781" lon="5.96583">
        <ele>295.078125</ele>
        <time>2018-10-14T07:23:03Z</time>
      </trkpt>
      <trkpt lat="43.25781" lon="5.96588">
        <ele>295.25390625</ele>
        <time>2018-10-14T07:23:30Z</time>
      </trkpt>
      <trkpt lat="43.2578" lon="5.96587">
        <ele>295.28515625</ele>
        <time>2018-10-14T07:23:45Z</time>
      </trkpt>
      <trkpt lat="43.2578" lon="5.96585">
        <ele>295.26171875</ele>
        <time>2018-10-14T07:24:09Z</time>
      </trkpt>
      <trkpt lat="43.2578" lon="5.96588">
        <ele>295.375</ele>
        <time>2018-10-14T07:24:32Z</time>
      </trkpt>
      <trkpt lat="43.25778" lon="5.96588">
        <ele>295.58984375</ele>
        <time>2018-10-14T07:24:57Z</time>
      </trkpt>
      <trkpt lat="43.25777" lon="5.96586">
        <ele>295.6015625</ele>
        <time>2018-10-14T07:25:18Z</time>
      </trkpt>
      <trkpt lat="43.25779" lon="5.96585">
        <ele>295.375</ele>
        <time>2018-10-14T07:25:44Z</time>
      </trkpt>
      <trkpt lat="43.2578" lon="5.96586">
        <ele>295.328125</ele>
        <time>2018-10-14T07:26:15Z</time>
      </trkpt>
      <trkpt lat="43.25779" lon="5.96584">
        <ele>295.34765625</ele>
        <time>2018-10-14T07:26:16Z</time>
      </trkpt>
      <trkpt lat="43.25778" lon="5.96582">
        <ele>295.33203125</ele>
        <time>2018-10-14T07:26:17Z</time>
      </trkpt>
      <trkpt lat="43.25778" lon="5.9658">
        <ele>295.34765625</ele>
        <time>2018-10-14T07:26:18Z</time>
      </trkpt>
      <trkpt lat="43.25778" lon="5.96576">
        <ele>295.34375</ele>
        <time>2018-10-14T07:26:19Z</time>
      </trkpt>
      <trkpt lat="43.25777" lon="5.96572">
        <ele>295.37890625</ele>
        <time>2018-10-14T07:26:20Z</time>
      </trkpt>
      <trkpt lat="43.25776" lon="5.9657">
        <ele>295.44140625</ele>
        <time>2018-10-14T07:26:21Z</time>
      </trkpt>
      <trkpt lat="43.25776" lon="5.96568">
        <ele>295.484375</ele>
        <time>2018-10-14T07:26:22Z</time>
      </trkpt>
      <trkpt lat="43.25775" lon="5.96565">
        <ele>295.5390625</ele>
        <time>2018-10-14T07:26:23Z</time>
      </trkpt>
      <trkpt lat="43.25759" lon="5.96524">
        <ele>295.8359375</ele>
        <time>2018-10-14T07:26:40Z</time>
      </trkpt>
      <trkpt lat="43.25746" lon="5.9649">
        <ele>297.5703125</ele>
        <time>2018-10-14T07:26:56Z</time>
      </trkpt>
      <trkpt lat="43.25727" lon="5.96481">
        <ele>299.4609375</ele>
        <time>2018-10-14T07:27:10Z</time>
      </trkpt>
      <trkpt lat="43.25707" lon="5.96464">
        <ele>302.578125</ele>
        <time>2018-10-14T07:27:25Z</time>
      </trkpt>
      <trkpt lat="43.25685" lon="5.96443">
        <ele>306.42578125</ele>
        <time>2018-10-14T07:27:40Z</time>
      </trkpt>
      <trkpt lat="43.25659" lon="5.96425">
        <ele>308.60546875</ele>
        <time>2018-10-14T07:27:57Z</time>
      </trkpt>
      <trkpt lat="43.25635" lon="5.96444">
        <ele>308.15625</ele>
        <time>2018-10-14T07:28:13Z</time>
      </trkpt>
      <trkpt lat="43.25614" lon="5.96463">
        <ele>308.30859375</ele>
        <time>2018-10-14T07:28:31Z</time>
      </trkpt>
      <trkpt lat="43.256" lon="5.96481">
        <ele>309.73828125</ele>
        <time>2018-10-14T07:28:46Z</time>
      </trkpt>
      <trkpt lat="43.25583" lon="5.96497">
        <ele>311.4765625</ele>
        <time>2018-10-14T07:29:00Z</time>
      </trkpt>
      <trkpt lat="43.25567" lon="5.96511">
        <ele>312.67578125</ele>
        <time>2018-10-14T07:29:13Z</time>
      </trkpt>
      <trkpt lat="43.25558" lon="5.96518">
        <ele>313.43359375</ele>
        <time>2018-10-14T07:29:20Z</time>
      </trkpt>
      <trkpt lat="43.25556" lon="5.96518">
        <ele>313.61328125</ele>
        <time>2018-10-14T07:29:21Z</time>
      </trkpt>
      <trkpt lat="43.25555" lon="5.96519">
        <ele>313.8203125</ele>
        <time>2018-10-14T07:29:22Z</time>
      </trkpt>
      <trkpt lat="43.25553" lon="5.9652">
        <ele>313.984375</ele>
        <time>2018-10-14T07:29:23Z</time>
      </trkpt>
      <trkpt lat="43.25552" lon="5.96521">
        <ele>314.13671875</ele>
        <time>2018-10-14T07:29:24Z</time>
      </trkpt>
      <trkpt lat="43.25551" lon="5.96522">
        <ele>314.34375</ele>
        <time>2018-10-14T07:29:25Z</time>
      </trkpt>
      <trkpt lat="43.25528" lon="5.96529">
        <ele>317.609375</ele>
        <time>2018-10-14T07:29:41Z</time>
      </trkpt>
      <trkpt lat="43.25523" lon="5.9653">
        <ele>318.40234375</ele>
        <time>2018-10-14T07:29:45Z</time>
      </trkpt>
      <trkpt lat="43.25503" lon="5.96519">
        <ele>321.546875</ele>
        <time>2018-10-14T07:30:00Z</time>
      </trkpt>
      <trkpt lat="43.25494" lon="5.96497">
        <ele>324.3046875</ele>
        <time>2018-10-14T07:30:14Z</time>
      </trkpt>
      <trkpt lat="43.25494" lon="5.96496">
        <ele>324.48046875</ele>
        <time>2018-10-14T07:30:15Z</time>
      </trkpt>
      <trkpt lat="43.25493" lon="5.96494">
        <ele>324.5859375</ele>
        <time>2018-10-14T07:30:16Z</time>
      </trkpt>
      <trkpt lat="43.25493" lon="5.96492">
        <ele>324.68359375</ele>
        <time>2018-10-14T07:30:17Z</time>
      </trkpt>
      <trkpt lat="43.25493" lon="5.96491">
        <ele>324.82421875</ele>
        <time>2018-10-14T07:30:18Z</time>
      </trkpt>
      <trkpt lat="43.2549" lon="5.96484">
        <ele>325.48046875</ele>
        <time>2018-10-14T07:30:22Z</time>
      </trkpt>
      <trkpt lat="43.25478" lon="5.96464">
        <ele>327.796875</ele>
        <time>2018-10-14T07:30:38Z</time>
      </trkpt>
      <trkpt lat="43.25477" lon="5.96457">
        <ele>328.23046875</ele>
        <time>2018-10-14T07:30:43Z</time>
      </trkpt>
      <trkpt lat="43.25474" lon="5.96437">
        <ele>329.41796875</ele>
        <time>2018-10-14T07:30:55Z</time>
      </trkpt>
      <trkpt lat="43.25475" lon="5.96435">
        <ele>329.4296875</ele>
        <time>2018-10-14T07:30:56Z</time>
      </trkpt>
      <trkpt lat="43.25475" lon="5.96433">
        <ele>329.48828125</ele>
        <time>2018-10-14T07:30:57Z</time>
      </trkpt>
      <trkpt lat="43.25475" lon="5.96431">
        <ele>329.51171875</ele>
        <time>2018-10-14T07:30:58Z</time>
      </trkpt>
      <trkpt lat="43.25476" lon="5.96429">
        <ele>329.48828125</ele>
        <time>2018-10-14T07:30:59Z</time>
      </trkpt>
      <trkpt lat="43.25477" lon="5.96415">
        <ele>329.734375</ele>
        <time>2018-10-14T07:31:06Z</time>
      </trkpt>
      <trkpt lat="43.25478" lon="5.96413">
        <ele>329.7734375</ele>
        <time>2018-10-14T07:31:07Z</time>
      </trkpt>
      <trkpt lat="43.25478" lon="5.96411">
        <ele>329.79296875</ele>
        <time>2018-10-14T07:31:08Z</time>
      </trkpt>
      <trkpt lat="43.25482" lon="5.96374">
        <ele>330.32421875</ele>
        <time>2018-10-14T07:31:25Z</time>
      </trkpt>
      <trkpt lat="43.25483" lon="5.96362">
        <ele>330.6484375</ele>
        <time>2018-10-14T07:31:30Z</time>
      </trkpt>
      <trkpt lat="43.25482" lon="5.96359">
        <ele>330.796875</ele>
        <time>2018-10-14T07:31:31Z</time>
      </trkpt>
      <trkpt lat="43.25478" lon="5.96326">
        <ele>333.42578125</ele>
        <time>2018-10-14T07:31:45Z</time>
      </trkpt>
      <trkpt lat="43.25478" lon="5.96294">
        <ele>333.9921875</ele>
        <time>2018-10-14T07:32:00Z</time>
      </trkpt>
      <trkpt lat="43.25474" lon="5.96269">
        <ele>336.0078125</ele>
        <time>2018-10-14T07:32:13Z</time>
      </trkpt>
      <trkpt lat="43.25474" lon="5.96253">
        <ele>337.08984375</ele>
        <time>2018-10-14T07:32:23Z</time>
      </trkpt>
      <trkpt lat="43.25475" lon="5.96252">
        <ele>337.0703125</ele>
        <time>2018-10-14T07:32:24Z</time>
      </trkpt>
      <trkpt lat="43.25475" lon="5.96248">
        <ele>337.30859375</ele>
        <time>2018-10-14T07:32:26Z</time>
      </trkpt>
      <trkpt lat="43.25474" lon="5.96246">
        <ele>337.5390625</ele>
        <time>2018-10-14T07:32:27Z</time>
      </trkpt>
      <trkpt lat="43.25474" lon="5.96244">
        <ele>337.8203125</ele>
        <time>2018-10-14T07:32:28Z</time>
      </trkpt>
      <trkpt lat="43.25474" lon="5.96243">
        <ele>338.04296875</ele>
        <time>2018-10-14T07:32:29Z</time>
      </trkpt>
      <trkpt lat="43.25473" lon="5.96241">
        <ele>338.28125</ele>
        <time>2018-10-14T07:32:30Z</time>
      </trkpt>
      <trkpt lat="43.25473" lon="5.96239">
        <ele>338.578125</ele>
        <time>2018-10-14T07:32:31Z</time>
      </trkpt>
      <trkpt lat="43.25473" lon="5.96237">
        <ele>338.8125</ele>
        <time>2018-10-14T07:32:32Z</time>
      </trkpt>
      <trkpt lat="43.25472" lon="5.96213">
        <ele>340.51171875</ele>
        <time>2018-10-14T07:32:46Z</time>
      </trkpt>
      <trkpt lat="43.25473" lon="5.96192">
        <ele>341.9453125</ele>
        <time>2018-10-14T07:32:59Z</time>
      </trkpt>
      <trkpt lat="43.25472" lon="5.9618">
        <ele>343.47265625</ele>
        <time>2018-10-14T07:33:05Z</time>
      </trkpt>
      <trkpt lat="43.25474" lon="5.9616">
        <ele>345.234375</ele>
        <time>2018-10-14T07:33:16Z</time>
      </trkpt>
      <trkpt lat="43.25479" lon="5.96138">
        <ele>348.72265625</ele>
        <time>2018-10-14T07:33:30Z</time>
      </trkpt>
      <trkpt lat="43.2548" lon="5.96134">
        <ele>349.48828125</ele>
        <time>2018-10-14T07:33:32Z</time>
      </trkpt>
      <trkpt lat="43.25489" lon="5.96112">
        <ele>354.2109375</ele>
        <time>2018-10-14T07:33:46Z</time>
      </trkpt>
      <trkpt lat="43.25494" lon="5.9611">
        <ele>354.6953125</ele>
        <time>2018-10-14T07:33:51Z</time>
      </trkpt>
      <trkpt lat="43.25496" lon="5.9611">
        <ele>354.84375</ele>
        <time>2018-10-14T07:33:52Z</time>
      </trkpt>
      <trkpt lat="43.25508" lon="5.96106">
        <ele>355.51171875</ele>
        <time>2018-10-14T07:34:03Z</time>
      </trkpt>
      <trkpt lat="43.25526" lon="5.96099">
        <ele>356.30078125</ele>
        <time>2018-10-14T07:34:17Z</time>
      </trkpt>
      <trkpt lat="43.25545" lon="5.96086">
        <ele>358.42578125</ele>
        <time>2018-10-14T07:34:31Z</time>
      </trkpt>
      <trkpt lat="43.25565" lon="5.96077">
        <ele>359.7421875</ele>
        <time>2018-10-14T07:34:44Z</time>
      </trkpt>
      <trkpt lat="43.25566" lon="5.96077">
        <ele>359.84765625</ele>
        <time>2018-10-14T07:34:45Z</time>
      </trkpt>
      <trkpt lat="43.25567" lon="5.96076">
        <ele>360.03125</ele>
        <time>2018-10-14T07:34:46Z</time>
      </trkpt>
      <trkpt lat="43.25567" lon="5.96075">
        <ele>360.203125</ele>
        <time>2018-10-14T07:34:47Z</time>
      </trkpt>
      <trkpt lat="43.25568" lon="5.96074">
        <ele>360.39453125</ele>
        <time>2018-10-14T07:34:48Z</time>
      </trkpt>
      <trkpt lat="43.25572" lon="5.96052">
        <ele>364.18359375</ele>
        <time>2018-10-14T07:35:01Z</time>
      </trkpt>
      <trkpt lat="43.25572" lon="5.9605">
        <ele>364.43359375</ele>
        <time>2018-10-14T07:35:02Z</time>
      </trkpt>
      <trkpt lat="43.25572" lon="5.96048">
        <ele>364.671875</ele>
        <time>2018-10-14T07:35:03Z</time>
      </trkpt>
      <trkpt lat="43.25572" lon="5.96047">
        <ele>364.8671875</ele>
        <time>2018-10-14T07:35:04Z</time>
      </trkpt>
      <trkpt lat="43.25569" lon="5.9603">
        <ele>367.0390625</ele>
        <time>2018-10-14T07:35:15Z</time>
      </trkpt>
      <trkpt lat="43.25569" lon="5.96029">
        <ele>367.26953125</ele>
        <time>2018-10-14T07:35:16Z</time>
      </trkpt>
      <trkpt lat="43.25568" lon="5.96027">
        <ele>367.50390625</ele>
        <time>2018-10-14T07:35:17Z</time>
      </trkpt>
      <trkpt lat="43.25567" lon="5.96025">
        <ele>367.765625</ele>
        <time>2018-10-14T07:35:18Z</time>
      </trkpt>
      <trkpt lat="43.25566" lon="5.96023">
        <ele>367.984375</ele>
        <time>2018-10-14T07:35:19Z</time>
      </trkpt>
      <trkpt lat="43.25566" lon="5.96022">
        <ele>368.20703125</ele>
        <time>2018-10-14T07:35:20Z</time>
      </trkpt>
      <trkpt lat="43.25562" lon="5.96007">
        <ele>369.87109375</ele>
        <time>2018-10-14T07:35:34Z</time>
      </trkpt>
      <trkpt lat="43.2556" lon="5.96007">
        <ele>369.95703125</ele>
        <time>2018-10-14T07:35:54Z</time>
      </trkpt>
      <trkpt lat="43.25558" lon="5.96007">
        <ele>370.08984375</ele>
        <time>2018-10-14T07:36:20Z</time>
      </trkpt>
      <trkpt lat="43.25556" lon="5.96001">
        <ele>370.98046875</ele>
        <time>2018-10-14T07:36:51Z</time>
      </trkpt>
      <trkpt lat="43.25555" lon="5.95984">
        <ele>373.00390625</ele>
        <time>2018-10-14T07:37:07Z</time>
      </trkpt>
      <trkpt lat="43.25554" lon="5.95983">
        <ele>373.2265625</ele>
        <time>2018-10-14T07:37:08Z</time>
      </trkpt>
      <trkpt lat="43.25555" lon="5.95981">
        <ele>373.3828125</ele>
        <time>2018-10-14T07:37:09Z</time>
      </trkpt>
      <trkpt lat="43.25558" lon="5.95954">
        <ele>376.4296875</ele>
        <time>2018-10-14T07:37:24Z</time>
      </trkpt>
      <trkpt lat="43.25558" lon="5.95946">
        <ele>377.65625</ele>
        <time>2018-10-14T07:37:28Z</time>
      </trkpt>
      <trkpt lat="43.25555" lon="5.95939">
        <ele>378.7578125</ele>
        <time>2018-10-14T07:37:32Z</time>
      </trkpt>
      <trkpt lat="43.25554" lon="5.95938">
        <ele>378.9921875</ele>
        <time>2018-10-14T07:37:33Z</time>
      </trkpt>
      <trkpt lat="43.25551" lon="5.95934">
        <ele>379.64453125</ele>
        <time>2018-10-14T07:37:36Z</time>
      </trkpt>
      <trkpt lat="43.2555" lon="5.95933">
        <ele>379.8359375</ele>
        <time>2018-10-14T07:37:37Z</time>
      </trkpt>
      <trkpt lat="43.25549" lon="5.95933">
        <ele>380.02734375</ele>
        <time>2018-10-14T07:37:38Z</time>
      </trkpt>
      <trkpt lat="43.25547" lon="5.95932">
        <ele>380.1875</ele>
        <time>2018-10-14T07:37:39Z</time>
      </trkpt>
      <trkpt lat="43.25542" lon="5.95933">
        <ele>380.34765625</ele>
        <time>2018-10-14T07:37:44Z</time>
      </trkpt>
      <trkpt lat="43.25532" lon="5.95963">
        <ele>377.77734375</ele>
        <time>2018-10-14T07:37:58Z</time>
      </trkpt>
      <trkpt lat="43.25514" lon="5.95988">
        <ele>377.828125</ele>
        <time>2018-10-14T07:38:14Z</time>
      </trkpt>
      <trkpt lat="43.25506" lon="5.95986">
        <ele>379.0234375</ele>
        <time>2018-10-14T07:38:20Z</time>
      </trkpt>
      <trkpt lat="43.25505" lon="5.95984">
        <ele>379.29296875</ele>
        <time>2018-10-14T07:38:21Z</time>
      </trkpt>
      <trkpt lat="43.25504" lon="5.95983">
        <ele>379.546875</ele>
        <time>2018-10-14T07:38:22Z</time>
      </trkpt>
      <trkpt lat="43.25504" lon="5.95981">
        <ele>379.7890625</ele>
        <time>2018-10-14T07:38:23Z</time>
      </trkpt>
      <trkpt lat="43.25503" lon="5.95979">
        <ele>380.02734375</ele>
        <time>2018-10-14T07:38:24Z</time>
      </trkpt>
      <trkpt lat="43.25502" lon="5.95975">
        <ele>380.67578125</ele>
        <time>2018-10-14T07:38:27Z</time>
      </trkpt>
      <trkpt lat="43.25501" lon="5.95973">
        <ele>380.9296875</ele>
        <time>2018-10-14T07:38:28Z</time>
      </trkpt>
      <trkpt lat="43.25501" lon="5.95971">
        <ele>381.1953125</ele>
        <time>2018-10-14T07:38:29Z</time>
      </trkpt>
      <trkpt lat="43.25496" lon="5.95945">
        <ele>384.68359375</ele>
        <time>2018-10-14T07:38:43Z</time>
      </trkpt>
      <trkpt lat="43.25495" lon="5.95919">
        <ele>387.75</ele>
        <time>2018-10-14T07:38:59Z</time>
      </trkpt>
      <trkpt lat="43.255" lon="5.95895">
        <ele>390.4609375</ele>
        <time>2018-10-14T07:39:12Z</time>
      </trkpt>
      <trkpt lat="43.25507" lon="5.95873">
        <ele>393.0546875</ele>
        <time>2018-10-14T07:39:25Z</time>
      </trkpt>
      <trkpt lat="43.25519" lon="5.95851">
        <ele>394.8046875</ele>
        <time>2018-10-14T07:39:38Z</time>
      </trkpt>
      <trkpt lat="43.25525" lon="5.95838">
        <ele>395.41015625</ele>
        <time>2018-10-14T07:39:45Z</time>
      </trkpt>
      <trkpt lat="43.25526" lon="5.95836">
        <ele>395.3828125</ele>
        <time>2018-10-14T07:39:46Z</time>
      </trkpt>
      <trkpt lat="43.25527" lon="5.95835">
        <ele>395.36328125</ele>
        <time>2018-10-14T07:39:47Z</time>
      </trkpt>
      <trkpt lat="43.25528" lon="5.95833">
        <ele>395.32421875</ele>
        <time>2018-10-14T07:39:48Z</time>
      </trkpt>
      <trkpt lat="43.25529" lon="5.95832">
        <ele>395.22265625</ele>
        <time>2018-10-14T07:39:49Z</time>
      </trkpt>
      <trkpt lat="43.25549" lon="5.95816">
        <ele>394.96484375</ele>
        <time>2018-10-14T07:40:01Z</time>
      </trkpt>
      <trkpt lat="43.25576" lon="5.95782">
        <ele>395.04296875</ele>
        <time>2018-10-14T07:40:17Z</time>
      </trkpt>
      <trkpt lat="43.25602" lon="5.95744">
        <ele>394.796875</ele>
        <time>2018-10-14T07:40:32Z</time>
      </trkpt>
      <trkpt lat="43.25607" lon="5.95715">
        <ele>397.31640625</ele>
        <time>2018-10-14T07:40:43Z</time>
      </trkpt>
      <trkpt lat="43.25608" lon="5.95713">
        <ele>397.56640625</ele>
        <time>2018-10-14T07:40:44Z</time>
      </trkpt>
      <trkpt lat="43.25608" lon="5.95711">
        <ele>397.796875</ele>
        <time>2018-10-14T07:40:45Z</time>
      </trkpt>
      <trkpt lat="43.25609" lon="5.95709">
        <ele>397.99609375</ele>
        <time>2018-10-14T07:40:46Z</time>
      </trkpt>
      <trkpt lat="43.25609" lon="5.95707">
        <ele>398.1640625</ele>
        <time>2018-10-14T07:40:47Z</time>
      </trkpt>
      <trkpt lat="43.25609" lon="5.95705">
        <ele>398.33203125</ele>
        <time>2018-10-14T07:40:48Z</time>
      </trkpt>
      <trkpt lat="43.2561" lon="5.95704">
        <ele>398.44921875</ele>
        <time>2018-10-14T07:40:49Z</time>
      </trkpt>
      <trkpt lat="43.2563" lon="5.95675">
        <ele>398.02734375</ele>
        <time>2018-10-14T07:41:03Z</time>
      </trkpt>
      <trkpt lat="43.2564" lon="5.95642">
        <ele>399.89453125</ele>
        <time>2018-10-14T07:41:17Z</time>
      </trkpt>
      <trkpt lat="43.25654" lon="5.95619">
        <ele>399.1953125</ele>
        <time>2018-10-14T07:41:30Z</time>
      </trkpt>
      <trkpt lat="43.25671" lon="5.95589">
        <ele>398.578125</ele>
        <time>2018-10-14T07:41:45Z</time>
      </trkpt>
      <trkpt lat="43.25684" lon="5.95554">
        <ele>400.3984375</ele>
        <time>2018-10-14T07:42:01Z</time>
      </trkpt>
      <trkpt lat="43.25692" lon="5.95513">
        <ele>403.83984375</ele>
        <time>2018-10-14T07:42:16Z</time>
      </trkpt>
      <trkpt lat="43.25691" lon="5.95495">
        <ele>406.140625</ele>
        <time>2018-10-14T07:42:23Z</time>
      </trkpt>
      <trkpt lat="43.25691" lon="5.95492">
        <ele>406.34375</ele>
        <time>2018-10-14T07:42:24Z</time>
      </trkpt>
      <trkpt lat="43.25691" lon="5.9549">
        <ele>406.51953125</ele>
        <time>2018-10-14T07:42:25Z</time>
      </trkpt>
      <trkpt lat="43.25691" lon="5.95488">
        <ele>406.75</ele>
        <time>2018-10-14T07:42:26Z</time>
      </trkpt>
      <trkpt lat="43.25691" lon="5.95485">
        <ele>406.98046875</ele>
        <time>2018-10-14T07:42:27Z</time>
      </trkpt>
      <trkpt lat="43.25698" lon="5.95448">
        <ele>407.6875</ele>
        <time>2018-10-14T07:42:42Z</time>
      </trkpt>
      <trkpt lat="43.25701" lon="5.95439">
        <ele>407.5</ele>
        <time>2018-10-14T07:42:45Z</time>
      </trkpt>
      <trkpt lat="43.25701" lon="5.95436">
        <ele>407.6015625</ele>
        <time>2018-10-14T07:42:46Z</time>
      </trkpt>
      <trkpt lat="43.25702" lon="5.95433">
        <ele>407.609375</ele>
        <time>2018-10-14T07:42:47Z</time>
      </trkpt>
      <trkpt lat="43.25715" lon="5.95391">
        <ele>408.3046875</ele>
        <time>2018-10-14T07:42:59Z</time>
      </trkpt>
      <trkpt lat="43.25722" lon="5.95349">
        <ele>411.7578125</ele>
        <time>2018-10-14T07:43:12Z</time>
      </trkpt>
      <trkpt lat="43.25736" lon="5.95313">
        <ele>412.5</ele>
        <time>2018-10-14T07:43:26Z</time>
      </trkpt>
      <trkpt lat="43.25743" lon="5.95269">
        <ele>414.28125</ele>
        <time>2018-10-14T07:43:44Z</time>
      </trkpt>
      <trkpt lat="43.25744" lon="5.95228">
        <ele>414.171875</ele>
        <time>2018-10-14T07:43:56Z</time>
      </trkpt>
      <trkpt lat="43.25734" lon="5.95165">
        <ele>413.84765625</ele>
        <time>2018-10-14T07:44:09Z</time>
      </trkpt>
      <trkpt lat="43.25729" lon="5.95155">
        <ele>414.4765625</ele>
        <time>2018-10-14T07:44:11Z</time>
      </trkpt>
      <trkpt lat="43.25728" lon="5.95149">
        <ele>414.3828125</ele>
        <time>2018-10-14T07:44:12Z</time>
      </trkpt>
      <trkpt lat="43.25727" lon="5.95143">
        <ele>414.05859375</ele>
        <time>2018-10-14T07:44:13Z</time>
      </trkpt>
      <trkpt lat="43.25727" lon="5.95137">
        <ele>413.66015625</ele>
        <time>2018-10-14T07:44:14Z</time>
      </trkpt>
      <trkpt lat="43.25728" lon="5.95132">
        <ele>413.37890625</ele>
        <time>2018-10-14T07:44:15Z</time>
      </trkpt>
      <trkpt lat="43.25729" lon="5.95128">
        <ele>413.0703125</ele>
        <time>2018-10-14T07:44:16Z</time>
      </trkpt>
      <trkpt lat="43.2573" lon="5.95123">
        <ele>412.74609375</ele>
        <time>2018-10-14T07:44:17Z</time>
      </trkpt>
      <trkpt lat="43.2573" lon="5.95119">
        <ele>412.42578125</ele>
        <time>2018-10-14T07:44:18Z</time>
      </trkpt>
      <trkpt lat="43.25731" lon="5.95059">
        <ele>411.734375</ele>
        <time>2018-10-14T07:44:30Z</time>
      </trkpt>
      <trkpt lat="43.25732" lon="5.95014">
        <ele>412.421875</ele>
        <time>2018-10-14T07:44:43Z</time>
      </trkpt>
      <trkpt lat="43.25743" lon="5.94985">
        <ele>412.87109375</ele>
        <time>2018-10-14T07:44:57Z</time>
      </trkpt>
      <trkpt lat="43.2575" lon="5.94964">
        <ele>414.5546875</ele>
        <time>2018-10-14T07:45:09Z</time>
      </trkpt>
      <trkpt lat="43.25758" lon="5.94942">
        <ele>416.8515625</ele>
        <time>2018-10-14T07:45:26Z</time>
      </trkpt>
      <trkpt lat="43.25769" lon="5.94922">
        <ele>419.2734375</ele>
        <time>2018-10-14T07:45:42Z</time>
      </trkpt>
      <trkpt lat="43.2578" lon="5.94902">
        <ele>422.375</ele>
        <time>2018-10-14T07:45:57Z</time>
      </trkpt>
      <trkpt lat="43.25793" lon="5.94882">
        <ele>424.84765625</ele>
        <time>2018-10-14T07:46:13Z</time>
      </trkpt>
      <trkpt lat="43.25809" lon="5.94875">
        <ele>424.77734375</ele>
        <time>2018-10-14T07:46:27Z</time>
      </trkpt>
      <trkpt lat="43.25829" lon="5.94873">
        <ele>420.7578125</ele>
        <time>2018-10-14T07:46:41Z</time>
      </trkpt>
      <trkpt lat="43.2585" lon="5.94862">
        <ele>417.7265625</ele>
        <time>2018-10-14T07:46:55Z</time>
      </trkpt>
      <trkpt lat="43.25871" lon="5.9484">
        <ele>415.78515625</ele>
        <time>2018-10-14T07:47:09Z</time>
      </trkpt>
      <trkpt lat="43.25889" lon="5.94811">
        <ele>416.3125</ele>
        <time>2018-10-14T07:47:22Z</time>
      </trkpt>
      <trkpt lat="43.25907" lon="5.94782">
        <ele>419.3359375</ele>
        <time>2018-10-14T07:47:36Z</time>
      </trkpt>
      <trkpt lat="43.25923" lon="5.94755">
        <ele>422.5703125</ele>
        <time>2018-10-14T07:47:50Z</time>
      </trkpt>
      <trkpt lat="43.25939" lon="5.94734">
        <ele>424.15234375</ele>
        <time>2018-10-14T07:48:03Z</time>
      </trkpt>
      <trkpt lat="43.25952" lon="5.94707">
        <ele>427.15625</ele>
        <time>2018-10-14T07:48:16Z</time>
      </trkpt>
      <trkpt lat="43.25965" lon="5.9467">
        <ele>430.09765625</ele>
        <time>2018-10-14T07:48:33Z</time>
      </trkpt>
      <trkpt lat="43.2597" lon="5.94641">
        <ele>431.953125</ele>
        <time>2018-10-14T07:48:47Z</time>
      </trkpt>
      <trkpt lat="43.25971" lon="5.94605">
        <ele>433.31640625</ele>
        <time>2018-10-14T07:49:03Z</time>
      </trkpt>
      <trkpt lat="43.25955" lon="5.94579">
        <ele>437.66796875</ele>
        <time>2018-10-14T07:49:17Z</time>
      </trkpt>
      <trkpt lat="43.25939" lon="5.94558">
        <ele>439.43359375</ele>
        <time>2018-10-14T07:49:29Z</time>
      </trkpt>
      <trkpt lat="43.25938" lon="5.94556">
        <ele>439.43359375</ele>
        <time>2018-10-14T07:49:30Z</time>
      </trkpt>
      <trkpt lat="43.25938" lon="5.94554">
        <ele>439.515625</ele>
        <time>2018-10-14T07:49:31Z</time>
      </trkpt>
      <trkpt lat="43.25928" lon="5.9452">
        <ele>441.62109375</ele>
        <time>2018-10-14T07:49:44Z</time>
      </trkpt>
      <trkpt lat="43.25929" lon="5.94494">
        <ele>442.61328125</ele>
        <time>2018-10-14T07:49:52Z</time>
      </trkpt>
      <trkpt lat="43.25931" lon="5.94492">
        <ele>442.34375</ele>
        <time>2018-10-14T07:49:53Z</time>
      </trkpt>
      <trkpt lat="43.25933" lon="5.94491">
        <ele>442.0625</ele>
        <time>2018-10-14T07:49:54Z</time>
      </trkpt>
      <trkpt lat="43.25954" lon="5.9446">
        <ele>441.03125</ele>
        <time>2018-10-14T07:50:06Z</time>
      </trkpt>
      <trkpt lat="43.2596" lon="5.94453">
        <ele>440.98046875</ele>
        <time>2018-10-14T07:50:09Z</time>
      </trkpt>
      <trkpt lat="43.25961" lon="5.94451">
        <ele>440.94140625</ele>
        <time>2018-10-14T07:50:10Z</time>
      </trkpt>
      <trkpt lat="43.25963" lon="5.94448">
        <ele>441</ele>
        <time>2018-10-14T07:50:24Z</time>
      </trkpt>
      <trkpt lat="43.25971" lon="5.94439">
        <ele>440.62890625</ele>
        <time>2018-10-14T07:50:43Z</time>
      </trkpt>
      <trkpt lat="43.26" lon="5.94396">
        <ele>438.79296875</ele>
        <time>2018-10-14T07:50:55Z</time>
      </trkpt>
      <trkpt lat="43.26018" lon="5.94374">
        <ele>437.85546875</ele>
        <time>2018-10-14T07:51:05Z</time>
      </trkpt>
      <trkpt lat="43.26021" lon="5.94368">
        <ele>438.00390625</ele>
        <time>2018-10-14T07:51:17Z</time>
      </trkpt>
      <trkpt lat="43.26022" lon="5.94368">
        <ele>438.00390625</ele>
        <time>2018-10-14T07:51:50Z</time>
      </trkpt>
      <trkpt lat="43.26021" lon="5.94367">
        <ele>438.13671875</ele>
        <time>2018-10-14T07:52:16Z</time>
      </trkpt>
      <trkpt lat="43.26022" lon="5.94367">
        <ele>438.0625</ele>
        <time>2018-10-14T07:52:19Z</time>
      </trkpt>
      <trkpt lat="43.26022" lon="5.94367">
        <ele>438.05078125</ele>
        <time>2018-10-14T07:52:20Z</time>
      </trkpt>
      <trkpt lat="43.26022" lon="5.94367">
        <ele>438.046875</ele>
        <time>2018-10-14T07:52:21Z</time>
      </trkpt>
      <trkpt lat="43.26022" lon="5.94367">
        <ele>438.0546875</ele>
        <time>2018-10-14T07:52:23Z</time>
      </trkpt>
      <trkpt lat="43.26022" lon="5.94367">
        <ele>438.05078125</ele>
        <time>2018-10-14T07:52:24Z</time>
      </trkpt>
      <trkpt lat="43.26021" lon="5.94367">
        <ele>438.10546875</ele>
        <time>2018-10-14T07:52:31Z</time>
      </trkpt>
      <trkpt lat="43.26021" lon="5.94368">
        <ele>438.0703125</ele>
        <time>2018-10-14T07:52:32Z</time>
      </trkpt>
      <trkpt lat="43.26022" lon="5.94366">
        <ele>438.0703125</ele>
        <time>2018-10-14T07:52:45Z</time>
      </trkpt>
      <trkpt lat="43.26024" lon="5.94366">
        <ele>438.01953125</ele>
        <time>2018-10-14T07:52:46Z</time>
      </trkpt>
      <trkpt lat="43.26025" lon="5.94365">
        <ele>437.984375</ele>
        <time>2018-10-14T07:52:47Z</time>
      </trkpt>
      <trkpt lat="43.26027" lon="5.94363">
        <ele>437.9921875</ele>
        <time>2018-10-14T07:52:48Z</time>
      </trkpt>
      <trkpt lat="43.26029" lon="5.94361">
        <ele>438.01953125</ele>
        <time>2018-10-14T07:52:49Z</time>
      </trkpt>
      <trkpt lat="43.2603" lon="5.9436">
        <ele>438.05078125</ele>
        <time>2018-10-14T07:52:50Z</time>
      </trkpt>
      <trkpt lat="43.26032" lon="5.94358">
        <ele>437.9765625</ele>
        <time>2018-10-14T07:52:51Z</time>
      </trkpt>
      <trkpt lat="43.26034" lon="5.94357">
        <ele>437.91015625</ele>
        <time>2018-10-14T07:52:52Z</time>
      </trkpt>
      <trkpt lat="43.26035" lon="5.94356">
        <ele>437.859375</ele>
        <time>2018-10-14T07:52:53Z</time>
      </trkpt>
      <trkpt lat="43.26059" lon="5.9433">
        <ele>437.04296875</ele>
        <time>2018-10-14T07:53:04Z</time>
      </trkpt>
      <trkpt lat="43.2609" lon="5.94291">
        <ele>435.765625</ele>
        <time>2018-10-14T07:53:13Z</time>
      </trkpt>
      <trkpt lat="43.26111" lon="5.94259">
        <ele>434.84765625</ele>
        <time>2018-10-14T07:53:18Z</time>
      </trkpt>
      <trkpt lat="43.26116" lon="5.94251">
        <ele>434.67578125</ele>
        <time>2018-10-14T07:53:19Z</time>
      </trkpt>
      <trkpt lat="43.26126" lon="5.94234">
        <ele>433.26171875</ele>
        <time>2018-10-14T07:53:21Z</time>
      </trkpt>
      <trkpt lat="43.26178" lon="5.94127">
        <ele>424.8125</ele>
        <time>2018-10-14T07:53:32Z</time>
      </trkpt>
      <trkpt lat="43.26189" lon="5.94039">
        <ele>423.1953125</ele>
        <time>2018-10-14T07:53:39Z</time>
      </trkpt>
      <trkpt lat="43.26188" lon="5.94028">
        <ele>423.36328125</ele>
        <time>2018-10-14T07:53:40Z</time>
      </trkpt>
      <trkpt lat="43.26186" lon="5.94018">
        <ele>423.734375</ele>
        <time>2018-10-14T07:53:41Z</time>
      </trkpt>
      <trkpt lat="43.26183" lon="5.94009">
        <ele>424.2578125</ele>
        <time>2018-10-14T07:53:42Z</time>
      </trkpt>
      <trkpt lat="43.2618" lon="5.94">
        <ele>424.71875</ele>
        <time>2018-10-14T07:53:43Z</time>
      </trkpt>
      <trkpt lat="43.2618" lon="5.93991">
        <ele>424.8515625</ele>
        <time>2018-10-14T07:53:44Z</time>
      </trkpt>
      <trkpt lat="43.26181" lon="5.93983">
        <ele>424.49609375</ele>
        <time>2018-10-14T07:53:45Z</time>
      </trkpt>
      <trkpt lat="43.26184" lon="5.93976">
        <ele>423.80859375</ele>
        <time>2018-10-14T07:53:46Z</time>
      </trkpt>
      <trkpt lat="43.26188" lon="5.93968">
        <ele>423.09375</ele>
        <time>2018-10-14T07:53:47Z</time>
      </trkpt>
      <trkpt lat="43.26205" lon="5.93932">
        <ele>420.71484375</ele>
        <time>2018-10-14T07:53:51Z</time>
      </trkpt>
      <trkpt lat="43.26208" lon="5.93922">
        <ele>420.1875</ele>
        <time>2018-10-14T07:53:52Z</time>
      </trkpt>
      <trkpt lat="43.26211" lon="5.93913">
        <ele>419.71875</ele>
        <time>2018-10-14T07:53:53Z</time>
      </trkpt>
      <trkpt lat="43.26213" lon="5.93903">
        <ele>419.42578125</ele>
        <time>2018-10-14T07:53:54Z</time>
      </trkpt>
      <trkpt lat="43.26214" lon="5.93893">
        <ele>419.26171875</ele>
        <time>2018-10-14T07:53:55Z</time>
      </trkpt>
      <trkpt lat="43.2622" lon="5.93837">
        <ele>419.72265625</ele>
        <time>2018-10-14T07:54:04Z</time>
      </trkpt>
      <trkpt lat="43.2622" lon="5.93835">
        <ele>419.8515625</ele>
        <time>2018-10-14T07:54:05Z</time>
      </trkpt>
      <trkpt lat="43.2622" lon="5.93833">
        <ele>420</ele>
        <time>2018-10-14T07:54:06Z</time>
      </trkpt>
      <trkpt lat="43.26218" lon="5.93821">
        <ele>419.51171875</ele>
        <time>2018-10-14T07:54:20Z</time>
      </trkpt>
      <trkpt lat="43.26208" lon="5.93791">
        <ele>418.76171875</ele>
        <time>2018-10-14T07:54:31Z</time>
      </trkpt>
      <trkpt lat="43.26206" lon="5.93785">
        <ele>418.4765625</ele>
        <time>2018-10-14T07:54:32Z</time>
      </trkpt>
      <trkpt lat="43.26182" lon="5.93727">
        <ele>415.58984375</ele>
        <time>2018-10-14T07:54:42Z</time>
      </trkpt>
      <trkpt lat="43.26167" lon="5.93705">
        <ele>415.28515625</ele>
        <time>2018-10-14T07:54:46Z</time>
      </trkpt>
      <trkpt lat="43.26159" lon="5.93695">
        <ele>415.94140625</ele>
        <time>2018-10-14T07:54:48Z</time>
      </trkpt>
      <trkpt lat="43.26154" lon="5.93691">
        <ele>416.39453125</ele>
        <time>2018-10-14T07:54:49Z</time>
      </trkpt>
      <trkpt lat="43.26134" lon="5.93673">
        <ele>417.45703125</ele>
        <time>2018-10-14T07:54:53Z</time>
      </trkpt>
      <trkpt lat="43.2613" lon="5.93666">
        <ele>417.171875</ele>
        <time>2018-10-14T07:54:54Z</time>
      </trkpt>
      <trkpt lat="43.26073" lon="5.93594">
        <ele>412.890625</ele>
        <time>2018-10-14T07:55:06Z</time>
      </trkpt>
      <trkpt lat="43.26048" lon="5.93577">
        <ele>413.8671875</ele>
        <time>2018-10-14T07:55:10Z</time>
      </trkpt>
      <trkpt lat="43.26041" lon="5.93573">
        <ele>414.375</ele>
        <time>2018-10-14T07:55:11Z</time>
      </trkpt>
      <trkpt lat="43.26021" lon="5.93561">
        <ele>414.4375</ele>
        <time>2018-10-14T07:55:14Z</time>
      </trkpt>
      <trkpt lat="43.26009" lon="5.93554">
        <ele>413.68359375</ele>
        <time>2018-10-14T07:55:16Z</time>
      </trkpt>
      <trkpt lat="43.26003" lon="5.93553">
        <ele>414.37890625</ele>
        <time>2018-10-14T07:55:17Z</time>
      </trkpt>
      <trkpt lat="43.25998" lon="5.93554">
        <ele>414.84375</ele>
        <time>2018-10-14T07:55:18Z</time>
      </trkpt>
      <trkpt lat="43.25992" lon="5.93557">
        <ele>415.67578125</ele>
        <time>2018-10-14T07:55:19Z</time>
      </trkpt>
      <trkpt lat="43.25987" lon="5.93561">
        <ele>417.00390625</ele>
        <time>2018-10-14T07:55:20Z</time>
      </trkpt>
      <trkpt lat="43.25981" lon="5.93566">
        <ele>418.68359375</ele>
        <time>2018-10-14T07:55:21Z</time>
      </trkpt>
      <trkpt lat="43.25967" lon="5.93576">
        <ele>420.56640625</ele>
        <time>2018-10-14T07:55:23Z</time>
      </trkpt>
      <trkpt lat="43.25936" lon="5.93591">
        <ele>421.640625</ele>
        <time>2018-10-14T07:55:28Z</time>
      </trkpt>
      <trkpt lat="43.2593" lon="5.9359">
        <ele>420.59375</ele>
        <time>2018-10-14T07:55:29Z</time>
      </trkpt>
      <trkpt lat="43.25925" lon="5.93587">
        <ele>418.9296875</ele>
        <time>2018-10-14T07:55:30Z</time>
      </trkpt>
      <trkpt lat="43.25919" lon="5.93582">
        <ele>416.8046875</ele>
        <time>2018-10-14T07:55:31Z</time>
      </trkpt>
      <trkpt lat="43.25914" lon="5.93576">
        <ele>414.90625</ele>
        <time>2018-10-14T07:55:32Z</time>
      </trkpt>
      <trkpt lat="43.25911" lon="5.93568">
        <ele>412.80078125</ele>
        <time>2018-10-14T07:55:33Z</time>
      </trkpt>
      <trkpt lat="43.25908" lon="5.93559">
        <ele>410.5078125</ele>
        <time>2018-10-14T07:55:34Z</time>
      </trkpt>
      <trkpt lat="43.25907" lon="5.93549">
        <ele>408.67578125</ele>
        <time>2018-10-14T07:55:35Z</time>
      </trkpt>
      <trkpt lat="43.25906" lon="5.9354">
        <ele>407.3828125</ele>
        <time>2018-10-14T07:55:36Z</time>
      </trkpt>
      <trkpt lat="43.25905" lon="5.93532">
        <ele>406.25</ele>
        <time>2018-10-14T07:55:37Z</time>
      </trkpt>
      <trkpt lat="43.25903" lon="5.93524">
        <ele>405.30859375</ele>
        <time>2018-10-14T07:55:38Z</time>
      </trkpt>
      <trkpt lat="43.259" lon="5.93517">
        <ele>404.6171875</ele>
        <time>2018-10-14T07:55:39Z</time>
      </trkpt>
      <trkpt lat="43.25898" lon="5.9351">
        <ele>403.95703125</ele>
        <time>2018-10-14T07:55:40Z</time>
      </trkpt>
      <trkpt lat="43.25894" lon="5.93504">
        <ele>403.39453125</ele>
        <time>2018-10-14T07:55:41Z</time>
      </trkpt>
      <trkpt lat="43.25889" lon="5.93499">
        <ele>403.32421875</ele>
        <time>2018-10-14T07:55:42Z</time>
      </trkpt>
      <trkpt lat="43.25884" lon="5.93495">
        <ele>403.734375</ele>
        <time>2018-10-14T07:55:43Z</time>
      </trkpt>
      <trkpt lat="43.25879" lon="5.93492">
        <ele>404.26171875</ele>
        <time>2018-10-14T07:55:44Z</time>
      </trkpt>
      <trkpt lat="43.25872" lon="5.9349">
        <ele>404.85546875</ele>
        <time>2018-10-14T07:55:45Z</time>
      </trkpt>
      <trkpt lat="43.25866" lon="5.93487">
        <ele>405.375</ele>
        <time>2018-10-14T07:55:46Z</time>
      </trkpt>
      <trkpt lat="43.25861" lon="5.93483">
        <ele>405.72265625</ele>
        <time>2018-10-14T07:55:47Z</time>
      </trkpt>
      <trkpt lat="43.25856" lon="5.93477">
        <ele>405.734375</ele>
        <time>2018-10-14T07:55:48Z</time>
      </trkpt>
      <trkpt lat="43.25853" lon="5.93469">
        <ele>405.44140625</ele>
        <time>2018-10-14T07:55:49Z</time>
      </trkpt>
      <trkpt lat="43.25851" lon="5.93461">
        <ele>404.89453125</ele>
        <time>2018-10-14T07:55:50Z</time>
      </trkpt>
      <trkpt lat="43.25851" lon="5.93452">
        <ele>404.1328125</ele>
        <time>2018-10-14T07:55:51Z</time>
      </trkpt>
      <trkpt lat="43.25851" lon="5.93443">
        <ele>403.3046875</ele>
        <time>2018-10-14T07:55:52Z</time>
      </trkpt>
      <trkpt lat="43.25852" lon="5.93434">
        <ele>402.5703125</ele>
        <time>2018-10-14T07:55:53Z</time>
      </trkpt>
      <trkpt lat="43.25851" lon="5.93377">
        <ele>398.98046875</ele>
        <time>2018-10-14T07:55:59Z</time>
      </trkpt>
      <trkpt lat="43.25848" lon="5.93368">
        <ele>398.96875</ele>
        <time>2018-10-14T07:56:00Z</time>
      </trkpt>
      <trkpt lat="43.25844" lon="5.9336">
        <ele>399.14453125</ele>
        <time>2018-10-14T07:56:01Z</time>
      </trkpt>
      <trkpt lat="43.25838" lon="5.93355">
        <ele>399.38671875</ele>
        <time>2018-10-14T07:56:02Z</time>
      </trkpt>
      <trkpt lat="43.25831" lon="5.93351">
        <ele>399.6953125</ele>
        <time>2018-10-14T07:56:03Z</time>
      </trkpt>
      <trkpt lat="43.25824" lon="5.93349">
        <ele>400.05859375</ele>
        <time>2018-10-14T07:56:04Z</time>
      </trkpt>
      <trkpt lat="43.25818" lon="5.93349">
        <ele>400.515625</ele>
        <time>2018-10-14T07:56:05Z</time>
      </trkpt>
      <trkpt lat="43.25811" lon="5.93349">
        <ele>401</ele>
        <time>2018-10-14T07:56:06Z</time>
      </trkpt>
      <trkpt lat="43.25798" lon="5.93344">
        <ele>401.546875</ele>
        <time>2018-10-14T07:56:08Z</time>
      </trkpt>
      <trkpt lat="43.25794" lon="5.93338">
        <ele>401.44140625</ele>
        <time>2018-10-14T07:56:09Z</time>
      </trkpt>
      <trkpt lat="43.25784" lon="5.93324">
        <ele>400.8203125</ele>
        <time>2018-10-14T07:56:11Z</time>
      </trkpt>
      <trkpt lat="43.25779" lon="5.93318">
        <ele>400.4765625</ele>
        <time>2018-10-14T07:56:12Z</time>
      </trkpt>
      <trkpt lat="43.25773" lon="5.93314">
        <ele>399.99609375</ele>
        <time>2018-10-14T07:56:13Z</time>
      </trkpt>
      <trkpt lat="43.25727" lon="5.93286">
        <ele>397.921875</ele>
        <time>2018-10-14T07:56:20Z</time>
      </trkpt>
      <trkpt lat="43.25719" lon="5.93283">
        <ele>397.65234375</ele>
        <time>2018-10-14T07:56:21Z</time>
      </trkpt>
      <trkpt lat="43.25711" lon="5.93282">
        <ele>397.51953125</ele>
        <time>2018-10-14T07:56:22Z</time>
      </trkpt>
      <trkpt lat="43.25624" lon="5.93275">
        <ele>396.72265625</ele>
        <time>2018-10-14T07:56:33Z</time>
      </trkpt>
      <trkpt lat="43.25608" lon="5.93271">
        <ele>396.234375</ele>
        <time>2018-10-14T07:56:35Z</time>
      </trkpt>
      <trkpt lat="43.25601" lon="5.93267">
        <ele>395.74609375</ele>
        <time>2018-10-14T07:56:36Z</time>
      </trkpt>
      <trkpt lat="43.25551" lon="5.9323">
        <ele>391.91796875</ele>
        <time>2018-10-14T07:56:44Z</time>
      </trkpt>
      <trkpt lat="43.25492" lon="5.9321">
        <ele>391.7734375</ele>
        <time>2018-10-14T07:56:55Z</time>
      </trkpt>
      <trkpt lat="43.25464" lon="5.93211">
        <ele>392.9453125</ele>
        <time>2018-10-14T07:57:06Z</time>
      </trkpt>
      <trkpt lat="43.25429" lon="5.93205">
        <ele>392.75</ele>
        <time>2018-10-14T07:57:22Z</time>
      </trkpt>
      <trkpt lat="43.25397" lon="5.93193">
        <ele>393.65234375</ele>
        <time>2018-10-14T07:57:37Z</time>
      </trkpt>
      <trkpt lat="43.25367" lon="5.93179">
        <ele>394.3828125</ele>
        <time>2018-10-14T07:57:51Z</time>
      </trkpt>
      <trkpt lat="43.25341" lon="5.93174">
        <ele>395.12890625</ele>
        <time>2018-10-14T07:58:05Z</time>
      </trkpt>
      <trkpt lat="43.25315" lon="5.93186">
        <ele>396.47265625</ele>
        <time>2018-10-14T07:58:18Z</time>
      </trkpt>
      <trkpt lat="43.25292" lon="5.93198">
        <ele>397.92578125</ele>
        <time>2018-10-14T07:58:30Z</time>
      </trkpt>
      <trkpt lat="43.25261" lon="5.93202">
        <ele>399.296875</ele>
        <time>2018-10-14T07:58:45Z</time>
      </trkpt>
      <trkpt lat="43.25232" lon="5.93208">
        <ele>401.16796875</ele>
        <time>2018-10-14T07:58:59Z</time>
      </trkpt>
      <trkpt lat="43.25205" lon="5.93228">
        <ele>403.12890625</ele>
        <time>2018-10-14T07:59:14Z</time>
      </trkpt>
      <trkpt lat="43.25184" lon="5.93228">
        <ele>404.4296875</ele>
        <time>2018-10-14T07:59:25Z</time>
      </trkpt>
      <trkpt lat="43.25183" lon="5.93226">
        <ele>404.40625</ele>
        <time>2018-10-14T07:59:26Z</time>
      </trkpt>
      <trkpt lat="43.25181" lon="5.93225">
        <ele>404.41015625</ele>
        <time>2018-10-14T07:59:27Z</time>
      </trkpt>
      <trkpt lat="43.2518" lon="5.93223">
        <ele>404.40625</ele>
        <time>2018-10-14T07:59:28Z</time>
      </trkpt>
      <trkpt lat="43.25178" lon="5.93221">
        <ele>404.421875</ele>
        <time>2018-10-14T07:59:29Z</time>
      </trkpt>
      <trkpt lat="43.25177" lon="5.9322">
        <ele>404.4921875</ele>
        <time>2018-10-14T07:59:30Z</time>
      </trkpt>
      <trkpt lat="43.25164" lon="5.93214">
        <ele>404.97265625</ele>
        <time>2018-10-14T07:59:37Z</time>
      </trkpt>
      <trkpt lat="43.25162" lon="5.93214">
        <ele>405.07421875</ele>
        <time>2018-10-14T07:59:38Z</time>
      </trkpt>
      <trkpt lat="43.25161" lon="5.93213">
        <ele>405.140625</ele>
        <time>2018-10-14T07:59:39Z</time>
      </trkpt>
      <trkpt lat="43.25159" lon="5.93213">
        <ele>405.23046875</ele>
        <time>2018-10-14T07:59:40Z</time>
      </trkpt>
      <trkpt lat="43.25157" lon="5.93213">
        <ele>405.31640625</ele>
        <time>2018-10-14T07:59:41Z</time>
      </trkpt>
      <trkpt lat="43.25155" lon="5.93212">
        <ele>405.40625</ele>
        <time>2018-10-14T07:59:42Z</time>
      </trkpt>
      <trkpt lat="43.25153" lon="5.93212">
        <ele>405.49609375</ele>
        <time>2018-10-14T07:59:43Z</time>
      </trkpt>
      <trkpt lat="43.25151" lon="5.93212">
        <ele>405.578125</ele>
        <time>2018-10-14T07:59:44Z</time>
      </trkpt>
      <trkpt lat="43.25149" lon="5.93212">
        <ele>405.65625</ele>
        <time>2018-10-14T07:59:45Z</time>
      </trkpt>
      <trkpt lat="43.25124" lon="5.93208">
        <ele>407.671875</ele>
        <time>2018-10-14T08:00:00Z</time>
      </trkpt>
      <trkpt lat="43.25123" lon="5.9321">
        <ele>407.83203125</ele>
        <time>2018-10-14T08:00:01Z</time>
      </trkpt>
      <trkpt lat="43.25121" lon="5.93211">
        <ele>408.015625</ele>
        <time>2018-10-14T08:00:02Z</time>
      </trkpt>
      <trkpt lat="43.25119" lon="5.93211">
        <ele>408.18359375</ele>
        <time>2018-10-14T08:00:03Z</time>
      </trkpt>
      <trkpt lat="43.25118" lon="5.93212">
        <ele>408.3671875</ele>
        <time>2018-10-14T08:00:04Z</time>
      </trkpt>
      <trkpt lat="43.25116" lon="5.93214">
        <ele>408.5703125</ele>
        <time>2018-10-14T08:00:05Z</time>
      </trkpt>
      <trkpt lat="43.25108" lon="5.9322">
        <ele>409.4140625</ele>
        <time>2018-10-14T08:00:10Z</time>
      </trkpt>
      <trkpt lat="43.25107" lon="5.93221">
        <ele>409.53125</ele>
        <time>2018-10-14T08:00:11Z</time>
      </trkpt>
      <trkpt lat="43.25106" lon="5.93223">
        <ele>409.66015625</ele>
        <time>2018-10-14T08:00:12Z</time>
      </trkpt>
      <trkpt lat="43.25105" lon="5.93224">
        <ele>409.859375</ele>
        <time>2018-10-14T08:00:13Z</time>
      </trkpt>
      <trkpt lat="43.25104" lon="5.93225">
        <ele>410.0546875</ele>
        <time>2018-10-14T08:00:14Z</time>
      </trkpt>
      <trkpt lat="43.25102" lon="5.93228">
        <ele>410.375</ele>
        <time>2018-10-14T08:00:16Z</time>
      </trkpt>
      <trkpt lat="43.251" lon="5.93229">
        <ele>410.54296875</ele>
        <time>2018-10-14T08:00:17Z</time>
      </trkpt>
      <trkpt lat="43.25099" lon="5.9323">
        <ele>410.671875</ele>
        <time>2018-10-14T08:00:18Z</time>
      </trkpt>
      <trkpt lat="43.25083" lon="5.93246">
        <ele>412.83984375</ele>
        <time>2018-10-14T08:00:31Z</time>
      </trkpt>
      <trkpt lat="43.25067" lon="5.93263">
        <ele>414.34375</ele>
        <time>2018-10-14T08:00:45Z</time>
      </trkpt>
      <trkpt lat="43.2505" lon="5.93274">
        <ele>414.890625</ele>
        <time>2018-10-14T08:00:59Z</time>
      </trkpt>
      <trkpt lat="43.25042" lon="5.9328">
        <ele>415.0859375</ele>
        <time>2018-10-14T08:01:05Z</time>
      </trkpt>
      <trkpt lat="43.2504" lon="5.93281">
        <ele>415.13671875</ele>
        <time>2018-10-14T08:01:06Z</time>
      </trkpt>
      <trkpt lat="43.25029" lon="5.93294">
        <ele>415.60546875</ele>
        <time>2018-10-14T08:01:17Z</time>
      </trkpt>
      <trkpt lat="43.25025" lon="5.93302">
        <ele>415.89453125</ele>
        <time>2018-10-14T08:01:22Z</time>
      </trkpt>
      <trkpt lat="43.25023" lon="5.93308">
        <ele>416.3515625</ele>
        <time>2018-10-14T08:01:26Z</time>
      </trkpt>
      <trkpt lat="43.25014" lon="5.93324">
        <ele>418.3984375</ele>
        <time>2018-10-14T08:01:37Z</time>
      </trkpt>
      <trkpt lat="43.25002" lon="5.93346">
        <ele>421.80859375</ele>
        <time>2018-10-14T08:01:50Z</time>
      </trkpt>
      <trkpt lat="43.24993" lon="5.93365">
        <ele>424.4140625</ele>
        <time>2018-10-14T08:02:02Z</time>
      </trkpt>
      <trkpt lat="43.24989" lon="5.93371">
        <ele>425.26953125</ele>
        <time>2018-10-14T08:02:06Z</time>
      </trkpt>
      <trkpt lat="43.24987" lon="5.93372">
        <ele>425.4140625</ele>
        <time>2018-10-14T08:02:07Z</time>
      </trkpt>
      <trkpt lat="43.24984" lon="5.93375">
        <ele>425.91015625</ele>
        <time>2018-10-14T08:02:09Z</time>
      </trkpt>
      <trkpt lat="43.24983" lon="5.93377">
        <ele>426.15234375</ele>
        <time>2018-10-14T08:02:10Z</time>
      </trkpt>
      <trkpt lat="43.24981" lon="5.93379">
        <ele>426.421875</ele>
        <time>2018-10-14T08:02:11Z</time>
      </trkpt>
      <trkpt lat="43.2498" lon="5.9338">
        <ele>426.65625</ele>
        <time>2018-10-14T08:02:12Z</time>
      </trkpt>
      <trkpt lat="43.24979" lon="5.93382">
        <ele>426.87109375</ele>
        <time>2018-10-14T08:02:13Z</time>
      </trkpt>
      <trkpt lat="43.24977" lon="5.93383">
        <ele>427.1015625</ele>
        <time>2018-10-14T08:02:14Z</time>
      </trkpt>
      <trkpt lat="43.24976" lon="5.93384">
        <ele>427.265625</ele>
        <time>2018-10-14T08:02:15Z</time>
      </trkpt>
      <trkpt lat="43.24974" lon="5.93385">
        <ele>427.2578125</ele>
        <time>2018-10-14T08:02:16Z</time>
      </trkpt>
      <trkpt lat="43.24973" lon="5.93386">
        <ele>427.2890625</ele>
        <time>2018-10-14T08:02:17Z</time>
      </trkpt>
      <trkpt lat="43.24971" lon="5.93387">
        <ele>427.2421875</ele>
        <time>2018-10-14T08:02:18Z</time>
      </trkpt>
      <trkpt lat="43.24969" lon="5.93387">
        <ele>427.12109375</ele>
        <time>2018-10-14T08:02:19Z</time>
      </trkpt>
      <trkpt lat="43.24968" lon="5.93388">
        <ele>426.98828125</ele>
        <time>2018-10-14T08:02:20Z</time>
      </trkpt>
      <trkpt lat="43.24966" lon="5.93388">
        <ele>426.859375</ele>
        <time>2018-10-14T08:02:21Z</time>
      </trkpt>
      <trkpt lat="43.24964" lon="5.93388">
        <ele>426.67578125</ele>
        <time>2018-10-14T08:02:22Z</time>
      </trkpt>
      <trkpt lat="43.24962" lon="5.93389">
        <ele>426.5234375</ele>
        <time>2018-10-14T08:02:23Z</time>
      </trkpt>
      <trkpt lat="43.2496" lon="5.93389">
        <ele>426.3671875</ele>
        <time>2018-10-14T08:02:24Z</time>
      </trkpt>
      <trkpt lat="43.24958" lon="5.93389">
        <ele>426.18359375</ele>
        <time>2018-10-14T08:02:25Z</time>
      </trkpt>
      <trkpt lat="43.24956" lon="5.9339">
        <ele>426</ele>
        <time>2018-10-14T08:02:26Z</time>
      </trkpt>
      <trkpt lat="43.24927" lon="5.93382">
        <ele>423.4375</ele>
        <time>2018-10-14T08:02:42Z</time>
      </trkpt>
      <trkpt lat="43.24897" lon="5.93374">
        <ele>423.31640625</ele>
        <time>2018-10-14T08:02:59Z</time>
      </trkpt>
      <trkpt lat="43.24888" lon="5.93361">
        <ele>422.3671875</ele>
        <time>2018-10-14T08:03:08Z</time>
      </trkpt>
      <trkpt lat="43.24887" lon="5.93359">
        <ele>422.3671875</ele>
        <time>2018-10-14T08:03:09Z</time>
      </trkpt>
      <trkpt lat="43.24882" lon="5.93353">
        <ele>422.61328125</ele>
        <time>2018-10-14T08:03:14Z</time>
      </trkpt>
      <trkpt lat="43.24881" lon="5.93352">
        <ele>422.68359375</ele>
        <time>2018-10-14T08:03:15Z</time>
      </trkpt>
      <trkpt lat="43.24879" lon="5.93351">
        <ele>422.765625</ele>
        <time>2018-10-14T08:03:16Z</time>
      </trkpt>
      <trkpt lat="43.24878" lon="5.9335">
        <ele>422.86328125</ele>
        <time>2018-10-14T08:03:17Z</time>
      </trkpt>
      <trkpt lat="43.24877" lon="5.93349">
        <ele>422.97265625</ele>
        <time>2018-10-14T08:03:18Z</time>
      </trkpt>
      <trkpt lat="43.24874" lon="5.93346">
        <ele>423.2109375</ele>
        <time>2018-10-14T08:03:20Z</time>
      </trkpt>
      <trkpt lat="43.24872" lon="5.93346">
        <ele>423.34375</ele>
        <time>2018-10-14T08:03:21Z</time>
      </trkpt>
      <trkpt lat="43.2487" lon="5.93346">
        <ele>423.5</ele>
        <time>2018-10-14T08:03:22Z</time>
      </trkpt>
      <trkpt lat="43.24869" lon="5.93346">
        <ele>423.65625</ele>
        <time>2018-10-14T08:03:23Z</time>
      </trkpt>
      <trkpt lat="43.24867" lon="5.93345">
        <ele>423.796875</ele>
        <time>2018-10-14T08:03:24Z</time>
      </trkpt>
      <trkpt lat="43.24864" lon="5.93344">
        <ele>424.046875</ele>
        <time>2018-10-14T08:03:26Z</time>
      </trkpt>
      <trkpt lat="43.24863" lon="5.93344">
        <ele>424.19140625</ele>
        <time>2018-10-14T08:03:27Z</time>
      </trkpt>
      <trkpt lat="43.24861" lon="5.93344">
        <ele>424.33984375</ele>
        <time>2018-10-14T08:03:28Z</time>
      </trkpt>
      <trkpt lat="43.24853" lon="5.93344">
        <ele>425.0703125</ele>
        <time>2018-10-14T08:03:33Z</time>
      </trkpt>
      <trkpt lat="43.24838" lon="5.93357">
        <ele>426.7421875</ele>
        <time>2018-10-14T08:03:43Z</time>
      </trkpt>
      <trkpt lat="43.2483" lon="5.93379">
        <ele>430.46484375</ele>
        <time>2018-10-14T08:03:55Z</time>
      </trkpt>
      <trkpt lat="43.24815" lon="5.93402">
        <ele>436.6640625</ele>
        <time>2018-10-14T08:04:09Z</time>
      </trkpt>
      <trkpt lat="43.24805" lon="5.93401">
        <ele>437.12890625</ele>
        <time>2018-10-14T08:04:16Z</time>
      </trkpt>
      <trkpt lat="43.24793" lon="5.9339">
        <ele>435.16796875</ele>
        <time>2018-10-14T08:04:26Z</time>
      </trkpt>
      <trkpt lat="43.24792" lon="5.93388">
        <ele>434.96484375</ele>
        <time>2018-10-14T08:04:27Z</time>
      </trkpt>
      <trkpt lat="43.24792" lon="5.93386">
        <ele>434.734375</ele>
        <time>2018-10-14T08:04:28Z</time>
      </trkpt>
      <trkpt lat="43.24791" lon="5.93385">
        <ele>434.53125</ele>
        <time>2018-10-14T08:04:29Z</time>
      </trkpt>
      <trkpt lat="43.2479" lon="5.93383">
        <ele>434.37109375</ele>
        <time>2018-10-14T08:04:30Z</time>
      </trkpt>
      <trkpt lat="43.24788" lon="5.93382">
        <ele>434.296875</ele>
        <time>2018-10-14T08:04:31Z</time>
      </trkpt>
      <trkpt lat="43.24787" lon="5.93381">
        <ele>434.22265625</ele>
        <time>2018-10-14T08:04:32Z</time>
      </trkpt>
      <trkpt lat="43.24785" lon="5.93379">
        <ele>434.18359375</ele>
        <time>2018-10-14T08:04:33Z</time>
      </trkpt>
      <trkpt lat="43.24777" lon="5.9337">
        <ele>434.24609375</ele>
        <time>2018-10-14T08:04:42Z</time>
      </trkpt>
      <trkpt lat="43.24774" lon="5.93364">
        <ele>434.2421875</ele>
        <time>2018-10-14T08:04:46Z</time>
      </trkpt>
      <trkpt lat="43.24774" lon="5.93363">
        <ele>434.22265625</ele>
        <time>2018-10-14T08:04:47Z</time>
      </trkpt>
      <trkpt lat="43.24773" lon="5.93361">
        <ele>434.1953125</ele>
        <time>2018-10-14T08:04:48Z</time>
      </trkpt>
      <trkpt lat="43.24773" lon="5.93359">
        <ele>434.22265625</ele>
        <time>2018-10-14T08:04:49Z</time>
      </trkpt>
      <trkpt lat="43.24774" lon="5.93355">
        <ele>434.20703125</ele>
        <time>2018-10-14T08:04:51Z</time>
      </trkpt>
      <trkpt lat="43.24774" lon="5.93353">
        <ele>434.1953125</ele>
        <time>2018-10-14T08:04:52Z</time>
      </trkpt>
      <trkpt lat="43.24774" lon="5.93351">
        <ele>434.140625</ele>
        <time>2018-10-14T08:04:53Z</time>
      </trkpt>
      <trkpt lat="43.24774" lon="5.93349">
        <ele>434.1484375</ele>
        <time>2018-10-14T08:04:54Z</time>
      </trkpt>
      <trkpt lat="43.24774" lon="5.93347">
        <ele>434.2109375</ele>
        <time>2018-10-14T08:04:55Z</time>
      </trkpt>
      <trkpt lat="43.24774" lon="5.93346">
        <ele>434.28515625</ele>
        <time>2018-10-14T08:04:56Z</time>
      </trkpt>
      <trkpt lat="43.24774" lon="5.9334">
        <ele>434.36328125</ele>
        <time>2018-10-14T08:04:59Z</time>
      </trkpt>
      <trkpt lat="43.24786" lon="5.93318">
        <ele>432.828125</ele>
        <time>2018-10-14T08:05:13Z</time>
      </trkpt>
      <trkpt lat="43.2479" lon="5.93314">
        <ele>432.4765625</ele>
        <time>2018-10-14T08:05:16Z</time>
      </trkpt>
      <trkpt lat="43.24796" lon="5.93299">
        <ele>432.14453125</ele>
        <time>2018-10-14T08:05:24Z</time>
      </trkpt>
      <trkpt lat="43.24796" lon="5.93297">
        <ele>432.21875</ele>
        <time>2018-10-14T08:05:25Z</time>
      </trkpt>
      <trkpt lat="43.24796" lon="5.93295">
        <ele>432.234375</ele>
        <time>2018-10-14T08:05:26Z</time>
      </trkpt>
      <trkpt lat="43.24797" lon="5.93292">
        <ele>432.234375</ele>
        <time>2018-10-14T08:05:27Z</time>
      </trkpt>
      <trkpt lat="43.24798" lon="5.9329">
        <ele>432.21875</ele>
        <time>2018-10-14T08:05:28Z</time>
      </trkpt>
      <trkpt lat="43.24798" lon="5.93288">
        <ele>432.234375</ele>
        <time>2018-10-14T08:05:29Z</time>
      </trkpt>
      <trkpt lat="43.24798" lon="5.93285">
        <ele>432.30859375</ele>
        <time>2018-10-14T08:05:30Z</time>
      </trkpt>
      <trkpt lat="43.24798" lon="5.93283">
        <ele>432.3828125</ele>
        <time>2018-10-14T08:05:31Z</time>
      </trkpt>
      <trkpt lat="43.24799" lon="5.93281">
        <ele>432.4453125</ele>
        <time>2018-10-14T08:05:32Z</time>
      </trkpt>
      <trkpt lat="43.24799" lon="5.93279">
        <ele>432.4765625</ele>
        <time>2018-10-14T08:05:33Z</time>
      </trkpt>
      <trkpt lat="43.24799" lon="5.93277">
        <ele>432.515625</ele>
        <time>2018-10-14T08:05:34Z</time>
      </trkpt>
      <trkpt lat="43.24799" lon="5.93275">
        <ele>432.57421875</ele>
        <time>2018-10-14T08:05:35Z</time>
      </trkpt>
      <trkpt lat="43.24799" lon="5.93273">
        <ele>432.66796875</ele>
        <time>2018-10-14T08:05:36Z</time>
      </trkpt>
      <trkpt lat="43.24799" lon="5.93271">
        <ele>432.76171875</ele>
        <time>2018-10-14T08:05:37Z</time>
      </trkpt>
      <trkpt lat="43.24799" lon="5.93269">
        <ele>432.83203125</ele>
        <time>2018-10-14T08:05:38Z</time>
      </trkpt>
      <trkpt lat="43.248" lon="5.93267">
        <ele>432.87890625</ele>
        <time>2018-10-14T08:05:39Z</time>
      </trkpt>
      <trkpt lat="43.248" lon="5.93265">
        <ele>432.984375</ele>
        <time>2018-10-14T08:05:40Z</time>
      </trkpt>
      <trkpt lat="43.248" lon="5.93263">
        <ele>433.11328125</ele>
        <time>2018-10-14T08:05:41Z</time>
      </trkpt>
      <trkpt lat="43.248" lon="5.93255">
        <ele>433.40625</ele>
        <time>2018-10-14T08:05:45Z</time>
      </trkpt>
      <trkpt lat="43.248" lon="5.93253">
        <ele>433.55078125</ele>
        <time>2018-10-14T08:05:46Z</time>
      </trkpt>
      <trkpt lat="43.248" lon="5.93237">
        <ele>434.3828125</ele>
        <time>2018-10-14T08:05:53Z</time>
      </trkpt>
      <trkpt lat="43.248" lon="5.93235">
        <ele>434.48046875</ele>
        <time>2018-10-14T08:05:54Z</time>
      </trkpt>
      <trkpt lat="43.248" lon="5.93233">
        <ele>434.6328125</ele>
        <time>2018-10-14T08:05:55Z</time>
      </trkpt>
      <trkpt lat="43.248" lon="5.93231">
        <ele>434.76171875</ele>
        <time>2018-10-14T08:05:56Z</time>
      </trkpt>
      <trkpt lat="43.24801" lon="5.93228">
        <ele>434.8828125</ele>
        <time>2018-10-14T08:05:57Z</time>
      </trkpt>
      <trkpt lat="43.24803" lon="5.93204">
        <ele>435.11328125</ele>
        <time>2018-10-14T08:06:10Z</time>
      </trkpt>
      <trkpt lat="43.24804" lon="5.93183">
        <ele>435.453125</ele>
        <time>2018-10-14T08:06:19Z</time>
      </trkpt>
      <trkpt lat="43.24803" lon="5.9318">
        <ele>435.59375</ele>
        <time>2018-10-14T08:06:20Z</time>
      </trkpt>
      <trkpt lat="43.24803" lon="5.93178">
        <ele>435.72265625</ele>
        <time>2018-10-14T08:06:21Z</time>
      </trkpt>
      <trkpt lat="43.24803" lon="5.93176">
        <ele>435.7890625</ele>
        <time>2018-10-14T08:06:22Z</time>
      </trkpt>
      <trkpt lat="43.24803" lon="5.93173">
        <ele>435.84375</ele>
        <time>2018-10-14T08:06:23Z</time>
      </trkpt>
      <trkpt lat="43.24803" lon="5.93171">
        <ele>435.9296875</ele>
        <time>2018-10-14T08:06:24Z</time>
      </trkpt>
      <trkpt lat="43.24803" lon="5.93168">
        <ele>436.0390625</ele>
        <time>2018-10-14T08:06:25Z</time>
      </trkpt>
      <trkpt lat="43.24803" lon="5.93165">
        <ele>436.12890625</ele>
        <time>2018-10-14T08:06:26Z</time>
      </trkpt>
      <trkpt lat="43.24803" lon="5.93163">
        <ele>436.16015625</ele>
        <time>2018-10-14T08:06:27Z</time>
      </trkpt>
      <trkpt lat="43.24791" lon="5.93144">
        <ele>438.2734375</ele>
        <time>2018-10-14T08:06:39Z</time>
      </trkpt>
      <trkpt lat="43.2479" lon="5.93145">
        <ele>438.53125</ele>
        <time>2018-10-14T08:06:40Z</time>
      </trkpt>
      <trkpt lat="43.24789" lon="5.93147">
        <ele>438.73828125</ele>
        <time>2018-10-14T08:06:41Z</time>
      </trkpt>
      <trkpt lat="43.24788" lon="5.93149">
        <ele>438.88671875</ele>
        <time>2018-10-14T08:06:42Z</time>
      </trkpt>
      <trkpt lat="43.24787" lon="5.9315">
        <ele>438.953125</ele>
        <time>2018-10-14T08:06:43Z</time>
      </trkpt>
      <trkpt lat="43.24787" lon="5.93152">
        <ele>438.98046875</ele>
        <time>2018-10-14T08:06:44Z</time>
      </trkpt>
      <trkpt lat="43.24788" lon="5.93159">
        <ele>438.78125</ele>
        <time>2018-10-14T08:06:48Z</time>
      </trkpt>
      <trkpt lat="43.24788" lon="5.9316">
        <ele>438.765625</ele>
        <time>2018-10-14T08:06:49Z</time>
      </trkpt>
      <trkpt lat="43.24787" lon="5.93172">
        <ele>438.734375</ele>
        <time>2018-10-14T08:06:56Z</time>
      </trkpt>
      <trkpt lat="43.24783" lon="5.93193">
        <ele>438.8125</ele>
        <time>2018-10-14T08:07:09Z</time>
      </trkpt>
      <trkpt lat="43.24778" lon="5.93207">
        <ele>439.0078125</ele>
        <time>2018-10-14T08:07:17Z</time>
      </trkpt>
      <trkpt lat="43.24778" lon="5.93209">
        <ele>439.015625</ele>
        <time>2018-10-14T08:07:18Z</time>
      </trkpt>
      <trkpt lat="43.24777" lon="5.93211">
        <ele>439.03125</ele>
        <time>2018-10-14T08:07:19Z</time>
      </trkpt>
      <trkpt lat="43.24769" lon="5.93229">
        <ele>439.5</ele>
        <time>2018-10-14T08:07:31Z</time>
      </trkpt>
      <trkpt lat="43.24761" lon="5.93244">
        <ele>440.1328125</ele>
        <time>2018-10-14T08:07:42Z</time>
      </trkpt>
      <trkpt lat="43.2475" lon="5.93261">
        <ele>441.609375</ele>
        <time>2018-10-14T08:07:53Z</time>
      </trkpt>
      <trkpt lat="43.24749" lon="5.93262">
        <ele>441.74609375</ele>
        <time>2018-10-14T08:07:54Z</time>
      </trkpt>
      <trkpt lat="43.24749" lon="5.93265">
        <ele>441.86328125</ele>
        <time>2018-10-14T08:07:56Z</time>
      </trkpt>
      <trkpt lat="43.24748" lon="5.93267">
        <ele>441.9375</ele>
        <time>2018-10-14T08:07:57Z</time>
      </trkpt>
      <trkpt lat="43.24747" lon="5.93271">
        <ele>442.078125</ele>
        <time>2018-10-14T08:08:00Z</time>
      </trkpt>
      <trkpt lat="43.24747" lon="5.93273">
        <ele>442.203125</ele>
        <time>2018-10-14T08:08:01Z</time>
      </trkpt>
      <trkpt lat="43.24747" lon="5.93275">
        <ele>442.14453125</ele>
        <time>2018-10-14T08:08:02Z</time>
      </trkpt>
      <trkpt lat="43.24747" lon="5.93277">
        <ele>442.01171875</ele>
        <time>2018-10-14T08:08:03Z</time>
      </trkpt>
      <trkpt lat="43.24747" lon="5.93279">
        <ele>441.90234375</ele>
        <time>2018-10-14T08:08:04Z</time>
      </trkpt>
      <trkpt lat="43.24747" lon="5.93281">
        <ele>441.84375</ele>
        <time>2018-10-14T08:08:05Z</time>
      </trkpt>
      <trkpt lat="43.24747" lon="5.93283">
        <ele>441.74609375</ele>
        <time>2018-10-14T08:08:06Z</time>
      </trkpt>
      <trkpt lat="43.24747" lon="5.93285">
        <ele>441.609375</ele>
        <time>2018-10-14T08:08:07Z</time>
      </trkpt>
      <trkpt lat="43.24747" lon="5.93287">
        <ele>441.55078125</ele>
        <time>2018-10-14T08:08:08Z</time>
      </trkpt>
      <trkpt lat="43.24747" lon="5.93289">
        <ele>441.4375</ele>
        <time>2018-10-14T08:08:09Z</time>
      </trkpt>
      <trkpt lat="43.24746" lon="5.93292">
        <ele>441.76953125</ele>
        <time>2018-10-14T08:08:24Z</time>
      </trkpt>
      <trkpt lat="43.24746" lon="5.93294">
        <ele>441.58984375</ele>
        <time>2018-10-14T08:08:45Z</time>
      </trkpt>
      <trkpt lat="43.24748" lon="5.93294">
        <ele>441.10546875</ele>
        <time>2018-10-14T08:09:04Z</time>
      </trkpt>
      <trkpt lat="43.24748" lon="5.93294">
        <ele>441.15625</ele>
        <time>2018-10-14T08:09:05Z</time>
      </trkpt>
      <trkpt lat="43.24747" lon="5.93293">
        <ele>441.5390625</ele>
        <time>2018-10-14T08:09:11Z</time>
      </trkpt>
      <trkpt lat="43.24746" lon="5.93292">
        <ele>441.62890625</ele>
        <time>2018-10-14T08:09:12Z</time>
      </trkpt>
      <trkpt lat="43.24745" lon="5.93291">
        <ele>441.9296875</ele>
        <time>2018-10-14T08:09:16Z</time>
      </trkpt>
      <trkpt lat="43.24745" lon="5.93291">
        <ele>441.94921875</ele>
        <time>2018-10-14T08:09:17Z</time>
      </trkpt>
      <trkpt lat="43.24745" lon="5.93293">
        <ele>441.86328125</ele>
        <time>2018-10-14T08:09:31Z</time>
      </trkpt>
      <trkpt lat="43.24743" lon="5.93311">
        <ele>442.04296875</ele>
        <time>2018-10-14T08:09:40Z</time>
      </trkpt>
      <trkpt lat="43.24737" lon="5.93337">
        <ele>442.5703125</ele>
        <time>2018-10-14T08:09:52Z</time>
      </trkpt>
      <trkpt lat="43.24736" lon="5.93339">
        <ele>442.68359375</ele>
        <time>2018-10-14T08:09:53Z</time>
      </trkpt>
      <trkpt lat="43.2473" lon="5.93362">
        <ele>442.8984375</ele>
        <time>2018-10-14T08:10:06Z</time>
      </trkpt>
      <trkpt lat="43.2473" lon="5.93364">
        <ele>442.87890625</ele>
        <time>2018-10-14T08:10:07Z</time>
      </trkpt>
      <trkpt lat="43.24729" lon="5.93367">
        <ele>442.92578125</ele>
        <time>2018-10-14T08:10:08Z</time>
      </trkpt>
      <trkpt lat="43.24729" lon="5.93369">
        <ele>442.84765625</ele>
        <time>2018-10-14T08:10:09Z</time>
      </trkpt>
      <trkpt lat="43.24728" lon="5.93371">
        <ele>442.74609375</ele>
        <time>2018-10-14T08:10:10Z</time>
      </trkpt>
      <trkpt lat="43.24728" lon="5.93373">
        <ele>442.703125</ele>
        <time>2018-10-14T08:10:11Z</time>
      </trkpt>
      <trkpt lat="43.24727" lon="5.93375">
        <ele>442.73828125</ele>
        <time>2018-10-14T08:10:12Z</time>
      </trkpt>
      <trkpt lat="43.24726" lon="5.93379">
        <ele>442.72265625</ele>
        <time>2018-10-14T08:10:15Z</time>
      </trkpt>
      <trkpt lat="43.24726" lon="5.93381">
        <ele>442.6875</ele>
        <time>2018-10-14T08:10:16Z</time>
      </trkpt>
      <trkpt lat="43.24719" lon="5.93402">
        <ele>443.68359375</ele>
        <time>2018-10-14T08:10:27Z</time>
      </trkpt>
      <trkpt lat="43.24717" lon="5.9341">
        <ele>444.06640625</ele>
        <time>2018-10-14T08:10:31Z</time>
      </trkpt>
      <trkpt lat="43.24711" lon="5.93419">
        <ele>445.23828125</ele>
        <time>2018-10-14T08:10:38Z</time>
      </trkpt>
      <trkpt lat="43.2471" lon="5.9342">
        <ele>445.42578125</ele>
        <time>2018-10-14T08:10:39Z</time>
      </trkpt>
      <trkpt lat="43.24706" lon="5.93428">
        <ele>445.77734375</ele>
        <time>2018-10-14T08:10:44Z</time>
      </trkpt>
      <trkpt lat="43.24703" lon="5.93433">
        <ele>446.16796875</ele>
        <time>2018-10-14T08:10:49Z</time>
      </trkpt>
      <trkpt lat="43.24696" lon="5.93451">
        <ele>446.80859375</ele>
        <time>2018-10-14T08:11:00Z</time>
      </trkpt>
      <trkpt lat="43.24695" lon="5.93453">
        <ele>446.98046875</ele>
        <time>2018-10-14T08:11:01Z</time>
      </trkpt>
      <trkpt lat="43.24694" lon="5.93455">
        <ele>447.15625</ele>
        <time>2018-10-14T08:11:02Z</time>
      </trkpt>
      <trkpt lat="43.24686" lon="5.93475">
        <ele>448.54296875</ele>
        <time>2018-10-14T08:11:13Z</time>
      </trkpt>
      <trkpt lat="43.24683" lon="5.93481">
        <ele>448.8984375</ele>
        <time>2018-10-14T08:11:17Z</time>
      </trkpt>
      <trkpt lat="43.24682" lon="5.93485">
        <ele>448.9296875</ele>
        <time>2018-10-14T08:11:19Z</time>
      </trkpt>
      <trkpt lat="43.24675" lon="5.93506">
        <ele>449.4765625</ele>
        <time>2018-10-14T08:11:32Z</time>
      </trkpt>
      <trkpt lat="43.24673" lon="5.93509">
        <ele>449.703125</ele>
        <time>2018-10-14T08:11:34Z</time>
      </trkpt>
      <trkpt lat="43.24664" lon="5.93528">
        <ele>451.83203125</ele>
        <time>2018-10-14T08:11:45Z</time>
      </trkpt>
      <trkpt lat="43.24661" lon="5.93534">
        <ele>452.27734375</ele>
        <time>2018-10-14T08:11:49Z</time>
      </trkpt>
      <trkpt lat="43.2466" lon="5.93535">
        <ele>452.59375</ele>
        <time>2018-10-14T08:11:50Z</time>
      </trkpt>
      <trkpt lat="43.24659" lon="5.93537">
        <ele>452.79296875</ele>
        <time>2018-10-14T08:11:51Z</time>
      </trkpt>
      <trkpt lat="43.24657" lon="5.93539">
        <ele>453.0234375</ele>
        <time>2018-10-14T08:11:52Z</time>
      </trkpt>
      <trkpt lat="43.24656" lon="5.93541">
        <ele>453.234375</ele>
        <time>2018-10-14T08:11:53Z</time>
      </trkpt>
      <trkpt lat="43.24654" lon="5.93543">
        <ele>453.4296875</ele>
        <time>2018-10-14T08:11:54Z</time>
      </trkpt>
      <trkpt lat="43.24651" lon="5.93552">
        <ele>453.5078125</ele>
        <time>2018-10-14T08:11:59Z</time>
      </trkpt>
      <trkpt lat="43.2465" lon="5.93554">
        <ele>453.46875</ele>
        <time>2018-10-14T08:12:00Z</time>
      </trkpt>
      <trkpt lat="43.2465" lon="5.93555">
        <ele>453.43359375</ele>
        <time>2018-10-14T08:12:01Z</time>
      </trkpt>
      <trkpt lat="43.2465" lon="5.93557">
        <ele>453.44921875</ele>
        <time>2018-10-14T08:12:02Z</time>
      </trkpt>
      <trkpt lat="43.24649" lon="5.93559">
        <ele>453.51953125</ele>
        <time>2018-10-14T08:12:03Z</time>
      </trkpt>
      <trkpt lat="43.24649" lon="5.93561">
        <ele>453.55078125</ele>
        <time>2018-10-14T08:12:04Z</time>
      </trkpt>
      <trkpt lat="43.24643" lon="5.93584">
        <ele>454</ele>
        <time>2018-10-14T08:12:17Z</time>
      </trkpt>
      <trkpt lat="43.24639" lon="5.93594">
        <ele>454.796875</ele>
        <time>2018-10-14T08:12:23Z</time>
      </trkpt>
      <trkpt lat="43.24638" lon="5.93596">
        <ele>454.9609375</ele>
        <time>2018-10-14T08:12:24Z</time>
      </trkpt>
      <trkpt lat="43.24636" lon="5.93598">
        <ele>455.140625</ele>
        <time>2018-10-14T08:12:25Z</time>
      </trkpt>
      <trkpt lat="43.24635" lon="5.936">
        <ele>455.29296875</ele>
        <time>2018-10-14T08:12:26Z</time>
      </trkpt>
      <trkpt lat="43.24634" lon="5.93601">
        <ele>455.421875</ele>
        <time>2018-10-14T08:12:27Z</time>
      </trkpt>
      <trkpt lat="43.24633" lon="5.93603">
        <ele>455.5859375</ele>
        <time>2018-10-14T08:12:28Z</time>
      </trkpt>
      <trkpt lat="43.24632" lon="5.93605">
        <ele>455.671875</ele>
        <time>2018-10-14T08:12:29Z</time>
      </trkpt>
      <trkpt lat="43.24632" lon="5.93606">
        <ele>455.6953125</ele>
        <time>2018-10-14T08:12:30Z</time>
      </trkpt>
      <trkpt lat="43.24631" lon="5.93607">
        <ele>455.76953125</ele>
        <time>2018-10-14T08:12:31Z</time>
      </trkpt>
      <trkpt lat="43.2463" lon="5.93609">
        <ele>455.87890625</ele>
        <time>2018-10-14T08:12:32Z</time>
      </trkpt>
      <trkpt lat="43.24626" lon="5.93615">
        <ele>456.546875</ele>
        <time>2018-10-14T08:12:37Z</time>
      </trkpt>
      <trkpt lat="43.24624" lon="5.93616">
        <ele>456.73046875</ele>
        <time>2018-10-14T08:12:38Z</time>
      </trkpt>
      <trkpt lat="43.24623" lon="5.93618">
        <ele>456.87890625</ele>
        <time>2018-10-14T08:12:39Z</time>
      </trkpt>
      <trkpt lat="43.24622" lon="5.9362">
        <ele>457.015625</ele>
        <time>2018-10-14T08:12:40Z</time>
      </trkpt>
      <trkpt lat="43.24621" lon="5.93621">
        <ele>457.1796875</ele>
        <time>2018-10-14T08:12:41Z</time>
      </trkpt>
      <trkpt lat="43.2462" lon="5.93623">
        <ele>457.375</ele>
        <time>2018-10-14T08:12:42Z</time>
      </trkpt>
      <trkpt lat="43.24618" lon="5.93626">
        <ele>457.5703125</ele>
        <time>2018-10-14T08:12:43Z</time>
      </trkpt>
      <trkpt lat="43.24617" lon="5.93628">
        <ele>457.7421875</ele>
        <time>2018-10-14T08:12:44Z</time>
      </trkpt>
      <trkpt lat="43.24616" lon="5.93629">
        <ele>457.875</ele>
        <time>2018-10-14T08:12:45Z</time>
      </trkpt>
      <trkpt lat="43.24615" lon="5.93631">
        <ele>457.9453125</ele>
        <time>2018-10-14T08:12:46Z</time>
      </trkpt>
      <trkpt lat="43.24615" lon="5.93633">
        <ele>458.1640625</ele>
        <time>2018-10-14T08:12:47Z</time>
      </trkpt>
      <trkpt lat="43.24614" lon="5.93634">
        <ele>458.2578125</ele>
        <time>2018-10-14T08:12:48Z</time>
      </trkpt>
      <trkpt lat="43.24614" lon="5.93637">
        <ele>458.37890625</ele>
        <time>2018-10-14T08:12:49Z</time>
      </trkpt>
      <trkpt lat="43.24611" lon="5.93659">
        <ele>459.50390625</ele>
        <time>2018-10-14T08:13:01Z</time>
      </trkpt>
      <trkpt lat="43.24611" lon="5.93661">
        <ele>459.625</ele>
        <time>2018-10-14T08:13:02Z</time>
      </trkpt>
      <trkpt lat="43.2461" lon="5.93663">
        <ele>459.7265625</ele>
        <time>2018-10-14T08:13:03Z</time>
      </trkpt>
      <trkpt lat="43.2461" lon="5.93665">
        <ele>459.7578125</ele>
        <time>2018-10-14T08:13:04Z</time>
      </trkpt>
      <trkpt lat="43.2461" lon="5.93668">
        <ele>459.7109375</ele>
        <time>2018-10-14T08:13:05Z</time>
      </trkpt>
      <trkpt lat="43.2461" lon="5.93669">
        <ele>459.703125</ele>
        <time>2018-10-14T08:13:06Z</time>
      </trkpt>
      <trkpt lat="43.2461" lon="5.93671">
        <ele>459.75390625</ele>
        <time>2018-10-14T08:13:07Z</time>
      </trkpt>
      <trkpt lat="43.2461" lon="5.93673">
        <ele>459.78515625</ele>
        <time>2018-10-14T08:13:08Z</time>
      </trkpt>
      <trkpt lat="43.24609" lon="5.93677">
        <ele>460.0078125</ele>
        <time>2018-10-14T08:13:10Z</time>
      </trkpt>
      <trkpt lat="43.24609" lon="5.93679">
        <ele>460.09375</ele>
        <time>2018-10-14T08:13:11Z</time>
      </trkpt>
      <trkpt lat="43.24608" lon="5.9368">
        <ele>460.29296875</ele>
        <time>2018-10-14T08:13:12Z</time>
      </trkpt>
      <trkpt lat="43.24608" lon="5.93682">
        <ele>460.35546875</ele>
        <time>2018-10-14T08:13:13Z</time>
      </trkpt>
      <trkpt lat="43.24607" lon="5.93684">
        <ele>460.40625</ele>
        <time>2018-10-14T08:13:14Z</time>
      </trkpt>
      <trkpt lat="43.24607" lon="5.93686">
        <ele>460.515625</ele>
        <time>2018-10-14T08:13:15Z</time>
      </trkpt>
      <trkpt lat="43.24607" lon="5.93688">
        <ele>460.5390625</ele>
        <time>2018-10-14T08:13:16Z</time>
      </trkpt>
      <trkpt lat="43.24602" lon="5.93711">
        <ele>462.34765625</ele>
        <time>2018-10-14T08:13:27Z</time>
      </trkpt>
      <trkpt lat="43.24601" lon="5.93712">
        <ele>462.64453125</ele>
        <time>2018-10-14T08:13:28Z</time>
      </trkpt>
      <trkpt lat="43.246" lon="5.93718">
        <ele>463.16796875</ele>
        <time>2018-10-14T08:13:31Z</time>
      </trkpt>
      <trkpt lat="43.24599" lon="5.9372">
        <ele>463.41796875</ele>
        <time>2018-10-14T08:13:32Z</time>
      </trkpt>
      <trkpt lat="43.24599" lon="5.93722">
        <ele>463.66015625</ele>
        <time>2018-10-14T08:13:33Z</time>
      </trkpt>
      <trkpt lat="43.24595" lon="5.93736">
        <ele>464.8984375</ele>
        <time>2018-10-14T08:13:41Z</time>
      </trkpt>
      <trkpt lat="43.24595" lon="5.93737">
        <ele>464.9921875</ele>
        <time>2018-10-14T08:13:42Z</time>
      </trkpt>
      <trkpt lat="43.24594" lon="5.93742">
        <ele>465.15234375</ele>
        <time>2018-10-14T08:13:45Z</time>
      </trkpt>
      <trkpt lat="43.24594" lon="5.93744">
        <ele>465.23046875</ele>
        <time>2018-10-14T08:13:46Z</time>
      </trkpt>
      <trkpt lat="43.24593" lon="5.93751">
        <ele>465.68359375</ele>
        <time>2018-10-14T08:13:50Z</time>
      </trkpt>
      <trkpt lat="43.24593" lon="5.93752">
        <ele>465.69921875</ele>
        <time>2018-10-14T08:13:51Z</time>
      </trkpt>
      <trkpt lat="43.24593" lon="5.93754">
        <ele>465.7890625</ele>
        <time>2018-10-14T08:13:52Z</time>
      </trkpt>
      <trkpt lat="43.24589" lon="5.93781">
        <ele>467.609375</ele>
        <time>2018-10-14T08:14:06Z</time>
      </trkpt>
      <trkpt lat="43.24588" lon="5.93786">
        <ele>467.80078125</ele>
        <time>2018-10-14T08:14:09Z</time>
      </trkpt>
      <trkpt lat="43.24588" lon="5.93789">
        <ele>467.80859375</ele>
        <time>2018-10-14T08:14:10Z</time>
      </trkpt>
      <trkpt lat="43.24588" lon="5.93792">
        <ele>467.796875</ele>
        <time>2018-10-14T08:14:11Z</time>
      </trkpt>
      <trkpt lat="43.24588" lon="5.93794">
        <ele>467.86328125</ele>
        <time>2018-10-14T08:14:12Z</time>
      </trkpt>
      <trkpt lat="43.24588" lon="5.93796">
        <ele>467.89453125</ele>
        <time>2018-10-14T08:14:13Z</time>
      </trkpt>
      <trkpt lat="43.24588" lon="5.93802">
        <ele>467.87109375</ele>
        <time>2018-10-14T08:14:16Z</time>
      </trkpt>
      <trkpt lat="43.24588" lon="5.93804">
        <ele>467.92578125</ele>
        <time>2018-10-14T08:14:17Z</time>
      </trkpt>
      <trkpt lat="43.24586" lon="5.93812">
        <ele>468.32421875</ele>
        <time>2018-10-14T08:14:28Z</time>
      </trkpt>
      <trkpt lat="43.24588" lon="5.93814">
        <ele>467.92578125</ele>
        <time>2018-10-14T08:14:50Z</time>
      </trkpt>
      <trkpt lat="43.24589" lon="5.93812">
        <ele>467.71484375</ele>
        <time>2018-10-14T08:15:14Z</time>
      </trkpt>
      <trkpt lat="43.24589" lon="5.93817">
        <ele>467.67578125</ele>
        <time>2018-10-14T08:15:33Z</time>
      </trkpt>
      <trkpt lat="43.24591" lon="5.93814">
        <ele>467.41796875</ele>
        <time>2018-10-14T08:15:49Z</time>
      </trkpt>
      <trkpt lat="43.24591" lon="5.93811">
        <ele>467.33984375</ele>
        <time>2018-10-14T08:16:08Z</time>
      </trkpt>
      <trkpt lat="43.24594" lon="5.9381">
        <ele>466.8203125</ele>
        <time>2018-10-14T08:16:25Z</time>
      </trkpt>
      <trkpt lat="43.24597" lon="5.9381">
        <ele>466.3046875</ele>
        <time>2018-10-14T08:16:46Z</time>
      </trkpt>
      <trkpt lat="43.24595" lon="5.93812">
        <ele>466.7109375</ele>
        <time>2018-10-14T08:17:17Z</time>
      </trkpt>
      <trkpt lat="43.24593" lon="5.93806">
        <ele>467.0625</ele>
        <time>2018-10-14T08:17:43Z</time>
      </trkpt>
      <trkpt lat="43.24592" lon="5.93815">
        <ele>467.31640625</ele>
        <time>2018-10-14T08:17:59Z</time>
      </trkpt>
      <trkpt lat="43.24591" lon="5.93818">
        <ele>467.39453125</ele>
        <time>2018-10-14T08:18:00Z</time>
      </trkpt>
      <trkpt lat="43.24591" lon="5.93821">
        <ele>467.4765625</ele>
        <time>2018-10-14T08:18:01Z</time>
      </trkpt>
      <trkpt lat="43.24591" lon="5.93824">
        <ele>467.52734375</ele>
        <time>2018-10-14T08:18:02Z</time>
      </trkpt>
      <trkpt lat="43.24591" lon="5.93827">
        <ele>467.55859375</ele>
        <time>2018-10-14T08:18:03Z</time>
      </trkpt>
      <trkpt lat="43.24591" lon="5.9383">
        <ele>467.5546875</ele>
        <time>2018-10-14T08:18:04Z</time>
      </trkpt>
      <trkpt lat="43.2459" lon="5.93852">
        <ele>468.56640625</ele>
        <time>2018-10-14T08:18:12Z</time>
      </trkpt>
      <trkpt lat="43.24588" lon="5.9386">
        <ele>468.96484375</ele>
        <time>2018-10-14T08:18:15Z</time>
      </trkpt>
      <trkpt lat="43.24588" lon="5.93863">
        <ele>469.078125</ele>
        <time>2018-10-14T08:18:16Z</time>
      </trkpt>
      <trkpt lat="43.24588" lon="5.93866">
        <ele>469.1875</ele>
        <time>2018-10-14T08:18:17Z</time>
      </trkpt>
      <trkpt lat="43.24585" lon="5.93872">
        <ele>469.87109375</ele>
        <time>2018-10-14T08:18:20Z</time>
      </trkpt>
      <trkpt lat="43.24584" lon="5.93882">
        <ele>470.5546875</ele>
        <time>2018-10-14T08:18:24Z</time>
      </trkpt>
      <trkpt lat="43.24584" lon="5.93885">
        <ele>470.6796875</ele>
        <time>2018-10-14T08:18:25Z</time>
      </trkpt>
      <trkpt lat="43.24582" lon="5.93915">
        <ele>472.19140625</ele>
        <time>2018-10-14T08:18:36Z</time>
      </trkpt>
      <trkpt lat="43.24585" lon="5.93935">
        <ele>473.5546875</ele>
        <time>2018-10-14T08:18:43Z</time>
      </trkpt>
      <trkpt lat="43.24585" lon="5.93938">
        <ele>473.8828125</ele>
        <time>2018-10-14T08:18:44Z</time>
      </trkpt>
      <trkpt lat="43.24585" lon="5.93941">
        <ele>474.11328125</ele>
        <time>2018-10-14T08:18:45Z</time>
      </trkpt>
      <trkpt lat="43.24586" lon="5.93944">
        <ele>474.24609375</ele>
        <time>2018-10-14T08:18:46Z</time>
      </trkpt>
      <trkpt lat="43.24587" lon="5.93947">
        <ele>474.59765625</ele>
        <time>2018-10-14T08:18:47Z</time>
      </trkpt>
      <trkpt lat="43.24593" lon="5.93984">
        <ele>481.12890625</ele>
        <time>2018-10-14T08:18:59Z</time>
      </trkpt>
      <trkpt lat="43.24606" lon="5.94003">
        <ele>485.296875</ele>
        <time>2018-10-14T08:19:07Z</time>
      </trkpt>
      <trkpt lat="43.24608" lon="5.94005">
        <ele>485.6171875</ele>
        <time>2018-10-14T08:19:08Z</time>
      </trkpt>
      <trkpt lat="43.2461" lon="5.94006">
        <ele>485.765625</ele>
        <time>2018-10-14T08:19:09Z</time>
      </trkpt>
      <trkpt lat="43.24612" lon="5.94007">
        <ele>485.7578125</ele>
        <time>2018-10-14T08:19:10Z</time>
      </trkpt>
      <trkpt lat="43.24627" lon="5.94025">
        <ele>489.66015625</ele>
        <time>2018-10-14T08:19:21Z</time>
      </trkpt>
      <trkpt lat="43.24633" lon="5.94033">
        <ele>491.0859375</ele>
        <time>2018-10-14T08:19:26Z</time>
      </trkpt>
      <trkpt lat="43.24634" lon="5.94035">
        <ele>491.359375</ele>
        <time>2018-10-14T08:19:27Z</time>
      </trkpt>
      <trkpt lat="43.24635" lon="5.94036">
        <ele>491.546875</ele>
        <time>2018-10-14T08:19:28Z</time>
      </trkpt>
      <trkpt lat="43.24658" lon="5.94047">
        <ele>492.94921875</ele>
        <time>2018-10-14T08:19:40Z</time>
      </trkpt>
      <trkpt lat="43.24667" lon="5.9405">
        <ele>493.0546875</ele>
        <time>2018-10-14T08:19:44Z</time>
      </trkpt>
      <trkpt lat="43.24668" lon="5.94052">
        <ele>493.05859375</ele>
        <time>2018-10-14T08:19:45Z</time>
      </trkpt>
      <trkpt lat="43.24669" lon="5.94054">
        <ele>493.05078125</ele>
        <time>2018-10-14T08:19:46Z</time>
      </trkpt>
      <trkpt lat="43.2467" lon="5.94056">
        <ele>493.08984375</ele>
        <time>2018-10-14T08:19:47Z</time>
      </trkpt>
      <trkpt lat="43.24671" lon="5.94058">
        <ele>493.34765625</ele>
        <time>2018-10-14T08:19:48Z</time>
      </trkpt>
      <trkpt lat="43.24672" lon="5.9406">
        <ele>493.75390625</ele>
        <time>2018-10-14T08:19:49Z</time>
      </trkpt>
      <trkpt lat="43.24672" lon="5.94062">
        <ele>494.07421875</ele>
        <time>2018-10-14T08:19:50Z</time>
      </trkpt>
      <trkpt lat="43.24673" lon="5.94064">
        <ele>494.3671875</ele>
        <time>2018-10-14T08:19:51Z</time>
      </trkpt>
      <trkpt lat="43.24674" lon="5.94066">
        <ele>494.66015625</ele>
        <time>2018-10-14T08:19:52Z</time>
      </trkpt>
      <trkpt lat="43.24674" lon="5.94069">
        <ele>494.95703125</ele>
        <time>2018-10-14T08:19:53Z</time>
      </trkpt>
      <trkpt lat="43.24675" lon="5.9407">
        <ele>495.20703125</ele>
        <time>2018-10-14T08:19:54Z</time>
      </trkpt>
      <trkpt lat="43.24675" lon="5.94072">
        <ele>495.39453125</ele>
        <time>2018-10-14T08:19:55Z</time>
      </trkpt>
      <trkpt lat="43.24675" lon="5.94075">
        <ele>495.55078125</ele>
        <time>2018-10-14T08:19:56Z</time>
      </trkpt>
      <trkpt lat="43.24675" lon="5.94077">
        <ele>495.77734375</ele>
        <time>2018-10-14T08:19:57Z</time>
      </trkpt>
      <trkpt lat="43.24675" lon="5.94079">
        <ele>495.9453125</ele>
        <time>2018-10-14T08:19:58Z</time>
      </trkpt>
      <trkpt lat="43.24675" lon="5.94081">
        <ele>496.1171875</ele>
        <time>2018-10-14T08:19:59Z</time>
      </trkpt>
      <trkpt lat="43.24675" lon="5.94083">
        <ele>496.28515625</ele>
        <time>2018-10-14T08:20:00Z</time>
      </trkpt>
      <trkpt lat="43.24675" lon="5.94086">
        <ele>496.5078125</ele>
        <time>2018-10-14T08:20:01Z</time>
      </trkpt>
      <trkpt lat="43.24675" lon="5.94088">
        <ele>496.75390625</ele>
        <time>2018-10-14T08:20:02Z</time>
      </trkpt>
      <trkpt lat="43.24676" lon="5.9409">
        <ele>496.96875</ele>
        <time>2018-10-14T08:20:03Z</time>
      </trkpt>
      <trkpt lat="43.24675" lon="5.94111">
        <ele>498.94140625</ele>
        <time>2018-10-14T08:20:15Z</time>
      </trkpt>
      <trkpt lat="43.24675" lon="5.94113">
        <ele>499.41015625</ele>
        <time>2018-10-14T08:20:16Z</time>
      </trkpt>
      <trkpt lat="43.24676" lon="5.94115">
        <ele>499.83203125</ele>
        <time>2018-10-14T08:20:17Z</time>
      </trkpt>
      <trkpt lat="43.24676" lon="5.94117">
        <ele>500.28125</ele>
        <time>2018-10-14T08:20:18Z</time>
      </trkpt>
      <trkpt lat="43.24677" lon="5.94119">
        <ele>500.73046875</ele>
        <time>2018-10-14T08:20:19Z</time>
      </trkpt>
      <trkpt lat="43.24678" lon="5.94121">
        <ele>501.2578125</ele>
        <time>2018-10-14T08:20:20Z</time>
      </trkpt>
      <trkpt lat="43.24679" lon="5.94123">
        <ele>501.78125</ele>
        <time>2018-10-14T08:20:21Z</time>
      </trkpt>
      <trkpt lat="43.24682" lon="5.94129">
        <ele>503.12109375</ele>
        <time>2018-10-14T08:20:24Z</time>
      </trkpt>
      <trkpt lat="43.24683" lon="5.9413">
        <ele>503.5234375</ele>
        <time>2018-10-14T08:20:25Z</time>
      </trkpt>
      <trkpt lat="43.24686" lon="5.9413">
        <ele>503.91015625</ele>
        <time>2018-10-14T08:20:27Z</time>
      </trkpt>
      <trkpt lat="43.24688" lon="5.94129">
        <ele>504.01953125</ele>
        <time>2018-10-14T08:20:28Z</time>
      </trkpt>
      <trkpt lat="43.24689" lon="5.94128">
        <ele>504.09375</ele>
        <time>2018-10-14T08:20:29Z</time>
      </trkpt>
      <trkpt lat="43.2469" lon="5.94126">
        <ele>504.0078125</ele>
        <time>2018-10-14T08:20:30Z</time>
      </trkpt>
      <trkpt lat="43.24691" lon="5.94124">
        <ele>503.8203125</ele>
        <time>2018-10-14T08:20:31Z</time>
      </trkpt>
      <trkpt lat="43.24691" lon="5.94123">
        <ele>503.6484375</ele>
        <time>2018-10-14T08:20:32Z</time>
      </trkpt>
      <trkpt lat="43.24702" lon="5.94097">
        <ele>503.2421875</ele>
        <time>2018-10-14T08:20:46Z</time>
      </trkpt>
      <trkpt lat="43.24719" lon="5.94072">
        <ele>506.69921875</ele>
        <time>2018-10-14T08:21:01Z</time>
      </trkpt>
      <trkpt lat="43.24714" lon="5.9404">
        <ele>506.94140625</ele>
        <time>2018-10-14T08:21:15Z</time>
      </trkpt>
      <trkpt lat="43.24704" lon="5.94009">
        <ele>507.29296875</ele>
        <time>2018-10-14T08:21:29Z</time>
      </trkpt>
      <trkpt lat="43.24703" lon="5.94007">
        <ele>507.24609375</ele>
        <time>2018-10-14T08:21:30Z</time>
      </trkpt>
      <trkpt lat="43.24701" lon="5.94005">
        <ele>507.1328125</ele>
        <time>2018-10-14T08:21:31Z</time>
      </trkpt>
      <trkpt lat="43.247" lon="5.94003">
        <ele>507.046875</ele>
        <time>2018-10-14T08:21:32Z</time>
      </trkpt>
      <trkpt lat="43.24699" lon="5.94001">
        <ele>507.02734375</ele>
        <time>2018-10-14T08:21:33Z</time>
      </trkpt>
      <trkpt lat="43.24698" lon="5.93999">
        <ele>506.9921875</ele>
        <time>2018-10-14T08:21:34Z</time>
      </trkpt>
      <trkpt lat="43.24698" lon="5.93997">
        <ele>507.05078125</ele>
        <time>2018-10-14T08:21:35Z</time>
      </trkpt>
      <trkpt lat="43.24697" lon="5.93995">
        <ele>507.1796875</ele>
        <time>2018-10-14T08:21:36Z</time>
      </trkpt>
      <trkpt lat="43.24696" lon="5.93994">
        <ele>507.22265625</ele>
        <time>2018-10-14T08:21:37Z</time>
      </trkpt>
      <trkpt lat="43.24696" lon="5.93992">
        <ele>507.1640625</ele>
        <time>2018-10-14T08:21:38Z</time>
      </trkpt>
      <trkpt lat="43.24695" lon="5.9399">
        <ele>507.1796875</ele>
        <time>2018-10-14T08:21:39Z</time>
      </trkpt>
      <trkpt lat="43.24694" lon="5.93989">
        <ele>507.19921875</ele>
        <time>2018-10-14T08:21:40Z</time>
      </trkpt>
      <trkpt lat="43.24694" lon="5.93987">
        <ele>507.1875</ele>
        <time>2018-10-14T08:21:41Z</time>
      </trkpt>
      <trkpt lat="43.24693" lon="5.93986">
        <ele>506.99609375</ele>
        <time>2018-10-14T08:21:42Z</time>
      </trkpt>
      <trkpt lat="43.24691" lon="5.93985">
        <ele>506.68359375</ele>
        <time>2018-10-14T08:21:43Z</time>
      </trkpt>
      <trkpt lat="43.2469" lon="5.93984">
        <ele>506.375</ele>
        <time>2018-10-14T08:21:44Z</time>
      </trkpt>
      <trkpt lat="43.24689" lon="5.93984">
        <ele>506.12109375</ele>
        <time>2018-10-14T08:21:45Z</time>
      </trkpt>
      <trkpt lat="43.24688" lon="5.93983">
        <ele>505.63671875</ele>
        <time>2018-10-14T08:21:57Z</time>
      </trkpt>
      <trkpt lat="43.24687" lon="5.93982">
        <ele>505.21875</ele>
        <time>2018-10-14T08:22:22Z</time>
      </trkpt>
      <trkpt lat="43.24688" lon="5.93983">
        <ele>505.6796875</ele>
        <time>2018-10-14T08:22:49Z</time>
      </trkpt>
      <trkpt lat="43.2469" lon="5.93981">
        <ele>506.859375</ele>
        <time>2018-10-14T08:23:10Z</time>
      </trkpt>
      <trkpt lat="43.24688" lon="5.93982">
        <ele>505.6796875</ele>
        <time>2018-10-14T08:23:32Z</time>
      </trkpt>
      <trkpt lat="43.24689" lon="5.93979">
        <ele>506.609375</ele>
        <time>2018-10-14T08:23:54Z</time>
      </trkpt>
      <trkpt lat="43.2469" lon="5.93977">
        <ele>507.203125</ele>
        <time>2018-10-14T08:23:55Z</time>
      </trkpt>
      <trkpt lat="43.24691" lon="5.93976">
        <ele>507.90234375</ele>
        <time>2018-10-14T08:23:56Z</time>
      </trkpt>
      <trkpt lat="43.24693" lon="5.93976">
        <ele>508.86328125</ele>
        <time>2018-10-14T08:23:58Z</time>
      </trkpt>
      <trkpt lat="43.24699" lon="5.93981">
        <ele>510.515625</ele>
        <time>2018-10-14T08:24:03Z</time>
      </trkpt>
      <trkpt lat="43.24701" lon="5.93983">
        <ele>510.76953125</ele>
        <time>2018-10-14T08:24:04Z</time>
      </trkpt>
      <trkpt lat="43.24703" lon="5.93985">
        <ele>510.9296875</ele>
        <time>2018-10-14T08:24:05Z</time>
      </trkpt>
      <trkpt lat="43.24716" lon="5.94019">
        <ele>509.9609375</ele>
        <time>2018-10-14T08:24:18Z</time>
      </trkpt>
      <trkpt lat="43.24734" lon="5.94057">
        <ele>510.9453125</ele>
        <time>2018-10-14T08:24:33Z</time>
      </trkpt>
      <trkpt lat="43.24736" lon="5.94059">
        <ele>511.1953125</ele>
        <time>2018-10-14T08:24:34Z</time>
      </trkpt>
      <trkpt lat="43.24737" lon="5.94062">
        <ele>511.3359375</ele>
        <time>2018-10-14T08:24:35Z</time>
      </trkpt>
      <trkpt lat="43.24738" lon="5.94064">
        <ele>511.48828125</ele>
        <time>2018-10-14T08:24:36Z</time>
      </trkpt>
      <trkpt lat="43.24739" lon="5.94067">
        <ele>511.68359375</ele>
        <time>2018-10-14T08:24:37Z</time>
      </trkpt>
      <trkpt lat="43.2474" lon="5.94069">
        <ele>511.80859375</ele>
        <time>2018-10-14T08:24:38Z</time>
      </trkpt>
      <trkpt lat="43.24741" lon="5.94071">
        <ele>511.875</ele>
        <time>2018-10-14T08:24:39Z</time>
      </trkpt>
      <trkpt lat="43.24742" lon="5.94073">
        <ele>511.984375</ele>
        <time>2018-10-14T08:24:40Z</time>
      </trkpt>
      <trkpt lat="43.24743" lon="5.94076">
        <ele>512.0546875</ele>
        <time>2018-10-14T08:24:41Z</time>
      </trkpt>
      <trkpt lat="43.24744" lon="5.94078">
        <ele>512.09765625</ele>
        <time>2018-10-14T08:24:42Z</time>
      </trkpt>
      <trkpt lat="43.24745" lon="5.94081">
        <ele>512.1484375</ele>
        <time>2018-10-14T08:24:43Z</time>
      </trkpt>
      <trkpt lat="43.24746" lon="5.94083">
        <ele>512.2734375</ele>
        <time>2018-10-14T08:24:44Z</time>
      </trkpt>
      <trkpt lat="43.24747" lon="5.94086">
        <ele>512.50390625</ele>
        <time>2018-10-14T08:24:45Z</time>
      </trkpt>
      <trkpt lat="43.24751" lon="5.94118">
        <ele>513.609375</ele>
        <time>2018-10-14T08:24:58Z</time>
      </trkpt>
      <trkpt lat="43.24751" lon="5.94152">
        <ele>515.12109375</ele>
        <time>2018-10-14T08:25:12Z</time>
      </trkpt>
      <trkpt lat="43.24748" lon="5.94178">
        <ele>516.359375</ele>
        <time>2018-10-14T08:25:25Z</time>
      </trkpt>
      <trkpt lat="43.24754" lon="5.94194">
        <ele>518.0546875</ele>
        <time>2018-10-14T08:25:34Z</time>
      </trkpt>
      <trkpt lat="43.24755" lon="5.94195">
        <ele>518.28125</ele>
        <time>2018-10-14T08:25:35Z</time>
      </trkpt>
      <trkpt lat="43.24769" lon="5.94204">
        <ele>520.5703125</ele>
        <time>2018-10-14T08:25:47Z</time>
      </trkpt>
      <trkpt lat="43.24771" lon="5.94203">
        <ele>520.6796875</ele>
        <time>2018-10-14T08:25:48Z</time>
      </trkpt>
      <trkpt lat="43.24772" lon="5.94204">
        <ele>520.81640625</ele>
        <time>2018-10-14T08:25:49Z</time>
      </trkpt>
      <trkpt lat="43.24774" lon="5.94204">
        <ele>520.9765625</ele>
        <time>2018-10-14T08:25:50Z</time>
      </trkpt>
      <trkpt lat="43.24775" lon="5.94204">
        <ele>521.1640625</ele>
        <time>2018-10-14T08:25:51Z</time>
      </trkpt>
      <trkpt lat="43.24777" lon="5.94204">
        <ele>521.35546875</ele>
        <time>2018-10-14T08:25:52Z</time>
      </trkpt>
      <trkpt lat="43.24795" lon="5.94216">
        <ele>523.56640625</ele>
        <time>2018-10-14T08:26:04Z</time>
      </trkpt>
      <trkpt lat="43.24796" lon="5.94217">
        <ele>523.72265625</ele>
        <time>2018-10-14T08:26:05Z</time>
      </trkpt>
      <trkpt lat="43.24797" lon="5.94218">
        <ele>523.8828125</ele>
        <time>2018-10-14T08:26:06Z</time>
      </trkpt>
      <trkpt lat="43.24799" lon="5.94219">
        <ele>524.04296875</ele>
        <time>2018-10-14T08:26:07Z</time>
      </trkpt>
      <trkpt lat="43.2482" lon="5.94225">
        <ele>526.515625</ele>
        <time>2018-10-14T08:26:21Z</time>
      </trkpt>
      <trkpt lat="43.24822" lon="5.94225">
        <ele>526.6875</ele>
        <time>2018-10-14T08:26:22Z</time>
      </trkpt>
      <trkpt lat="43.24831" lon="5.94221">
        <ele>527.32421875</ele>
        <time>2018-10-14T08:26:28Z</time>
      </trkpt>
      <trkpt lat="43.24832" lon="5.94221">
        <ele>527.46484375</ele>
        <time>2018-10-14T08:26:29Z</time>
      </trkpt>
      <trkpt lat="43.24834" lon="5.9422">
        <ele>527.6015625</ele>
        <time>2018-10-14T08:26:30Z</time>
      </trkpt>
      <trkpt lat="43.24835" lon="5.9422">
        <ele>527.7421875</ele>
        <time>2018-10-14T08:26:31Z</time>
      </trkpt>
      <trkpt lat="43.24837" lon="5.94219">
        <ele>527.8515625</ele>
        <time>2018-10-14T08:26:32Z</time>
      </trkpt>
      <trkpt lat="43.24854" lon="5.94216">
        <ele>530.85546875</ele>
        <time>2018-10-14T08:26:43Z</time>
      </trkpt>
      <trkpt lat="43.24863" lon="5.94228">
        <ele>533.171875</ele>
        <time>2018-10-14T08:26:52Z</time>
      </trkpt>
      <trkpt lat="43.24863" lon="5.9423">
        <ele>533.41015625</ele>
        <time>2018-10-14T08:26:53Z</time>
      </trkpt>
      <trkpt lat="43.24864" lon="5.94232">
        <ele>533.64453125</ele>
        <time>2018-10-14T08:26:54Z</time>
      </trkpt>
      <trkpt lat="43.24865" lon="5.94234">
        <ele>533.890625</ele>
        <time>2018-10-14T08:26:55Z</time>
      </trkpt>
      <trkpt lat="43.24865" lon="5.94236">
        <ele>534</ele>
        <time>2018-10-14T08:26:56Z</time>
      </trkpt>
      <trkpt lat="43.24864" lon="5.94238">
        <ele>534.07421875</ele>
        <time>2018-10-14T08:26:57Z</time>
      </trkpt>
      <trkpt lat="43.24864" lon="5.9424">
        <ele>534.17578125</ele>
        <time>2018-10-14T08:26:58Z</time>
      </trkpt>
      <trkpt lat="43.24864" lon="5.94242">
        <ele>534.3125</ele>
        <time>2018-10-14T08:26:59Z</time>
      </trkpt>
      <trkpt lat="43.24864" lon="5.94244">
        <ele>534.48828125</ele>
        <time>2018-10-14T08:27:00Z</time>
      </trkpt>
      <trkpt lat="43.24864" lon="5.94246">
        <ele>534.69140625</ele>
        <time>2018-10-14T08:27:01Z</time>
      </trkpt>
      <trkpt lat="43.24864" lon="5.94249">
        <ele>534.87109375</ele>
        <time>2018-10-14T08:27:02Z</time>
      </trkpt>
      <trkpt lat="43.24864" lon="5.94251">
        <ele>535.08984375</ele>
        <time>2018-10-14T08:27:03Z</time>
      </trkpt>
      <trkpt lat="43.24863" lon="5.94253">
        <ele>535.1875</ele>
        <time>2018-10-14T08:27:04Z</time>
      </trkpt>
      <trkpt lat="43.24843" lon="5.94281">
        <ele>535.3125</ele>
        <time>2018-10-14T08:27:20Z</time>
      </trkpt>
      <trkpt lat="43.24822" lon="5.943">
        <ele>535.296875</ele>
        <time>2018-10-14T08:27:32Z</time>
      </trkpt>
      <trkpt lat="43.24791" lon="5.94302">
        <ele>534.046875</ele>
        <time>2018-10-14T08:27:47Z</time>
      </trkpt>
      <trkpt lat="43.24767" lon="5.94322">
        <ele>536.28515625</ele>
        <time>2018-10-14T08:28:01Z</time>
      </trkpt>
      <trkpt lat="43.24752" lon="5.94359">
        <ele>540.68359375</ele>
        <time>2018-10-14T08:28:17Z</time>
      </trkpt>
      <trkpt lat="43.24747" lon="5.94392">
        <ele>545.015625</ele>
        <time>2018-10-14T08:28:31Z</time>
      </trkpt>
      <trkpt lat="43.24744" lon="5.94403">
        <ele>546.69140625</ele>
        <time>2018-10-14T08:28:36Z</time>
      </trkpt>
      <trkpt lat="43.24739" lon="5.9441">
        <ele>547.40625</ele>
        <time>2018-10-14T08:28:40Z</time>
      </trkpt>
      <trkpt lat="43.2472" lon="5.94403">
        <ele>544.453125</ele>
        <time>2018-10-14T08:28:52Z</time>
      </trkpt>
      <trkpt lat="43.24694" lon="5.94406">
        <ele>543.60546875</ele>
        <time>2018-10-14T08:29:08Z</time>
      </trkpt>
      <trkpt lat="43.24664" lon="5.94411">
        <ele>544.3984375</ele>
        <time>2018-10-14T08:29:25Z</time>
      </trkpt>
      <trkpt lat="43.2464" lon="5.94417">
        <ele>546.33203125</ele>
        <time>2018-10-14T08:29:38Z</time>
      </trkpt>
      <trkpt lat="43.24632" lon="5.94441">
        <ele>549.16796875</ele>
        <time>2018-10-14T08:29:51Z</time>
      </trkpt>
      <trkpt lat="43.24632" lon="5.94468">
        <ele>551.75</ele>
        <time>2018-10-14T08:30:04Z</time>
      </trkpt>
      <trkpt lat="43.24631" lon="5.9447">
        <ele>551.9296875</ele>
        <time>2018-10-14T08:30:05Z</time>
      </trkpt>
      <trkpt lat="43.24632" lon="5.94472">
        <ele>552.10546875</ele>
        <time>2018-10-14T08:30:06Z</time>
      </trkpt>
      <trkpt lat="43.2463" lon="5.94483">
        <ele>552.875</ele>
        <time>2018-10-14T08:30:12Z</time>
      </trkpt>
      <trkpt lat="43.2463" lon="5.94485">
        <ele>552.9921875</ele>
        <time>2018-10-14T08:30:13Z</time>
      </trkpt>
      <trkpt lat="43.2463" lon="5.94486">
        <ele>553.10546875</ele>
        <time>2018-10-14T08:30:14Z</time>
      </trkpt>
      <trkpt lat="43.2463" lon="5.94488">
        <ele>553.2265625</ele>
        <time>2018-10-14T08:30:15Z</time>
      </trkpt>
      <trkpt lat="43.2463" lon="5.94511">
        <ele>554.765625</ele>
        <time>2018-10-14T08:30:28Z</time>
      </trkpt>
      <trkpt lat="43.24626" lon="5.94538">
        <ele>555.79296875</ele>
        <time>2018-10-14T08:30:42Z</time>
      </trkpt>
      <trkpt lat="43.24613" lon="5.9456">
        <ele>555.078125</ele>
        <time>2018-10-14T08:30:56Z</time>
      </trkpt>
      <trkpt lat="43.24595" lon="5.94596">
        <ele>553.78125</ele>
        <time>2018-10-14T08:31:08Z</time>
      </trkpt>
      <trkpt lat="43.24586" lon="5.94612">
        <ele>552.81640625</ele>
        <time>2018-10-14T08:31:11Z</time>
      </trkpt>
      <trkpt lat="43.24583" lon="5.94616">
        <ele>552.35546875</ele>
        <time>2018-10-14T08:31:12Z</time>
      </trkpt>
      <trkpt lat="43.24579" lon="5.94619">
        <ele>551.921875</ele>
        <time>2018-10-14T08:31:13Z</time>
      </trkpt>
      <trkpt lat="43.24575" lon="5.9462">
        <ele>551.5078125</ele>
        <time>2018-10-14T08:31:14Z</time>
      </trkpt>
      <trkpt lat="43.24572" lon="5.94621">
        <ele>551.1171875</ele>
        <time>2018-10-14T08:31:15Z</time>
      </trkpt>
      <trkpt lat="43.24545" lon="5.94632">
        <ele>549.578125</ele>
        <time>2018-10-14T08:31:27Z</time>
      </trkpt>
      <trkpt lat="43.24544" lon="5.94631">
        <ele>549.5859375</ele>
        <time>2018-10-14T08:31:47Z</time>
      </trkpt>
      <trkpt lat="43.24544" lon="5.9463">
        <ele>549.58984375</ele>
        <time>2018-10-14T08:32:13Z</time>
      </trkpt>
      <trkpt lat="43.24542" lon="5.94631">
        <ele>549.5078125</ele>
        <time>2018-10-14T08:32:48Z</time>
      </trkpt>
      <trkpt lat="43.2454" lon="5.9463">
        <ele>549.48828125</ele>
        <time>2018-10-14T08:33:16Z</time>
      </trkpt>
      <trkpt lat="43.24543" lon="5.94628">
        <ele>549.62890625</ele>
        <time>2018-10-14T08:33:37Z</time>
      </trkpt>
      <trkpt lat="43.24542" lon="5.94633">
        <ele>549.4765625</ele>
        <time>2018-10-14T08:33:47Z</time>
      </trkpt>
      <trkpt lat="43.24541" lon="5.94634">
        <ele>549.41796875</ele>
        <time>2018-10-14T08:33:48Z</time>
      </trkpt>
      <trkpt lat="43.24522" lon="5.94654">
        <ele>549.49609375</ele>
        <time>2018-10-14T08:34:01Z</time>
      </trkpt>
      <trkpt lat="43.2452" lon="5.9466">
        <ele>549.5078125</ele>
        <time>2018-10-14T08:34:04Z</time>
      </trkpt>
      <trkpt lat="43.24518" lon="5.94663">
        <ele>549.53515625</ele>
        <time>2018-10-14T08:34:06Z</time>
      </trkpt>
      <trkpt lat="43.24517" lon="5.94665">
        <ele>549.5390625</ele>
        <time>2018-10-14T08:34:07Z</time>
      </trkpt>
      <trkpt lat="43.24516" lon="5.94667">
        <ele>549.57421875</ele>
        <time>2018-10-14T08:34:08Z</time>
      </trkpt>
      <trkpt lat="43.24503" lon="5.94687">
        <ele>550.07421875</ele>
        <time>2018-10-14T08:34:21Z</time>
      </trkpt>
      <trkpt lat="43.24502" lon="5.94689">
        <ele>550.1328125</ele>
        <time>2018-10-14T08:34:22Z</time>
      </trkpt>
      <trkpt lat="43.24501" lon="5.9469">
        <ele>550.1953125</ele>
        <time>2018-10-14T08:34:23Z</time>
      </trkpt>
      <trkpt lat="43.245" lon="5.94692">
        <ele>550.2578125</ele>
        <time>2018-10-14T08:34:24Z</time>
      </trkpt>
      <trkpt lat="43.245" lon="5.94693">
        <ele>550.30859375</ele>
        <time>2018-10-14T08:34:25Z</time>
      </trkpt>
      <trkpt lat="43.24499" lon="5.94695">
        <ele>550.3828125</ele>
        <time>2018-10-14T08:34:26Z</time>
      </trkpt>
      <trkpt lat="43.24482" lon="5.94711">
        <ele>552.07421875</ele>
        <time>2018-10-14T08:34:38Z</time>
      </trkpt>
      <trkpt lat="43.2448" lon="5.9471">
        <ele>552.2734375</ele>
        <time>2018-10-14T08:34:39Z</time>
      </trkpt>
      <trkpt lat="43.24478" lon="5.9471">
        <ele>552.46875</ele>
        <time>2018-10-14T08:34:40Z</time>
      </trkpt>
      <trkpt lat="43.24476" lon="5.94709">
        <ele>552.625</ele>
        <time>2018-10-14T08:34:41Z</time>
      </trkpt>
      <trkpt lat="43.24474" lon="5.94708">
        <ele>552.77734375</ele>
        <time>2018-10-14T08:34:42Z</time>
      </trkpt>
      <trkpt lat="43.24472" lon="5.94707">
        <ele>552.91796875</ele>
        <time>2018-10-14T08:34:43Z</time>
      </trkpt>
      <trkpt lat="43.24471" lon="5.94706">
        <ele>553.03515625</ele>
        <time>2018-10-14T08:34:44Z</time>
      </trkpt>
      <trkpt lat="43.2447" lon="5.94706">
        <ele>553.1875</ele>
        <time>2018-10-14T08:34:45Z</time>
      </trkpt>
      <trkpt lat="43.24451" lon="5.94695">
        <ele>554.7734375</ele>
        <time>2018-10-14T08:35:01Z</time>
      </trkpt>
      <trkpt lat="43.24446" lon="5.94692">
        <ele>555.34375</ele>
        <time>2018-10-14T08:35:06Z</time>
      </trkpt>
      <trkpt lat="43.24445" lon="5.94691">
        <ele>555.515625</ele>
        <time>2018-10-14T08:35:07Z</time>
      </trkpt>
      <trkpt lat="43.24444" lon="5.9469">
        <ele>555.6640625</ele>
        <time>2018-10-14T08:35:08Z</time>
      </trkpt>
      <trkpt lat="43.24431" lon="5.94683">
        <ele>557.24609375</ele>
        <time>2018-10-14T08:35:19Z</time>
      </trkpt>
      <trkpt lat="43.2443" lon="5.94683">
        <ele>557.4375</ele>
        <time>2018-10-14T08:35:20Z</time>
      </trkpt>
      <trkpt lat="43.2442" lon="5.94679">
        <ele>558.62109375</ele>
        <time>2018-10-14T08:35:31Z</time>
      </trkpt>
      <trkpt lat="43.24401" lon="5.94676">
        <ele>560.56640625</ele>
        <time>2018-10-14T08:35:44Z</time>
      </trkpt>
      <trkpt lat="43.24398" lon="5.94677">
        <ele>560.8671875</ele>
        <time>2018-10-14T08:35:46Z</time>
      </trkpt>
      <trkpt lat="43.24396" lon="5.94677">
        <ele>561.05859375</ele>
        <time>2018-10-14T08:35:47Z</time>
      </trkpt>
      <trkpt lat="43.24394" lon="5.94677">
        <ele>561.2578125</ele>
        <time>2018-10-14T08:35:48Z</time>
      </trkpt>
      <trkpt lat="43.24393" lon="5.94677">
        <ele>561.42578125</ele>
        <time>2018-10-14T08:35:49Z</time>
      </trkpt>
      <trkpt lat="43.24391" lon="5.94678">
        <ele>561.640625</ele>
        <time>2018-10-14T08:35:50Z</time>
      </trkpt>
      <trkpt lat="43.2437" lon="5.94681">
        <ele>563.5703125</ele>
        <time>2018-10-14T08:36:03Z</time>
      </trkpt>
      <trkpt lat="43.24358" lon="5.94668">
        <ele>564.484375</ele>
        <time>2018-10-14T08:36:14Z</time>
      </trkpt>
      <trkpt lat="43.24355" lon="5.94649">
        <ele>564.97265625</ele>
        <time>2018-10-14T08:36:23Z</time>
      </trkpt>
      <trkpt lat="43.24355" lon="5.94647">
        <ele>565</ele>
        <time>2018-10-14T08:36:24Z</time>
      </trkpt>
      <trkpt lat="43.24355" lon="5.94645">
        <ele>565.046875</ele>
        <time>2018-10-14T08:36:25Z</time>
      </trkpt>
      <trkpt lat="43.24354" lon="5.94643">
        <ele>565.11328125</ele>
        <time>2018-10-14T08:36:26Z</time>
      </trkpt>
      <trkpt lat="43.24354" lon="5.94641">
        <ele>565.18359375</ele>
        <time>2018-10-14T08:36:27Z</time>
      </trkpt>
      <trkpt lat="43.24354" lon="5.94639">
        <ele>565.19921875</ele>
        <time>2018-10-14T08:36:28Z</time>
      </trkpt>
      <trkpt lat="43.24354" lon="5.94637">
        <ele>565.234375</ele>
        <time>2018-10-14T08:36:29Z</time>
      </trkpt>
      <trkpt lat="43.24355" lon="5.94635">
        <ele>565.30078125</ele>
        <time>2018-10-14T08:36:30Z</time>
      </trkpt>
      <trkpt lat="43.24355" lon="5.94633">
        <ele>565.359375</ele>
        <time>2018-10-14T08:36:31Z</time>
      </trkpt>
      <trkpt lat="43.24355" lon="5.94631">
        <ele>565.453125</ele>
        <time>2018-10-14T08:36:32Z</time>
      </trkpt>
      <trkpt lat="43.24355" lon="5.9463">
        <ele>565.56640625</ele>
        <time>2018-10-14T08:36:33Z</time>
      </trkpt>
      <trkpt lat="43.24355" lon="5.94628">
        <ele>565.6875</ele>
        <time>2018-10-14T08:36:34Z</time>
      </trkpt>
      <trkpt lat="43.24355" lon="5.94626">
        <ele>565.82421875</ele>
        <time>2018-10-14T08:36:35Z</time>
      </trkpt>
      <trkpt lat="43.24355" lon="5.94624">
        <ele>565.9375</ele>
        <time>2018-10-14T08:36:36Z</time>
      </trkpt>
      <trkpt lat="43.24355" lon="5.94622">
        <ele>566.046875</ele>
        <time>2018-10-14T08:36:37Z</time>
      </trkpt>
      <trkpt lat="43.24355" lon="5.9462">
        <ele>566.140625</ele>
        <time>2018-10-14T08:36:38Z</time>
      </trkpt>
      <trkpt lat="43.24355" lon="5.94619">
        <ele>566.21484375</ele>
        <time>2018-10-14T08:36:39Z</time>
      </trkpt>
      <trkpt lat="43.24356" lon="5.94617">
        <ele>566.26171875</ele>
        <time>2018-10-14T08:36:40Z</time>
      </trkpt>
      <trkpt lat="43.24356" lon="5.94615">
        <ele>566.35546875</ele>
        <time>2018-10-14T08:36:41Z</time>
      </trkpt>
      <trkpt lat="43.24358" lon="5.94593">
        <ele>567.76171875</ele>
        <time>2018-10-14T08:36:54Z</time>
      </trkpt>
      <trkpt lat="43.24361" lon="5.94566">
        <ele>570.6484375</ele>
        <time>2018-10-14T08:37:08Z</time>
      </trkpt>
      <trkpt lat="43.24363" lon="5.94546">
        <ele>573.36328125</ele>
        <time>2018-10-14T08:37:18Z</time>
      </trkpt>
      <trkpt lat="43.24363" lon="5.94543">
        <ele>573.82421875</ele>
        <time>2018-10-14T08:37:20Z</time>
      </trkpt>
      <trkpt lat="43.24364" lon="5.9453">
        <ele>575.5625</ele>
        <time>2018-10-14T08:37:27Z</time>
      </trkpt>
      <trkpt lat="43.24365" lon="5.94528">
        <ele>575.76171875</ele>
        <time>2018-10-14T08:37:28Z</time>
      </trkpt>
      <trkpt lat="43.24365" lon="5.94527">
        <ele>576.00390625</ele>
        <time>2018-10-14T08:37:29Z</time>
      </trkpt>
      <trkpt lat="43.24367" lon="5.94501">
        <ele>579.7421875</ele>
        <time>2018-10-14T08:37:43Z</time>
      </trkpt>
      <trkpt lat="43.24368" lon="5.94493">
        <ele>580.859375</ele>
        <time>2018-10-14T08:37:47Z</time>
      </trkpt>
      <trkpt lat="43.24368" lon="5.94491">
        <ele>581.1171875</ele>
        <time>2018-10-14T08:37:48Z</time>
      </trkpt>
      <trkpt lat="43.24369" lon="5.9449">
        <ele>581.359375</ele>
        <time>2018-10-14T08:37:49Z</time>
      </trkpt>
      <trkpt lat="43.24369" lon="5.94488">
        <ele>581.609375</ele>
        <time>2018-10-14T08:37:50Z</time>
      </trkpt>
      <trkpt lat="43.24369" lon="5.94486">
        <ele>581.87890625</ele>
        <time>2018-10-14T08:37:51Z</time>
      </trkpt>
      <trkpt lat="43.24369" lon="5.94484">
        <ele>582.16015625</ele>
        <time>2018-10-14T08:37:52Z</time>
      </trkpt>
      <trkpt lat="43.24371" lon="5.94465">
        <ele>585.08984375</ele>
        <time>2018-10-14T08:38:03Z</time>
      </trkpt>
      <trkpt lat="43.24371" lon="5.94463">
        <ele>585.32421875</ele>
        <time>2018-10-14T08:38:04Z</time>
      </trkpt>
      <trkpt lat="43.24372" lon="5.94462">
        <ele>585.58203125</ele>
        <time>2018-10-14T08:38:05Z</time>
      </trkpt>
      <trkpt lat="43.24371" lon="5.9446">
        <ele>585.84765625</ele>
        <time>2018-10-14T08:38:06Z</time>
      </trkpt>
      <trkpt lat="43.24372" lon="5.94454">
        <ele>586.62890625</ele>
        <time>2018-10-14T08:38:09Z</time>
      </trkpt>
      <trkpt lat="43.24372" lon="5.9445">
        <ele>587.3046875</ele>
        <time>2018-10-14T08:38:12Z</time>
      </trkpt>
      <trkpt lat="43.24373" lon="5.94448">
        <ele>587.56640625</ele>
        <time>2018-10-14T08:38:13Z</time>
      </trkpt>
      <trkpt lat="43.24373" lon="5.94447">
        <ele>587.80859375</ele>
        <time>2018-10-14T08:38:14Z</time>
      </trkpt>
      <trkpt lat="43.24374" lon="5.9444">
        <ele>588.67578125</ele>
        <time>2018-10-14T08:38:18Z</time>
      </trkpt>
      <trkpt lat="43.24374" lon="5.94438">
        <ele>588.85546875</ele>
        <time>2018-10-14T08:38:19Z</time>
      </trkpt>
      <trkpt lat="43.24375" lon="5.94436">
        <ele>589.02734375</ele>
        <time>2018-10-14T08:38:20Z</time>
      </trkpt>
      <trkpt lat="43.24375" lon="5.94434">
        <ele>589.203125</ele>
        <time>2018-10-14T08:38:21Z</time>
      </trkpt>
      <trkpt lat="43.24375" lon="5.94433">
        <ele>589.37109375</ele>
        <time>2018-10-14T08:38:22Z</time>
      </trkpt>
      <trkpt lat="43.24375" lon="5.94431">
        <ele>589.53515625</ele>
        <time>2018-10-14T08:38:23Z</time>
      </trkpt>
      <trkpt lat="43.24375" lon="5.94429">
        <ele>589.6953125</ele>
        <time>2018-10-14T08:38:24Z</time>
      </trkpt>
      <trkpt lat="43.24376" lon="5.94428">
        <ele>589.83984375</ele>
        <time>2018-10-14T08:38:25Z</time>
      </trkpt>
      <trkpt lat="43.24377" lon="5.94427">
        <ele>589.984375</ele>
        <time>2018-10-14T08:38:26Z</time>
      </trkpt>
      <trkpt lat="43.24377" lon="5.94425">
        <ele>590.16796875</ele>
        <time>2018-10-14T08:38:27Z</time>
      </trkpt>
      <trkpt lat="43.24379" lon="5.94415">
        <ele>591.04296875</ele>
        <time>2018-10-14T08:38:32Z</time>
      </trkpt>
      <trkpt lat="43.24379" lon="5.94413">
        <ele>591.17578125</ele>
        <time>2018-10-14T08:38:33Z</time>
      </trkpt>
      <trkpt lat="43.24379" lon="5.94412">
        <ele>591.29296875</ele>
        <time>2018-10-14T08:38:34Z</time>
      </trkpt>
      <trkpt lat="43.24379" lon="5.9441">
        <ele>591.4140625</ele>
        <time>2018-10-14T08:38:35Z</time>
      </trkpt>
      <trkpt lat="43.24379" lon="5.94403">
        <ele>591.92578125</ele>
        <time>2018-10-14T08:38:40Z</time>
      </trkpt>
      <trkpt lat="43.24378" lon="5.94402">
        <ele>591.953125</ele>
        <time>2018-10-14T08:38:41Z</time>
      </trkpt>
      <trkpt lat="43.24377" lon="5.94403">
        <ele>591.890625</ele>
        <time>2018-10-14T08:38:42Z</time>
      </trkpt>
      <trkpt lat="43.24377" lon="5.94405">
        <ele>591.77734375</ele>
        <time>2018-10-14T08:38:43Z</time>
      </trkpt>
      <trkpt lat="43.24375" lon="5.94417">
        <ele>590.8984375</ele>
        <time>2018-10-14T08:38:55Z</time>
      </trkpt>
      <trkpt lat="43.24375" lon="5.9442">
        <ele>590.57421875</ele>
        <time>2018-10-14T08:39:23Z</time>
      </trkpt>
      <trkpt lat="43.24374" lon="5.94422">
        <ele>590.37109375</ele>
        <time>2018-10-14T08:39:42Z</time>
      </trkpt>
      <trkpt lat="43.24372" lon="5.94423">
        <ele>590.25390625</ele>
        <time>2018-10-14T08:40:11Z</time>
      </trkpt>
      <trkpt lat="43.24372" lon="5.94424">
        <ele>590.12890625</ele>
        <time>2018-10-14T08:40:36Z</time>
      </trkpt>
      <trkpt lat="43.24374" lon="5.94421">
        <ele>590.44140625</ele>
        <time>2018-10-14T08:41:00Z</time>
      </trkpt>
      <trkpt lat="43.24375" lon="5.94426">
        <ele>590.01171875</ele>
        <time>2018-10-14T08:41:22Z</time>
      </trkpt>
      <trkpt lat="43.24377" lon="5.94427">
        <ele>589.984375</ele>
        <time>2018-10-14T08:41:52Z</time>
      </trkpt>
      <trkpt lat="43.24373" lon="5.94421">
        <ele>590.4453125</ele>
        <time>2018-10-14T08:42:17Z</time>
      </trkpt>
      <trkpt lat="43.24373" lon="5.94424">
        <ele>590.1953125</ele>
        <time>2018-10-14T08:42:42Z</time>
      </trkpt>
      <trkpt lat="43.24371" lon="5.94429">
        <ele>589.6953125</ele>
        <time>2018-10-14T08:42:54Z</time>
      </trkpt>
      <trkpt lat="43.2437" lon="5.9443">
        <ele>589.5625</ele>
        <time>2018-10-14T08:42:55Z</time>
      </trkpt>
      <trkpt lat="43.2437" lon="5.94431">
        <ele>589.4140625</ele>
        <time>2018-10-14T08:42:56Z</time>
      </trkpt>
      <trkpt lat="43.24369" lon="5.94433">
        <ele>589.19140625</ele>
        <time>2018-10-14T08:42:57Z</time>
      </trkpt>
      <trkpt lat="43.24369" lon="5.94436">
        <ele>588.87109375</ele>
        <time>2018-10-14T08:42:58Z</time>
      </trkpt>
      <trkpt lat="43.24369" lon="5.94441">
        <ele>588.41015625</ele>
        <time>2018-10-14T08:42:59Z</time>
      </trkpt>
      <trkpt lat="43.24367" lon="5.94453">
        <ele>586.734375</ele>
        <time>2018-10-14T08:43:02Z</time>
      </trkpt>
      <trkpt lat="43.24357" lon="5.94476">
        <ele>583.6484375</ele>
        <time>2018-10-14T08:43:12Z</time>
      </trkpt>
      <trkpt lat="43.24352" lon="5.94506">
        <ele>579.55859375</ele>
        <time>2018-10-14T08:43:22Z</time>
      </trkpt>
      <trkpt lat="43.24349" lon="5.9452">
        <ele>577.99609375</ele>
        <time>2018-10-14T08:43:25Z</time>
      </trkpt>
      <trkpt lat="43.24347" lon="5.94524">
        <ele>577.62109375</ele>
        <time>2018-10-14T08:43:26Z</time>
      </trkpt>
      <trkpt lat="43.24345" lon="5.94528">
        <ele>577.265625</ele>
        <time>2018-10-14T08:43:27Z</time>
      </trkpt>
      <trkpt lat="43.24344" lon="5.94531">
        <ele>576.87890625</ele>
        <time>2018-10-14T08:43:28Z</time>
      </trkpt>
      <trkpt lat="43.24343" lon="5.94534">
        <ele>576.59765625</ele>
        <time>2018-10-14T08:43:29Z</time>
      </trkpt>
      <trkpt lat="43.24341" lon="5.94535">
        <ele>576.48046875</ele>
        <time>2018-10-14T08:43:30Z</time>
      </trkpt>
      <trkpt lat="43.24341" lon="5.94538">
        <ele>576.1640625</ele>
        <time>2018-10-14T08:43:31Z</time>
      </trkpt>
      <trkpt lat="43.24342" lon="5.94541">
        <ele>575.578125</ele>
        <time>2018-10-14T08:43:32Z</time>
      </trkpt>
      <trkpt lat="43.24342" lon="5.94546">
        <ele>574.91796875</ele>
        <time>2018-10-14T08:43:33Z</time>
      </trkpt>
      <trkpt lat="43.24342" lon="5.94554">
        <ele>573.67578125</ele>
        <time>2018-10-14T08:43:35Z</time>
      </trkpt>
      <trkpt lat="43.24341" lon="5.94562">
        <ele>572.66796875</ele>
        <time>2018-10-14T08:43:37Z</time>
      </trkpt>
      <trkpt lat="43.24341" lon="5.9457">
        <ele>571.546875</ele>
        <time>2018-10-14T08:43:39Z</time>
      </trkpt>
      <trkpt lat="43.2434" lon="5.94574">
        <ele>571</ele>
        <time>2018-10-14T08:43:40Z</time>
      </trkpt>
      <trkpt lat="43.2434" lon="5.94578">
        <ele>570.4140625</ele>
        <time>2018-10-14T08:43:41Z</time>
      </trkpt>
      <trkpt lat="43.24339" lon="5.94583">
        <ele>569.85546875</ele>
        <time>2018-10-14T08:43:42Z</time>
      </trkpt>
      <trkpt lat="43.24338" lon="5.94588">
        <ele>569.57421875</ele>
        <time>2018-10-14T08:43:43Z</time>
      </trkpt>
      <trkpt lat="43.24331" lon="5.94628">
        <ele>569.44921875</ele>
        <time>2018-10-14T08:43:52Z</time>
      </trkpt>
      <trkpt lat="43.24327" lon="5.94646">
        <ele>570.05078125</ele>
        <time>2018-10-14T08:43:58Z</time>
      </trkpt>
      <trkpt lat="43.24328" lon="5.94648">
        <ele>569.7109375</ele>
        <time>2018-10-14T08:43:59Z</time>
      </trkpt>
      <trkpt lat="43.24328" lon="5.94651">
        <ele>569.640625</ele>
        <time>2018-10-14T08:44:00Z</time>
      </trkpt>
      <trkpt lat="43.24328" lon="5.94656">
        <ele>569.5078125</ele>
        <time>2018-10-14T08:44:01Z</time>
      </trkpt>
      <trkpt lat="43.24328" lon="5.94661">
        <ele>569.08984375</ele>
        <time>2018-10-14T08:44:02Z</time>
      </trkpt>
      <trkpt lat="43.24329" lon="5.94666">
        <ele>568.70703125</ele>
        <time>2018-10-14T08:44:03Z</time>
      </trkpt>
      <trkpt lat="43.24329" lon="5.94672">
        <ele>568.48046875</ele>
        <time>2018-10-14T08:44:04Z</time>
      </trkpt>
      <trkpt lat="43.24329" lon="5.94677">
        <ele>568.49609375</ele>
        <time>2018-10-14T08:44:05Z</time>
      </trkpt>
      <trkpt lat="43.24328" lon="5.94683">
        <ele>568.72265625</ele>
        <time>2018-10-14T08:44:06Z</time>
      </trkpt>
      <trkpt lat="43.24327" lon="5.94687">
        <ele>568.8828125</ele>
        <time>2018-10-14T08:44:07Z</time>
      </trkpt>
      <trkpt lat="43.24326" lon="5.94691">
        <ele>568.921875</ele>
        <time>2018-10-14T08:44:08Z</time>
      </trkpt>
      <trkpt lat="43.24326" lon="5.94694">
        <ele>568.9140625</ele>
        <time>2018-10-14T08:44:09Z</time>
      </trkpt>
      <trkpt lat="43.24325" lon="5.94698">
        <ele>569.1796875</ele>
        <time>2018-10-14T08:44:10Z</time>
      </trkpt>
      <trkpt lat="43.24324" lon="5.94703">
        <ele>569.359375</ele>
        <time>2018-10-14T08:44:11Z</time>
      </trkpt>
      <trkpt lat="43.24324" lon="5.94707">
        <ele>569.37890625</ele>
        <time>2018-10-14T08:44:12Z</time>
      </trkpt>
      <trkpt lat="43.24321" lon="5.94756">
        <ele>570.01953125</ele>
        <time>2018-10-14T08:44:23Z</time>
      </trkpt>
      <trkpt lat="43.2432" lon="5.94762">
        <ele>570.2890625</ele>
        <time>2018-10-14T08:44:24Z</time>
      </trkpt>
      <trkpt lat="43.24319" lon="5.94811">
        <ele>572.140625</ele>
        <time>2018-10-14T08:44:33Z</time>
      </trkpt>
      <trkpt lat="43.24326" lon="5.9484">
        <ele>573.21484375</ele>
        <time>2018-10-14T08:44:39Z</time>
      </trkpt>
      <trkpt lat="43.24327" lon="5.94845">
        <ele>573.421875</ele>
        <time>2018-10-14T08:44:40Z</time>
      </trkpt>
      <trkpt lat="43.24329" lon="5.94851">
        <ele>573.59765625</ele>
        <time>2018-10-14T08:44:41Z</time>
      </trkpt>
      <trkpt lat="43.2433" lon="5.94855">
        <ele>573.75</ele>
        <time>2018-10-14T08:44:42Z</time>
      </trkpt>
      <trkpt lat="43.24331" lon="5.9486">
        <ele>574.01171875</ele>
        <time>2018-10-14T08:44:43Z</time>
      </trkpt>
      <trkpt lat="43.24332" lon="5.94865">
        <ele>574.02734375</ele>
        <time>2018-10-14T08:44:44Z</time>
      </trkpt>
      <trkpt lat="43.24333" lon="5.9487">
        <ele>574.01953125</ele>
        <time>2018-10-14T08:44:45Z</time>
      </trkpt>
      <trkpt lat="43.24333" lon="5.94874">
        <ele>574.10546875</ele>
        <time>2018-10-14T08:44:46Z</time>
      </trkpt>
      <trkpt lat="43.24333" lon="5.94877">
        <ele>574.20703125</ele>
        <time>2018-10-14T08:44:47Z</time>
      </trkpt>
      <trkpt lat="43.24334" lon="5.9488">
        <ele>574.28515625</ele>
        <time>2018-10-14T08:44:48Z</time>
      </trkpt>
      <trkpt lat="43.24334" lon="5.94884">
        <ele>574.3203125</ele>
        <time>2018-10-14T08:44:49Z</time>
      </trkpt>
      <trkpt lat="43.24335" lon="5.94887">
        <ele>574.40234375</ele>
        <time>2018-10-14T08:44:50Z</time>
      </trkpt>
      <trkpt lat="43.24334" lon="5.94891">
        <ele>574.58203125</ele>
        <time>2018-10-14T08:44:51Z</time>
      </trkpt>
      <trkpt lat="43.24335" lon="5.94895">
        <ele>574.65234375</ele>
        <time>2018-10-14T08:44:52Z</time>
      </trkpt>
      <trkpt lat="43.24339" lon="5.94917">
        <ele>574.81640625</ele>
        <time>2018-10-14T08:44:58Z</time>
      </trkpt>
      <trkpt lat="43.24339" lon="5.9492">
        <ele>574.57421875</ele>
        <time>2018-10-14T08:44:59Z</time>
      </trkpt>
      <trkpt lat="43.2434" lon="5.94923">
        <ele>574.33203125</ele>
        <time>2018-10-14T08:45:00Z</time>
      </trkpt>
      <trkpt lat="43.2434" lon="5.94926">
        <ele>574.0625</ele>
        <time>2018-10-14T08:45:01Z</time>
      </trkpt>
      <trkpt lat="43.2434" lon="5.9493">
        <ele>573.8125</ele>
        <time>2018-10-14T08:45:02Z</time>
      </trkpt>
      <trkpt lat="43.2434" lon="5.94933">
        <ele>573.56640625</ele>
        <time>2018-10-14T08:45:03Z</time>
      </trkpt>
      <trkpt lat="43.2434" lon="5.94936">
        <ele>573.296875</ele>
        <time>2018-10-14T08:45:04Z</time>
      </trkpt>
      <trkpt lat="43.24341" lon="5.94939">
        <ele>573.05859375</ele>
        <time>2018-10-14T08:45:05Z</time>
      </trkpt>
      <trkpt lat="43.2434" lon="5.94942">
        <ele>572.828125</ele>
        <time>2018-10-14T08:45:06Z</time>
      </trkpt>
      <trkpt lat="43.24341" lon="5.94946">
        <ele>572.5625</ele>
        <time>2018-10-14T08:45:07Z</time>
      </trkpt>
      <trkpt lat="43.24341" lon="5.94954">
        <ele>571.93359375</ele>
        <time>2018-10-14T08:45:09Z</time>
      </trkpt>
      <trkpt lat="43.24341" lon="5.94957">
        <ele>571.59765625</ele>
        <time>2018-10-14T08:45:10Z</time>
      </trkpt>
      <trkpt lat="43.24342" lon="5.94962">
        <ele>571.21875</ele>
        <time>2018-10-14T08:45:11Z</time>
      </trkpt>
      <trkpt lat="43.24343" lon="5.94967">
        <ele>570.69921875</ele>
        <time>2018-10-14T08:45:12Z</time>
      </trkpt>
      <trkpt lat="43.24344" lon="5.94972">
        <ele>570.171875</ele>
        <time>2018-10-14T08:45:13Z</time>
      </trkpt>
      <trkpt lat="43.24344" lon="5.94978">
        <ele>569.73046875</ele>
        <time>2018-10-14T08:45:14Z</time>
      </trkpt>
      <trkpt lat="43.24343" lon="5.94983">
        <ele>569.4296875</ele>
        <time>2018-10-14T08:45:15Z</time>
      </trkpt>
      <trkpt lat="43.24342" lon="5.94988">
        <ele>569.18359375</ele>
        <time>2018-10-14T08:45:16Z</time>
      </trkpt>
      <trkpt lat="43.24342" lon="5.95005">
        <ele>568.28125</ele>
        <time>2018-10-14T08:45:20Z</time>
      </trkpt>
      <trkpt lat="43.24342" lon="5.95009">
        <ele>568.33203125</ele>
        <time>2018-10-14T08:45:21Z</time>
      </trkpt>
      <trkpt lat="43.24342" lon="5.95013">
        <ele>568.328125</ele>
        <time>2018-10-14T08:45:22Z</time>
      </trkpt>
      <trkpt lat="43.24342" lon="5.95017">
        <ele>568.23828125</ele>
        <time>2018-10-14T08:45:23Z</time>
      </trkpt>
      <trkpt lat="43.24343" lon="5.95023">
        <ele>568.109375</ele>
        <time>2018-10-14T08:45:24Z</time>
      </trkpt>
      <trkpt lat="43.24343" lon="5.95029">
        <ele>568.15234375</ele>
        <time>2018-10-14T08:45:25Z</time>
      </trkpt>
      <trkpt lat="43.24343" lon="5.95034">
        <ele>568.35546875</ele>
        <time>2018-10-14T08:45:26Z</time>
      </trkpt>
      <trkpt lat="43.24343" lon="5.95039">
        <ele>568.42578125</ele>
        <time>2018-10-14T08:45:27Z</time>
      </trkpt>
      <trkpt lat="43.24344" lon="5.95044">
        <ele>568.4296875</ele>
        <time>2018-10-14T08:45:28Z</time>
      </trkpt>
      <trkpt lat="43.24345" lon="5.95049">
        <ele>568.37890625</ele>
        <time>2018-10-14T08:45:29Z</time>
      </trkpt>
      <trkpt lat="43.24347" lon="5.95054">
        <ele>568.3671875</ele>
        <time>2018-10-14T08:45:30Z</time>
      </trkpt>
      <trkpt lat="43.24355" lon="5.9508">
        <ele>569.921875</ele>
        <time>2018-10-14T08:45:35Z</time>
      </trkpt>
      <trkpt lat="43.24358" lon="5.95084">
        <ele>569.85546875</ele>
        <time>2018-10-14T08:45:36Z</time>
      </trkpt>
      <trkpt lat="43.24361" lon="5.95089">
        <ele>569.7890625</ele>
        <time>2018-10-14T08:45:37Z</time>
      </trkpt>
      <trkpt lat="43.24363" lon="5.95093">
        <ele>569.7109375</ele>
        <time>2018-10-14T08:45:38Z</time>
      </trkpt>
      <trkpt lat="43.24365" lon="5.95096">
        <ele>569.6875</ele>
        <time>2018-10-14T08:45:39Z</time>
      </trkpt>
      <trkpt lat="43.24376" lon="5.95112">
        <ele>569.0546875</ele>
        <time>2018-10-14T08:45:45Z</time>
      </trkpt>
      <trkpt lat="43.24378" lon="5.95114">
        <ele>568.7890625</ele>
        <time>2018-10-14T08:45:46Z</time>
      </trkpt>
      <trkpt lat="43.24399" lon="5.95142">
        <ele>566.80078125</ele>
        <time>2018-10-14T08:45:57Z</time>
      </trkpt>
      <trkpt lat="43.24404" lon="5.95148">
        <ele>565.83984375</ele>
        <time>2018-10-14T08:45:59Z</time>
      </trkpt>
      <trkpt lat="43.24406" lon="5.95151">
        <ele>565.65234375</ele>
        <time>2018-10-14T08:46:00Z</time>
      </trkpt>
      <trkpt lat="43.24408" lon="5.95156">
        <ele>565.52734375</ele>
        <time>2018-10-14T08:46:01Z</time>
      </trkpt>
      <trkpt lat="43.24422" lon="5.9518">
        <ele>562.7109375</ele>
        <time>2018-10-14T08:46:08Z</time>
      </trkpt>
      <trkpt lat="43.24429" lon="5.95196">
        <ele>560.28515625</ele>
        <time>2018-10-14T08:46:12Z</time>
      </trkpt>
      <trkpt lat="43.24439" lon="5.9522">
        <ele>555.9609375</ele>
        <time>2018-10-14T08:46:17Z</time>
      </trkpt>
      <trkpt lat="43.24441" lon="5.95241">
        <ele>553.90234375</ele>
        <time>2018-10-14T08:46:21Z</time>
      </trkpt>
      <trkpt lat="43.24432" lon="5.95284">
        <ele>553.29296875</ele>
        <time>2018-10-14T08:46:30Z</time>
      </trkpt>
      <trkpt lat="43.24428" lon="5.95302">
        <ele>553.07421875</ele>
        <time>2018-10-14T08:46:35Z</time>
      </trkpt>
      <trkpt lat="43.24427" lon="5.95314">
        <ele>552.62109375</ele>
        <time>2018-10-14T08:46:39Z</time>
      </trkpt>
      <trkpt lat="43.24422" lon="5.95339">
        <ele>552.15625</ele>
        <time>2018-10-14T08:46:47Z</time>
      </trkpt>
      <trkpt lat="43.24422" lon="5.9536">
        <ele>550.76953125</ele>
        <time>2018-10-14T08:46:53Z</time>
      </trkpt>
      <trkpt lat="43.24416" lon="5.95376">
        <ele>551.1875</ele>
        <time>2018-10-14T08:46:56Z</time>
      </trkpt>
      <trkpt lat="43.24413" lon="5.95392">
        <ele>550.9453125</ele>
        <time>2018-10-14T08:47:01Z</time>
      </trkpt>
      <trkpt lat="43.24408" lon="5.95423">
        <ele>550.3671875</ele>
        <time>2018-10-14T08:47:07Z</time>
      </trkpt>
      <trkpt lat="43.24405" lon="5.95439">
        <ele>550.25390625</ele>
        <time>2018-10-14T08:47:11Z</time>
      </trkpt>
      <trkpt lat="43.24402" lon="5.95481">
        <ele>548.7109375</ele>
        <time>2018-10-14T08:47:20Z</time>
      </trkpt>
      <trkpt lat="43.24402" lon="5.95527">
        <ele>546.2890625</ele>
        <time>2018-10-14T08:47:29Z</time>
      </trkpt>
      <trkpt lat="43.24401" lon="5.95535">
        <ele>546.0234375</ele>
        <time>2018-10-14T08:47:31Z</time>
      </trkpt>
      <trkpt lat="43.24403" lon="5.95545">
        <ele>545.07421875</ele>
        <time>2018-10-14T08:47:35Z</time>
      </trkpt>
      <trkpt lat="43.24403" lon="5.95568">
        <ele>544.21875</ele>
        <time>2018-10-14T08:47:41Z</time>
      </trkpt>
      <trkpt lat="43.24384" lon="5.95587">
        <ele>546.28125</ele>
        <time>2018-10-14T08:47:50Z</time>
      </trkpt>
      <trkpt lat="43.24372" lon="5.95613">
        <ele>547.07421875</ele>
        <time>2018-10-14T08:47:57Z</time>
      </trkpt>
      <trkpt lat="43.2436" lon="5.95667">
        <ele>547.3125</ele>
        <time>2018-10-14T08:48:08Z</time>
      </trkpt>
      <trkpt lat="43.24357" lon="5.95681">
        <ele>547.1796875</ele>
        <time>2018-10-14T08:48:11Z</time>
      </trkpt>
      <trkpt lat="43.24355" lon="5.95702">
        <ele>547.08984375</ele>
        <time>2018-10-14T08:48:19Z</time>
      </trkpt>
      <trkpt lat="43.24354" lon="5.95704">
        <ele>547.203125</ele>
        <time>2018-10-14T08:48:41Z</time>
      </trkpt>
      <trkpt lat="43.2435" lon="5.95706">
        <ele>547.6875</ele>
        <time>2018-10-14T08:49:02Z</time>
      </trkpt>
      <trkpt lat="43.24354" lon="5.95706">
        <ele>547.18359375</ele>
        <time>2018-10-14T08:49:24Z</time>
      </trkpt>
      <trkpt lat="43.24357" lon="5.95702">
        <ele>546.92578125</ele>
        <time>2018-10-14T08:49:46Z</time>
      </trkpt>
      <trkpt lat="43.24357" lon="5.95703">
        <ele>546.8671875</ele>
        <time>2018-10-14T08:50:16Z</time>
      </trkpt>
      <trkpt lat="43.24355" lon="5.95707">
        <ele>547.1171875</ele>
        <time>2018-10-14T08:50:39Z</time>
      </trkpt>
      <trkpt lat="43.24357" lon="5.95705">
        <ele>546.91015625</ele>
        <time>2018-10-14T08:51:06Z</time>
      </trkpt>
      <trkpt lat="43.24357" lon="5.95704">
        <ele>546.8828125</ele>
        <time>2018-10-14T08:51:37Z</time>
      </trkpt>
      <trkpt lat="43.24356" lon="5.95706">
        <ele>546.98828125</ele>
        <time>2018-10-14T08:52:07Z</time>
      </trkpt>
      <trkpt lat="43.24358" lon="5.95705">
        <ele>546.74609375</ele>
        <time>2018-10-14T08:52:25Z</time>
      </trkpt>
      <trkpt lat="43.24359" lon="5.95706">
        <ele>546.69921875</ele>
        <time>2018-10-14T08:52:28Z</time>
      </trkpt>
      <trkpt lat="43.24367" lon="5.95753">
        <ele>547.046875</ele>
        <time>2018-10-14T08:52:39Z</time>
      </trkpt>
      <trkpt lat="43.24367" lon="5.95759">
        <ele>547.2109375</ele>
        <time>2018-10-14T08:52:40Z</time>
      </trkpt>
      <trkpt lat="43.24368" lon="5.95764">
        <ele>547.3125</ele>
        <time>2018-10-14T08:52:41Z</time>
      </trkpt>
      <trkpt lat="43.2437" lon="5.9577">
        <ele>547.328125</ele>
        <time>2018-10-14T08:52:42Z</time>
      </trkpt>
      <trkpt lat="43.24372" lon="5.95776">
        <ele>547.2578125</ele>
        <time>2018-10-14T08:52:43Z</time>
      </trkpt>
      <trkpt lat="43.24375" lon="5.95781">
        <ele>547.0625</ele>
        <time>2018-10-14T08:52:44Z</time>
      </trkpt>
      <trkpt lat="43.24378" lon="5.95785">
        <ele>546.7734375</ele>
        <time>2018-10-14T08:52:45Z</time>
      </trkpt>
      <trkpt lat="43.24384" lon="5.95793">
        <ele>546.11328125</ele>
        <time>2018-10-14T08:52:47Z</time>
      </trkpt>
      <trkpt lat="43.24388" lon="5.95796">
        <ele>545.6484375</ele>
        <time>2018-10-14T08:52:48Z</time>
      </trkpt>
      <trkpt lat="43.24392" lon="5.95799">
        <ele>545.0859375</ele>
        <time>2018-10-14T08:52:49Z</time>
      </trkpt>
      <trkpt lat="43.24396" lon="5.95803">
        <ele>544.99609375</ele>
        <time>2018-10-14T08:52:50Z</time>
      </trkpt>
      <trkpt lat="43.24401" lon="5.95807">
        <ele>545.0390625</ele>
        <time>2018-10-14T08:52:51Z</time>
      </trkpt>
      <trkpt lat="43.24405" lon="5.95812">
        <ele>545.13671875</ele>
        <time>2018-10-14T08:52:52Z</time>
      </trkpt>
      <trkpt lat="43.24413" lon="5.95821">
        <ele>545.44140625</ele>
        <time>2018-10-14T08:52:54Z</time>
      </trkpt>
      <trkpt lat="43.24418" lon="5.95825">
        <ele>545.71484375</ele>
        <time>2018-10-14T08:52:56Z</time>
      </trkpt>
      <trkpt lat="43.24418" lon="5.95829">
        <ele>545.8203125</ele>
        <time>2018-10-14T08:52:57Z</time>
      </trkpt>
      <trkpt lat="43.24417" lon="5.95855">
        <ele>546.72265625</ele>
        <time>2018-10-14T08:53:06Z</time>
      </trkpt>
      <trkpt lat="43.24403" lon="5.95908">
        <ele>548.265625</ele>
        <time>2018-10-14T08:53:19Z</time>
      </trkpt>
      <trkpt lat="43.24393" lon="5.95946">
        <ele>547.1796875</ele>
        <time>2018-10-14T08:53:29Z</time>
      </trkpt>
      <trkpt lat="43.24381" lon="5.9597">
        <ele>547.125</ele>
        <time>2018-10-14T08:53:37Z</time>
      </trkpt>
      <trkpt lat="43.24381" lon="5.95985">
        <ele>546.953125</ele>
        <time>2018-10-14T08:53:51Z</time>
      </trkpt>
      <trkpt lat="43.24383" lon="5.95993">
        <ele>546.9921875</ele>
        <time>2018-10-14T08:54:13Z</time>
      </trkpt>
      <trkpt lat="43.24382" lon="5.95994">
        <ele>546.875</ele>
        <time>2018-10-14T08:54:14Z</time>
      </trkpt>
      <trkpt lat="43.24381" lon="5.95996">
        <ele>546.703125</ele>
        <time>2018-10-14T08:54:15Z</time>
      </trkpt>
      <trkpt lat="43.24379" lon="5.95999">
        <ele>546.53125</ele>
        <time>2018-10-14T08:54:16Z</time>
      </trkpt>
      <trkpt lat="43.24378" lon="5.96002">
        <ele>546.40234375</ele>
        <time>2018-10-14T08:54:17Z</time>
      </trkpt>
      <trkpt lat="43.24369" lon="5.96039">
        <ele>545.421875</ele>
        <time>2018-10-14T08:54:26Z</time>
      </trkpt>
      <trkpt lat="43.24367" lon="5.96085">
        <ele>545.0546875</ele>
        <time>2018-10-14T08:54:35Z</time>
      </trkpt>
      <trkpt lat="43.2437" lon="5.96152">
        <ele>543.03125</ele>
        <time>2018-10-14T08:54:47Z</time>
      </trkpt>
      <trkpt lat="43.2437" lon="5.96164">
        <ele>542.734375</ele>
        <time>2018-10-14T08:54:49Z</time>
      </trkpt>
      <trkpt lat="43.24371" lon="5.9617">
        <ele>542.78125</ele>
        <time>2018-10-14T08:54:50Z</time>
      </trkpt>
      <trkpt lat="43.24372" lon="5.96176">
        <ele>542.92578125</ele>
        <time>2018-10-14T08:54:51Z</time>
      </trkpt>
      <trkpt lat="43.24375" lon="5.96181">
        <ele>543.17578125</ele>
        <time>2018-10-14T08:54:52Z</time>
      </trkpt>
      <trkpt lat="43.24377" lon="5.96186">
        <ele>543.375</ele>
        <time>2018-10-14T08:54:53Z</time>
      </trkpt>
      <trkpt lat="43.24379" lon="5.96191">
        <ele>543.4765625</ele>
        <time>2018-10-14T08:54:54Z</time>
      </trkpt>
      <trkpt lat="43.2438" lon="5.96197">
        <ele>543.5234375</ele>
        <time>2018-10-14T08:54:55Z</time>
      </trkpt>
      <trkpt lat="43.24381" lon="5.96203">
        <ele>543.59375</ele>
        <time>2018-10-14T08:54:56Z</time>
      </trkpt>
      <trkpt lat="43.24382" lon="5.9621">
        <ele>543.609375</ele>
        <time>2018-10-14T08:54:57Z</time>
      </trkpt>
      <trkpt lat="43.24384" lon="5.96236">
        <ele>543.3046875</ele>
        <time>2018-10-14T08:55:01Z</time>
      </trkpt>
      <trkpt lat="43.24382" lon="5.96268">
        <ele>542.765625</ele>
        <time>2018-10-14T08:55:06Z</time>
      </trkpt>
      <trkpt lat="43.24381" lon="5.96282">
        <ele>542.71484375</ele>
        <time>2018-10-14T08:55:08Z</time>
      </trkpt>
      <trkpt lat="43.24381" lon="5.96289">
        <ele>542.68359375</ele>
        <time>2018-10-14T08:55:09Z</time>
      </trkpt>
      <trkpt lat="43.24381" lon="5.96302">
        <ele>542.6875</ele>
        <time>2018-10-14T08:55:11Z</time>
      </trkpt>
      <trkpt lat="43.24381" lon="5.96309">
        <ele>542.45703125</ele>
        <time>2018-10-14T08:55:12Z</time>
      </trkpt>
      <trkpt lat="43.2438" lon="5.96323">
        <ele>541.91796875</ele>
        <time>2018-10-14T08:55:14Z</time>
      </trkpt>
      <trkpt lat="43.24379" lon="5.9633">
        <ele>541.5546875</ele>
        <time>2018-10-14T08:55:15Z</time>
      </trkpt>
      <trkpt lat="43.24378" lon="5.96337">
        <ele>541.3515625</ele>
        <time>2018-10-14T08:55:16Z</time>
      </trkpt>
      <trkpt lat="43.24373" lon="5.96367">
        <ele>540.828125</ele>
        <time>2018-10-14T08:55:20Z</time>
      </trkpt>
      <trkpt lat="43.24374" lon="5.96377">
        <ele>540.94140625</ele>
        <time>2018-10-14T08:55:21Z</time>
      </trkpt>
      <trkpt lat="43.24378" lon="5.96418">
        <ele>542.4921875</ele>
        <time>2018-10-14T08:55:25Z</time>
      </trkpt>
      <trkpt lat="43.24377" lon="5.96429">
        <ele>542.5390625</ele>
        <time>2018-10-14T08:55:26Z</time>
      </trkpt>
      <trkpt lat="43.24375" lon="5.96438">
        <ele>542.3828125</ele>
        <time>2018-10-14T08:55:27Z</time>
      </trkpt>
      <trkpt lat="43.24372" lon="5.96457">
        <ele>541.92578125</ele>
        <time>2018-10-14T08:55:29Z</time>
      </trkpt>
      <trkpt lat="43.24372" lon="5.96466">
        <ele>541.97265625</ele>
        <time>2018-10-14T08:55:30Z</time>
      </trkpt>
      <trkpt lat="43.24372" lon="5.96475">
        <ele>542.20703125</ele>
        <time>2018-10-14T08:55:31Z</time>
      </trkpt>
      <trkpt lat="43.24372" lon="5.96484">
        <ele>542.45703125</ele>
        <time>2018-10-14T08:55:32Z</time>
      </trkpt>
      <trkpt lat="43.2437" lon="5.96493">
        <ele>542.5078125</ele>
        <time>2018-10-14T08:55:33Z</time>
      </trkpt>
      <trkpt lat="43.24367" lon="5.96502">
        <ele>542.28515625</ele>
        <time>2018-10-14T08:55:34Z</time>
      </trkpt>
      <trkpt lat="43.24365" lon="5.9651">
        <ele>541.96875</ele>
        <time>2018-10-14T08:55:35Z</time>
      </trkpt>
      <trkpt lat="43.24364" lon="5.96516">
        <ele>541.828125</ele>
        <time>2018-10-14T08:55:36Z</time>
      </trkpt>
      <trkpt lat="43.24363" lon="5.96522">
        <ele>541.80078125</ele>
        <time>2018-10-14T08:55:38Z</time>
      </trkpt>
      <trkpt lat="43.24364" lon="5.96525">
        <ele>541.87109375</ele>
        <time>2018-10-14T08:55:39Z</time>
      </trkpt>
      <trkpt lat="43.24364" lon="5.96528">
        <ele>541.9921875</ele>
        <time>2018-10-14T08:55:40Z</time>
      </trkpt>
      <trkpt lat="43.24364" lon="5.96531">
        <ele>542.10546875</ele>
        <time>2018-10-14T08:55:41Z</time>
      </trkpt>
      <trkpt lat="43.24365" lon="5.96534">
        <ele>542.2734375</ele>
        <time>2018-10-14T08:55:42Z</time>
      </trkpt>
      <trkpt lat="43.24365" lon="5.96538">
        <ele>542.39453125</ele>
        <time>2018-10-14T08:55:43Z</time>
      </trkpt>
      <trkpt lat="43.24364" lon="5.96542">
        <ele>542.4453125</ele>
        <time>2018-10-14T08:55:44Z</time>
      </trkpt>
      <trkpt lat="43.24363" lon="5.96547">
        <ele>542.4921875</ele>
        <time>2018-10-14T08:55:45Z</time>
      </trkpt>
      <trkpt lat="43.24364" lon="5.96606">
        <ele>543.62109375</ele>
        <time>2018-10-14T08:55:57Z</time>
      </trkpt>
      <trkpt lat="43.24366" lon="5.96677">
        <ele>543.8515625</ele>
        <time>2018-10-14T08:56:11Z</time>
      </trkpt>
      <trkpt lat="43.24365" lon="5.96728">
        <ele>543.625</ele>
        <time>2018-10-14T08:56:24Z</time>
      </trkpt>
      <trkpt lat="43.24358" lon="5.96768">
        <ele>545.7578125</ele>
        <time>2018-10-14T08:56:36Z</time>
      </trkpt>
      <trkpt lat="43.24339" lon="5.96817">
        <ele>546.1328125</ele>
        <time>2018-10-14T08:56:48Z</time>
      </trkpt>
      <trkpt lat="43.24335" lon="5.96827">
        <ele>546.02734375</ele>
        <time>2018-10-14T08:56:50Z</time>
      </trkpt>
      <trkpt lat="43.24319" lon="5.96863">
        <ele>544.31640625</ele>
        <time>2018-10-14T08:56:57Z</time>
      </trkpt>
      <trkpt lat="43.24317" lon="5.96869">
        <ele>543.94140625</ele>
        <time>2018-10-14T08:56:58Z</time>
      </trkpt>
      <trkpt lat="43.24316" lon="5.96874">
        <ele>543.68359375</ele>
        <time>2018-10-14T08:56:59Z</time>
      </trkpt>
      <trkpt lat="43.24314" lon="5.96933">
        <ele>544.9375</ele>
        <time>2018-10-14T08:57:11Z</time>
      </trkpt>
      <trkpt lat="43.24314" lon="5.96937">
        <ele>545.1796875</ele>
        <time>2018-10-14T08:57:12Z</time>
      </trkpt>
      <trkpt lat="43.24314" lon="5.9694">
        <ele>545.47265625</ele>
        <time>2018-10-14T08:57:13Z</time>
      </trkpt>
      <trkpt lat="43.24309" lon="5.96989">
        <ele>534.86328125</ele>
        <time>2018-10-14T08:57:27Z</time>
      </trkpt>
      <trkpt lat="43.24296" lon="5.96997">
        <ele>530.671875</ele>
        <time>2018-10-14T08:57:31Z</time>
      </trkpt>
      <trkpt lat="43.24293" lon="5.96996">
        <ele>530.48046875</ele>
        <time>2018-10-14T08:57:32Z</time>
      </trkpt>
      <trkpt lat="43.24291" lon="5.96994">
        <ele>530.44140625</ele>
        <time>2018-10-14T08:57:33Z</time>
      </trkpt>
      <trkpt lat="43.24282" lon="5.96984">
        <ele>530.91796875</ele>
        <time>2018-10-14T08:57:41Z</time>
      </trkpt>
      <trkpt lat="43.24281" lon="5.96982">
        <ele>531.171875</ele>
        <time>2018-10-14T08:57:42Z</time>
      </trkpt>
      <trkpt lat="43.2428" lon="5.9698">
        <ele>531.6015625</ele>
        <time>2018-10-14T08:57:43Z</time>
      </trkpt>
      <trkpt lat="43.24278" lon="5.96977">
        <ele>531.9609375</ele>
        <time>2018-10-14T08:57:44Z</time>
      </trkpt>
      <trkpt lat="43.24277" lon="5.96976">
        <ele>532.21875</ele>
        <time>2018-10-14T08:57:45Z</time>
      </trkpt>
      <trkpt lat="43.24276" lon="5.96974">
        <ele>532.55078125</ele>
        <time>2018-10-14T08:57:46Z</time>
      </trkpt>
      <trkpt lat="43.24275" lon="5.96972">
        <ele>532.9453125</ele>
        <time>2018-10-14T08:57:47Z</time>
      </trkpt>
      <trkpt lat="43.24273" lon="5.9697">
        <ele>533.37109375</ele>
        <time>2018-10-14T08:57:48Z</time>
      </trkpt>
      <trkpt lat="43.24272" lon="5.96968">
        <ele>533.6015625</ele>
        <time>2018-10-14T08:57:49Z</time>
      </trkpt>
      <trkpt lat="43.24261" lon="5.96963">
        <ele>533.9375</ele>
        <time>2018-10-14T08:57:56Z</time>
      </trkpt>
      <trkpt lat="43.24245" lon="5.96975">
        <ele>530.4609375</ele>
        <time>2018-10-14T08:58:09Z</time>
      </trkpt>
      <trkpt lat="43.24231" lon="5.96982">
        <ele>527.95703125</ele>
        <time>2018-10-14T08:58:21Z</time>
      </trkpt>
      <trkpt lat="43.2423" lon="5.96982">
        <ele>527.890625</ele>
        <time>2018-10-14T08:58:22Z</time>
      </trkpt>
      <trkpt lat="43.24225" lon="5.96983">
        <ele>527.73046875</ele>
        <time>2018-10-14T08:58:25Z</time>
      </trkpt>
      <trkpt lat="43.24224" lon="5.96983">
        <ele>527.8671875</ele>
        <time>2018-10-14T08:58:26Z</time>
      </trkpt>
      <trkpt lat="43.24211" lon="5.96973">
        <ele>533.7890625</ele>
        <time>2018-10-14T08:58:38Z</time>
      </trkpt>
      <trkpt lat="43.24203" lon="5.96956">
        <ele>540.32421875</ele>
        <time>2018-10-14T08:58:50Z</time>
      </trkpt>
      <trkpt lat="43.24197" lon="5.96938">
        <ele>545.32421875</ele>
        <time>2018-10-14T08:59:01Z</time>
      </trkpt>
      <trkpt lat="43.24197" lon="5.96935">
        <ele>545.40625</ele>
        <time>2018-10-14T08:59:03Z</time>
      </trkpt>
      <trkpt lat="43.24195" lon="5.96925">
        <ele>545.9453125</ele>
        <time>2018-10-14T08:59:10Z</time>
      </trkpt>
      <trkpt lat="43.24194" lon="5.96924">
        <ele>546.2265625</ele>
        <time>2018-10-14T08:59:11Z</time>
      </trkpt>
      <trkpt lat="43.24193" lon="5.96922">
        <ele>546.40234375</ele>
        <time>2018-10-14T08:59:12Z</time>
      </trkpt>
      <trkpt lat="43.24189" lon="5.96914">
        <ele>547.41015625</ele>
        <time>2018-10-14T08:59:17Z</time>
      </trkpt>
      <trkpt lat="43.24183" lon="5.96905">
        <ele>548.8203125</ele>
        <time>2018-10-14T08:59:28Z</time>
      </trkpt>
      <trkpt lat="43.24182" lon="5.96905">
        <ele>549.296875</ele>
        <time>2018-10-14T08:59:45Z</time>
      </trkpt>
      <trkpt lat="43.24179" lon="5.96897">
        <ele>550.0703125</ele>
        <time>2018-10-14T09:00:01Z</time>
      </trkpt>
      <trkpt lat="43.24173" lon="5.96886">
        <ele>551.54296875</ele>
        <time>2018-10-14T09:00:14Z</time>
      </trkpt>
      <trkpt lat="43.24166" lon="5.96874">
        <ele>552.76953125</ele>
        <time>2018-10-14T09:00:27Z</time>
      </trkpt>
      <trkpt lat="43.24161" lon="5.96861">
        <ele>553.6484375</ele>
        <time>2018-10-14T09:00:41Z</time>
      </trkpt>
      <trkpt lat="43.24159" lon="5.96857">
        <ele>553.859375</ele>
        <time>2018-10-14T09:01:06Z</time>
      </trkpt>
      <trkpt lat="43.24156" lon="5.96848">
        <ele>554.65234375</ele>
        <time>2018-10-14T09:01:28Z</time>
      </trkpt>
      <trkpt lat="43.24154" lon="5.96842">
        <ele>554.984375</ele>
        <time>2018-10-14T09:01:33Z</time>
      </trkpt>
      <trkpt lat="43.24148" lon="5.96827">
        <ele>556.37890625</ele>
        <time>2018-10-14T09:01:44Z</time>
      </trkpt>
      <trkpt lat="43.24139" lon="5.9681">
        <ele>558.48828125</ele>
        <time>2018-10-14T09:01:56Z</time>
      </trkpt>
      <trkpt lat="43.24138" lon="5.96809">
        <ele>558.83203125</ele>
        <time>2018-10-14T09:01:57Z</time>
      </trkpt>
      <trkpt lat="43.24137" lon="5.96807">
        <ele>559.1015625</ele>
        <time>2018-10-14T09:01:58Z</time>
      </trkpt>
      <trkpt lat="43.24136" lon="5.96806">
        <ele>559.32421875</ele>
        <time>2018-10-14T09:01:59Z</time>
      </trkpt>
      <trkpt lat="43.24135" lon="5.96805">
        <ele>559.6015625</ele>
        <time>2018-10-14T09:02:00Z</time>
      </trkpt>
      <trkpt lat="43.24134" lon="5.96804">
        <ele>559.90234375</ele>
        <time>2018-10-14T09:02:01Z</time>
      </trkpt>
      <trkpt lat="43.24133" lon="5.96804">
        <ele>560.24609375</ele>
        <time>2018-10-14T09:02:02Z</time>
      </trkpt>
      <trkpt lat="43.24132" lon="5.96803">
        <ele>560.71484375</ele>
        <time>2018-10-14T09:02:03Z</time>
      </trkpt>
      <trkpt lat="43.2413" lon="5.96802">
        <ele>561.0546875</ele>
        <time>2018-10-14T09:02:04Z</time>
      </trkpt>
      <trkpt lat="43.24129" lon="5.96801">
        <ele>561.3984375</ele>
        <time>2018-10-14T09:02:05Z</time>
      </trkpt>
      <trkpt lat="43.24128" lon="5.968">
        <ele>561.75</ele>
        <time>2018-10-14T09:02:06Z</time>
      </trkpt>
      <trkpt lat="43.24126" lon="5.96799">
        <ele>562.05859375</ele>
        <time>2018-10-14T09:02:07Z</time>
      </trkpt>
      <trkpt lat="43.24125" lon="5.96798">
        <ele>562.3828125</ele>
        <time>2018-10-14T09:02:08Z</time>
      </trkpt>
      <trkpt lat="43.24124" lon="5.96797">
        <ele>562.66796875</ele>
        <time>2018-10-14T09:02:09Z</time>
      </trkpt>
      <trkpt lat="43.24117" lon="5.96789">
        <ele>564.0625</ele>
        <time>2018-10-14T09:02:16Z</time>
      </trkpt>
      <trkpt lat="43.24116" lon="5.96789">
        <ele>564.3359375</ele>
        <time>2018-10-14T09:02:17Z</time>
      </trkpt>
      <trkpt lat="43.24102" lon="5.96776">
        <ele>567.27734375</ele>
        <time>2018-10-14T09:02:33Z</time>
      </trkpt>
      <trkpt lat="43.241" lon="5.96772">
        <ele>567.78125</ele>
        <time>2018-10-14T09:02:36Z</time>
      </trkpt>
      <trkpt lat="43.24089" lon="5.96761">
        <ele>570.03125</ele>
        <time>2018-10-14T09:02:48Z</time>
      </trkpt>
      <trkpt lat="43.24086" lon="5.96757">
        <ele>570.390625</ele>
        <time>2018-10-14T09:02:51Z</time>
      </trkpt>
      <trkpt lat="43.24078" lon="5.96743">
        <ele>571.6796875</ele>
        <time>2018-10-14T09:03:02Z</time>
      </trkpt>
      <trkpt lat="43.24077" lon="5.96742">
        <ele>571.921875</ele>
        <time>2018-10-14T09:03:03Z</time>
      </trkpt>
      <trkpt lat="43.24075" lon="5.9674">
        <ele>572.109375</ele>
        <time>2018-10-14T09:03:04Z</time>
      </trkpt>
      <trkpt lat="43.24071" lon="5.96732">
        <ele>572.58984375</ele>
        <time>2018-10-14T09:03:10Z</time>
      </trkpt>
      <trkpt lat="43.24071" lon="5.9673">
        <ele>572.44921875</ele>
        <time>2018-10-14T09:03:11Z</time>
      </trkpt>
      <trkpt lat="43.24069" lon="5.96727">
        <ele>572.61328125</ele>
        <time>2018-10-14T09:03:14Z</time>
      </trkpt>
      <trkpt lat="43.24065" lon="5.96724">
        <ele>573.86328125</ele>
        <time>2018-10-14T09:03:19Z</time>
      </trkpt>
      <trkpt lat="43.24061" lon="5.9672">
        <ele>574.6875</ele>
        <time>2018-10-14T09:03:30Z</time>
      </trkpt>
      <trkpt lat="43.24064" lon="5.9672">
        <ele>573.671875</ele>
        <time>2018-10-14T09:03:49Z</time>
      </trkpt>
      <trkpt lat="43.24065" lon="5.96719">
        <ele>573.41015625</ele>
        <time>2018-10-14T09:04:15Z</time>
      </trkpt>
      <trkpt lat="43.24064" lon="5.96718">
        <ele>573.8046875</ele>
        <time>2018-10-14T09:04:35Z</time>
      </trkpt>
      <trkpt lat="43.24061" lon="5.96716">
        <ele>574.6796875</ele>
        <time>2018-10-14T09:05:00Z</time>
      </trkpt>
      <trkpt lat="43.24061" lon="5.96714">
        <ele>574.5625</ele>
        <time>2018-10-14T09:05:28Z</time>
      </trkpt>
      <trkpt lat="43.24063" lon="5.96715">
        <ele>574.00390625</ele>
        <time>2018-10-14T09:05:49Z</time>
      </trkpt>
      <trkpt lat="43.24068" lon="5.96716">
        <ele>572.421875</ele>
        <time>2018-10-14T09:06:16Z</time>
      </trkpt>
      <trkpt lat="43.24071" lon="5.96718">
        <ele>571.328125</ele>
        <time>2018-10-14T09:06:43Z</time>
      </trkpt>
      <trkpt lat="43.2407" lon="5.96717">
        <ele>571.8203125</ele>
        <time>2018-10-14T09:07:13Z</time>
      </trkpt>
      <trkpt lat="43.24066" lon="5.96715">
        <ele>573.10546875</ele>
        <time>2018-10-14T09:07:37Z</time>
      </trkpt>
      <trkpt lat="43.24067" lon="5.96712">
        <ele>572.64453125</ele>
        <time>2018-10-14T09:08:05Z</time>
      </trkpt>
      <trkpt lat="43.24069" lon="5.96716">
        <ele>572.20703125</ele>
        <time>2018-10-14T09:08:28Z</time>
      </trkpt>
      <trkpt lat="43.24066" lon="5.96718">
        <ele>572.9765625</ele>
        <time>2018-10-14T09:08:40Z</time>
      </trkpt>
      <trkpt lat="43.24064" lon="5.96718">
        <ele>573.61328125</ele>
        <time>2018-10-14T09:08:52Z</time>
      </trkpt>
      <trkpt lat="43.24064" lon="5.96717">
        <ele>573.765625</ele>
        <time>2018-10-14T09:09:24Z</time>
      </trkpt>
      <trkpt lat="43.24062" lon="5.96719">
        <ele>574.2578125</ele>
        <time>2018-10-14T09:09:54Z</time>
      </trkpt>
      <trkpt lat="43.24064" lon="5.96719">
        <ele>573.546875</ele>
        <time>2018-10-14T09:10:12Z</time>
      </trkpt>
      <trkpt lat="43.24066" lon="5.96719">
        <ele>573.1484375</ele>
        <time>2018-10-14T09:10:40Z</time>
      </trkpt>
      <trkpt lat="43.24068" lon="5.96718">
        <ele>572.2109375</ele>
        <time>2018-10-14T09:11:05Z</time>
      </trkpt>
      <trkpt lat="43.24073" lon="5.96721">
        <ele>570.8828125</ele>
        <time>2018-10-14T09:11:38Z</time>
      </trkpt>
      <trkpt lat="43.24073" lon="5.96721">
        <ele>570.78125</ele>
        <time>2018-10-14T09:12:03Z</time>
      </trkpt>
      <trkpt lat="43.24074" lon="5.9672">
        <ele>570.44921875</ele>
        <time>2018-10-14T09:12:04Z</time>
      </trkpt>
      <trkpt lat="43.24075" lon="5.96719">
        <ele>570.25390625</ele>
        <time>2018-10-14T09:12:05Z</time>
      </trkpt>
      <trkpt lat="43.24073" lon="5.96709">
        <ele>570.78125</ele>
        <time>2018-10-14T09:12:11Z</time>
      </trkpt>
      <trkpt lat="43.24075" lon="5.96708">
        <ele>570.38671875</ele>
        <time>2018-10-14T09:12:12Z</time>
      </trkpt>
      <trkpt lat="43.24076" lon="5.96707">
        <ele>569.94140625</ele>
        <time>2018-10-14T09:12:13Z</time>
      </trkpt>
      <trkpt lat="43.24077" lon="5.96704">
        <ele>569.70703125</ele>
        <time>2018-10-14T09:12:14Z</time>
      </trkpt>
      <trkpt lat="43.24077" lon="5.967">
        <ele>569.82421875</ele>
        <time>2018-10-14T09:12:15Z</time>
      </trkpt>
      <trkpt lat="43.24077" lon="5.96696">
        <ele>569.90625</ele>
        <time>2018-10-14T09:12:16Z</time>
      </trkpt>
      <trkpt lat="43.24077" lon="5.96692">
        <ele>569.97265625</ele>
        <time>2018-10-14T09:12:17Z</time>
      </trkpt>
      <trkpt lat="43.24076" lon="5.96683">
        <ele>570.73828125</ele>
        <time>2018-10-14T09:12:25Z</time>
      </trkpt>
      <trkpt lat="43.24079" lon="5.96677">
        <ele>570.21875</ele>
        <time>2018-10-14T09:12:36Z</time>
      </trkpt>
      <trkpt lat="43.24081" lon="5.96675">
        <ele>569.578125</ele>
        <time>2018-10-14T09:12:39Z</time>
      </trkpt>
      <trkpt lat="43.24083" lon="5.96674">
        <ele>569.1953125</ele>
        <time>2018-10-14T09:12:40Z</time>
      </trkpt>
      <trkpt lat="43.24085" lon="5.9667">
        <ele>568.64453125</ele>
        <time>2018-10-14T09:12:42Z</time>
      </trkpt>
      <trkpt lat="43.24086" lon="5.96662">
        <ele>568.82421875</ele>
        <time>2018-10-14T09:12:51Z</time>
      </trkpt>
      <trkpt lat="43.24092" lon="5.96652">
        <ele>568.44921875</ele>
        <time>2018-10-14T09:13:02Z</time>
      </trkpt>
      <trkpt lat="43.24095" lon="5.96646">
        <ele>568.54296875</ele>
        <time>2018-10-14T09:13:05Z</time>
      </trkpt>
      <trkpt lat="43.24095" lon="5.96644">
        <ele>568.70703125</ele>
        <time>2018-10-14T09:13:06Z</time>
      </trkpt>
      <trkpt lat="43.241" lon="5.96629">
        <ele>569.5625</ele>
        <time>2018-10-14T09:13:16Z</time>
      </trkpt>
      <trkpt lat="43.24105" lon="5.96615">
        <ele>569.59765625</ele>
        <time>2018-10-14T09:13:22Z</time>
      </trkpt>
      <trkpt lat="43.24107" lon="5.96613">
        <ele>569.125</ele>
        <time>2018-10-14T09:13:23Z</time>
      </trkpt>
      <trkpt lat="43.24109" lon="5.96609">
        <ele>568.875</ele>
        <time>2018-10-14T09:13:24Z</time>
      </trkpt>
      <trkpt lat="43.2411" lon="5.96606">
        <ele>568.95703125</ele>
        <time>2018-10-14T09:13:25Z</time>
      </trkpt>
      <trkpt lat="43.24111" lon="5.96603">
        <ele>569.0546875</ele>
        <time>2018-10-14T09:13:26Z</time>
      </trkpt>
      <trkpt lat="43.24112" lon="5.96601">
        <ele>569.10546875</ele>
        <time>2018-10-14T09:13:27Z</time>
      </trkpt>
      <trkpt lat="43.24112" lon="5.96598">
        <ele>569.1484375</ele>
        <time>2018-10-14T09:13:28Z</time>
      </trkpt>
      <trkpt lat="43.24117" lon="5.96579">
        <ele>569.609375</ele>
        <time>2018-10-14T09:13:34Z</time>
      </trkpt>
      <trkpt lat="43.24117" lon="5.96576">
        <ele>569.7421875</ele>
        <time>2018-10-14T09:13:35Z</time>
      </trkpt>
      <trkpt lat="43.24118" lon="5.96572">
        <ele>569.82421875</ele>
        <time>2018-10-14T09:13:36Z</time>
      </trkpt>
      <trkpt lat="43.24119" lon="5.96567">
        <ele>569.98046875</ele>
        <time>2018-10-14T09:13:37Z</time>
      </trkpt>
      <trkpt lat="43.2412" lon="5.96563">
        <ele>570.05078125</ele>
        <time>2018-10-14T09:13:38Z</time>
      </trkpt>
      <trkpt lat="43.24122" lon="5.96558">
        <ele>569.875</ele>
        <time>2018-10-14T09:13:39Z</time>
      </trkpt>
      <trkpt lat="43.24124" lon="5.96555">
        <ele>569.59765625</ele>
        <time>2018-10-14T09:13:40Z</time>
      </trkpt>
      <trkpt lat="43.24125" lon="5.96551">
        <ele>569.296875</ele>
        <time>2018-10-14T09:13:41Z</time>
      </trkpt>
      <trkpt lat="43.24126" lon="5.96548">
        <ele>569.328125</ele>
        <time>2018-10-14T09:13:42Z</time>
      </trkpt>
      <trkpt lat="43.24127" lon="5.96544">
        <ele>569.484375</ele>
        <time>2018-10-14T09:13:43Z</time>
      </trkpt>
      <trkpt lat="43.24134" lon="5.96516">
        <ele>569.69140625</ele>
        <time>2018-10-14T09:13:51Z</time>
      </trkpt>
      <trkpt lat="43.24147" lon="5.96464">
        <ele>571.44921875</ele>
        <time>2018-10-14T09:14:02Z</time>
      </trkpt>
      <trkpt lat="43.24149" lon="5.96459">
        <ele>571.2734375</ele>
        <time>2018-10-14T09:14:03Z</time>
      </trkpt>
      <trkpt lat="43.2415" lon="5.96454">
        <ele>571.23828125</ele>
        <time>2018-10-14T09:14:04Z</time>
      </trkpt>
      <trkpt lat="43.24152" lon="5.96448">
        <ele>571.34765625</ele>
        <time>2018-10-14T09:14:05Z</time>
      </trkpt>
      <trkpt lat="43.24153" lon="5.96444">
        <ele>571.453125</ele>
        <time>2018-10-14T09:14:06Z</time>
      </trkpt>
      <trkpt lat="43.24154" lon="5.96439">
        <ele>571.4609375</ele>
        <time>2018-10-14T09:14:07Z</time>
      </trkpt>
      <trkpt lat="43.24159" lon="5.96392">
        <ele>571.4609375</ele>
        <time>2018-10-14T09:14:17Z</time>
      </trkpt>
      <trkpt lat="43.24159" lon="5.96385">
        <ele>571.34375</ele>
        <time>2018-10-14T09:14:18Z</time>
      </trkpt>
      <trkpt lat="43.24161" lon="5.96338">
        <ele>569.0390625</ele>
        <time>2018-10-14T09:14:28Z</time>
      </trkpt>
      <trkpt lat="43.24161" lon="5.96335">
        <ele>568.8125</ele>
        <time>2018-10-14T09:14:30Z</time>
      </trkpt>
      <trkpt lat="43.24161" lon="5.96332">
        <ele>568.61328125</ele>
        <time>2018-10-14T09:14:31Z</time>
      </trkpt>
      <trkpt lat="43.24161" lon="5.96329">
        <ele>568.4296875</ele>
        <time>2018-10-14T09:14:32Z</time>
      </trkpt>
      <trkpt lat="43.24161" lon="5.96326">
        <ele>568.28125</ele>
        <time>2018-10-14T09:14:33Z</time>
      </trkpt>
      <trkpt lat="43.24161" lon="5.96323">
        <ele>568.234375</ele>
        <time>2018-10-14T09:14:34Z</time>
      </trkpt>
      <trkpt lat="43.24161" lon="5.96319">
        <ele>568.39453125</ele>
        <time>2018-10-14T09:14:35Z</time>
      </trkpt>
      <trkpt lat="43.2416" lon="5.96315">
        <ele>568.44140625</ele>
        <time>2018-10-14T09:14:36Z</time>
      </trkpt>
      <trkpt lat="43.24161" lon="5.96312">
        <ele>568.203125</ele>
        <time>2018-10-14T09:14:37Z</time>
      </trkpt>
      <trkpt lat="43.24161" lon="5.96307">
        <ele>567.89453125</ele>
        <time>2018-10-14T09:14:38Z</time>
      </trkpt>
      <trkpt lat="43.24162" lon="5.96303">
        <ele>567.55859375</ele>
        <time>2018-10-14T09:14:39Z</time>
      </trkpt>
      <trkpt lat="43.24167" lon="5.96248">
        <ele>568.08203125</ele>
        <time>2018-10-14T09:14:50Z</time>
      </trkpt>
      <trkpt lat="43.24169" lon="5.96244">
        <ele>567.984375</ele>
        <time>2018-10-14T09:14:51Z</time>
      </trkpt>
      <trkpt lat="43.24171" lon="5.9624">
        <ele>567.82421875</ele>
        <time>2018-10-14T09:14:52Z</time>
      </trkpt>
      <trkpt lat="43.24173" lon="5.96236">
        <ele>567.56640625</ele>
        <time>2018-10-14T09:14:53Z</time>
      </trkpt>
      <trkpt lat="43.24176" lon="5.96232">
        <ele>566.98828125</ele>
        <time>2018-10-14T09:14:54Z</time>
      </trkpt>
      <trkpt lat="43.24179" lon="5.96229">
        <ele>566.45703125</ele>
        <time>2018-10-14T09:14:55Z</time>
      </trkpt>
      <trkpt lat="43.24181" lon="5.96224">
        <ele>566.30859375</ele>
        <time>2018-10-14T09:14:56Z</time>
      </trkpt>
      <trkpt lat="43.24182" lon="5.9622">
        <ele>566.3671875</ele>
        <time>2018-10-14T09:14:57Z</time>
      </trkpt>
      <trkpt lat="43.24183" lon="5.96215">
        <ele>566.6015625</ele>
        <time>2018-10-14T09:14:58Z</time>
      </trkpt>
      <trkpt lat="43.24186" lon="5.96202">
        <ele>567.37890625</ele>
        <time>2018-10-14T09:15:02Z</time>
      </trkpt>
      <trkpt lat="43.24187" lon="5.96201">
        <ele>567.16796875</ele>
        <time>2018-10-14T09:15:03Z</time>
      </trkpt>
      <trkpt lat="43.24188" lon="5.96199">
        <ele>567.14453125</ele>
        <time>2018-10-14T09:15:04Z</time>
      </trkpt>
      <trkpt lat="43.24189" lon="5.96198">
        <ele>566.9140625</ele>
        <time>2018-10-14T09:15:05Z</time>
      </trkpt>
      <trkpt lat="43.24193" lon="5.96197">
        <ele>566.0390625</ele>
        <time>2018-10-14T09:15:19Z</time>
      </trkpt>
      <trkpt lat="43.24195" lon="5.96197">
        <ele>565.421875</ele>
        <time>2018-10-14T09:15:33Z</time>
      </trkpt>
      <trkpt lat="43.24196" lon="5.96197">
        <ele>565.0390625</ele>
        <time>2018-10-14T09:15:53Z</time>
      </trkpt>
      <trkpt lat="43.24194" lon="5.96198">
        <ele>565.48046875</ele>
        <time>2018-10-14T09:16:22Z</time>
      </trkpt>
      <trkpt lat="43.24192" lon="5.96195">
        <ele>566.59375</ele>
        <time>2018-10-14T09:16:27Z</time>
      </trkpt>
      <trkpt lat="43.24187" lon="5.96193">
        <ele>568.1875</ele>
        <time>2018-10-14T09:16:30Z</time>
      </trkpt>
      <trkpt lat="43.24186" lon="5.96191">
        <ele>568.8828125</ele>
        <time>2018-10-14T09:16:31Z</time>
      </trkpt>
      <trkpt lat="43.24185" lon="5.96189">
        <ele>569.46875</ele>
        <time>2018-10-14T09:16:32Z</time>
      </trkpt>
      <trkpt lat="43.24186" lon="5.96186">
        <ele>569.8359375</ele>
        <time>2018-10-14T09:16:33Z</time>
      </trkpt>
      <trkpt lat="43.24186" lon="5.96184">
        <ele>570.125</ele>
        <time>2018-10-14T09:16:34Z</time>
      </trkpt>
      <trkpt lat="43.24186" lon="5.96147">
        <ele>575.41015625</ele>
        <time>2018-10-14T09:16:45Z</time>
      </trkpt>
      <trkpt lat="43.24186" lon="5.96144">
        <ele>575.5078125</ele>
        <time>2018-10-14T09:16:46Z</time>
      </trkpt>
      <trkpt lat="43.24188" lon="5.96142">
        <ele>575.48828125</ele>
        <time>2018-10-14T09:16:47Z</time>
      </trkpt>
      <trkpt lat="43.2419" lon="5.96139">
        <ele>575.3671875</ele>
        <time>2018-10-14T09:16:48Z</time>
      </trkpt>
      <trkpt lat="43.24192" lon="5.96137">
        <ele>575.25</ele>
        <time>2018-10-14T09:16:49Z</time>
      </trkpt>
      <trkpt lat="43.24194" lon="5.96135">
        <ele>574.9140625</ele>
        <time>2018-10-14T09:16:50Z</time>
      </trkpt>
      <trkpt lat="43.24196" lon="5.96132">
        <ele>574.50390625</ele>
        <time>2018-10-14T09:16:51Z</time>
      </trkpt>
      <trkpt lat="43.242" lon="5.96125">
        <ele>573.39453125</ele>
        <time>2018-10-14T09:16:53Z</time>
      </trkpt>
      <trkpt lat="43.24216" lon="5.96096">
        <ele>569.66796875</ele>
        <time>2018-10-14T09:17:00Z</time>
      </trkpt>
      <trkpt lat="43.24219" lon="5.9609">
        <ele>569.2421875</ele>
        <time>2018-10-14T09:17:01Z</time>
      </trkpt>
      <trkpt lat="43.24222" lon="5.96086">
        <ele>568.73828125</ele>
        <time>2018-10-14T09:17:02Z</time>
      </trkpt>
      <trkpt lat="43.24225" lon="5.96082">
        <ele>568.21875</ele>
        <time>2018-10-14T09:17:03Z</time>
      </trkpt>
      <trkpt lat="43.24228" lon="5.9608">
        <ele>567.69921875</ele>
        <time>2018-10-14T09:17:04Z</time>
      </trkpt>
      <trkpt lat="43.2423" lon="5.96078">
        <ele>567.28515625</ele>
        <time>2018-10-14T09:17:05Z</time>
      </trkpt>
      <trkpt lat="43.24231" lon="5.96076">
        <ele>566.94140625</ele>
        <time>2018-10-14T09:17:06Z</time>
      </trkpt>
      <trkpt lat="43.24233" lon="5.96074">
        <ele>566.73828125</ele>
        <time>2018-10-14T09:17:07Z</time>
      </trkpt>
      <trkpt lat="43.24234" lon="5.96072">
        <ele>566.5390625</ele>
        <time>2018-10-14T09:17:08Z</time>
      </trkpt>
      <trkpt lat="43.24237" lon="5.96068">
        <ele>565.82421875</ele>
        <time>2018-10-14T09:17:10Z</time>
      </trkpt>
      <trkpt lat="43.24239" lon="5.96066">
        <ele>565.46875</ele>
        <time>2018-10-14T09:17:11Z</time>
      </trkpt>
      <trkpt lat="43.24241" lon="5.96063">
        <ele>565.16015625</ele>
        <time>2018-10-14T09:17:12Z</time>
      </trkpt>
      <trkpt lat="43.24253" lon="5.96047">
        <ele>562.84765625</ele>
        <time>2018-10-14T09:17:18Z</time>
      </trkpt>
      <trkpt lat="43.24254" lon="5.96044">
        <ele>562.73828125</ele>
        <time>2018-10-14T09:17:19Z</time>
      </trkpt>
      <trkpt lat="43.24255" lon="5.9604">
        <ele>562.55859375</ele>
        <time>2018-10-14T09:17:20Z</time>
      </trkpt>
      <trkpt lat="43.24261" lon="5.96031">
        <ele>561.2734375</ele>
        <time>2018-10-14T09:17:23Z</time>
      </trkpt>
      <trkpt lat="43.24271" lon="5.96001">
        <ele>559.6640625</ele>
        <time>2018-10-14T09:17:29Z</time>
      </trkpt>
      <trkpt lat="43.24274" lon="5.95996">
        <ele>559.10546875</ele>
        <time>2018-10-14T09:17:30Z</time>
      </trkpt>
      <trkpt lat="43.2428" lon="5.95985">
        <ele>557.75</ele>
        <time>2018-10-14T09:17:32Z</time>
      </trkpt>
      <trkpt lat="43.24284" lon="5.95973">
        <ele>557.19140625</ele>
        <time>2018-10-14T09:17:34Z</time>
      </trkpt>
      <trkpt lat="43.2429" lon="5.95954">
        <ele>557.64453125</ele>
        <time>2018-10-14T09:17:37Z</time>
      </trkpt>
      <trkpt lat="43.24293" lon="5.95948">
        <ele>557.671875</ele>
        <time>2018-10-14T09:17:38Z</time>
      </trkpt>
      <trkpt lat="43.24297" lon="5.95935">
        <ele>557.9453125</ele>
        <time>2018-10-14T09:17:40Z</time>
      </trkpt>
      <trkpt lat="43.24298" lon="5.95928">
        <ele>558.1953125</ele>
        <time>2018-10-14T09:17:41Z</time>
      </trkpt>
      <trkpt lat="43.24305" lon="5.95902">
        <ele>558.49609375</ele>
        <time>2018-10-14T09:17:46Z</time>
      </trkpt>
      <trkpt lat="43.24307" lon="5.95896">
        <ele>558.83203125</ele>
        <time>2018-10-14T09:17:47Z</time>
      </trkpt>
      <trkpt lat="43.24307" lon="5.95891">
        <ele>559.26953125</ele>
        <time>2018-10-14T09:17:48Z</time>
      </trkpt>
      <trkpt lat="43.24306" lon="5.95887">
        <ele>559.8671875</ele>
        <time>2018-10-14T09:17:49Z</time>
      </trkpt>
      <trkpt lat="43.24306" lon="5.95882">
        <ele>560.3984375</ele>
        <time>2018-10-14T09:17:50Z</time>
      </trkpt>
      <trkpt lat="43.24307" lon="5.95878">
        <ele>560.57421875</ele>
        <time>2018-10-14T09:17:51Z</time>
      </trkpt>
      <trkpt lat="43.24309" lon="5.95874">
        <ele>560.5078125</ele>
        <time>2018-10-14T09:17:52Z</time>
      </trkpt>
      <trkpt lat="43.24311" lon="5.9587">
        <ele>560.546875</ele>
        <time>2018-10-14T09:17:53Z</time>
      </trkpt>
      <trkpt lat="43.24313" lon="5.95865">
        <ele>560.75390625</ele>
        <time>2018-10-14T09:17:54Z</time>
      </trkpt>
      <trkpt lat="43.24315" lon="5.95859">
        <ele>561.07421875</ele>
        <time>2018-10-14T09:17:55Z</time>
      </trkpt>
      <trkpt lat="43.24316" lon="5.95854">
        <ele>560.8359375</ele>
        <time>2018-10-14T09:17:56Z</time>
      </trkpt>
      <trkpt lat="43.24318" lon="5.95849">
        <ele>560.55859375</ele>
        <time>2018-10-14T09:17:57Z</time>
      </trkpt>
      <trkpt lat="43.24319" lon="5.95844">
        <ele>560.265625</ele>
        <time>2018-10-14T09:17:58Z</time>
      </trkpt>
      <trkpt lat="43.24321" lon="5.95841">
        <ele>559.9609375</ele>
        <time>2018-10-14T09:17:59Z</time>
      </trkpt>
      <trkpt lat="43.24322" lon="5.95838">
        <ele>559.73046875</ele>
        <time>2018-10-14T09:18:00Z</time>
      </trkpt>
      <trkpt lat="43.24323" lon="5.95835">
        <ele>559.5625</ele>
        <time>2018-10-14T09:18:01Z</time>
      </trkpt>
      <trkpt lat="43.24324" lon="5.95833">
        <ele>559.43359375</ele>
        <time>2018-10-14T09:18:02Z</time>
      </trkpt>
      <trkpt lat="43.24324" lon="5.95831">
        <ele>559.32421875</ele>
        <time>2018-10-14T09:18:03Z</time>
      </trkpt>
      <trkpt lat="43.24324" lon="5.95827">
        <ele>559.3671875</ele>
        <time>2018-10-14T09:18:04Z</time>
      </trkpt>
      <trkpt lat="43.24323" lon="5.95822">
        <ele>559.421875</ele>
        <time>2018-10-14T09:18:05Z</time>
      </trkpt>
      <trkpt lat="43.24323" lon="5.95816">
        <ele>559.3359375</ele>
        <time>2018-10-14T09:18:06Z</time>
      </trkpt>
      <trkpt lat="43.24323" lon="5.9581">
        <ele>559.19140625</ele>
        <time>2018-10-14T09:18:07Z</time>
      </trkpt>
      <trkpt lat="43.24326" lon="5.95784">
        <ele>556.8046875</ele>
        <time>2018-10-14T09:18:12Z</time>
      </trkpt>
      <trkpt lat="43.24336" lon="5.95761">
        <ele>552.3359375</ele>
        <time>2018-10-14T09:18:18Z</time>
      </trkpt>
      <trkpt lat="43.24337" lon="5.95756">
        <ele>551.78515625</ele>
        <time>2018-10-14T09:18:19Z</time>
      </trkpt>
      <trkpt lat="43.24341" lon="5.95736">
        <ele>549.69921875</ele>
        <time>2018-10-14T09:18:23Z</time>
      </trkpt>
      <trkpt lat="43.24348" lon="5.95717">
        <ele>547.83203125</ele>
        <time>2018-10-14T09:18:27Z</time>
      </trkpt>
      <trkpt lat="43.24351" lon="5.95713">
        <ele>547.56640625</ele>
        <time>2018-10-14T09:18:28Z</time>
      </trkpt>
      <trkpt lat="43.24353" lon="5.9571">
        <ele>547.359375</ele>
        <time>2018-10-14T09:18:29Z</time>
      </trkpt>
      <trkpt lat="43.24354" lon="5.95709">
        <ele>547.26171875</ele>
        <time>2018-10-14T09:18:30Z</time>
      </trkpt>
      <trkpt lat="43.24354" lon="5.95703">
        <ele>547.23828125</ele>
        <time>2018-10-14T09:18:44Z</time>
      </trkpt>
      <trkpt lat="43.24355" lon="5.95701">
        <ele>547.08984375</ele>
        <time>2018-10-14T09:19:08Z</time>
      </trkpt>
      <trkpt lat="43.24356" lon="5.95702">
        <ele>546.98828125</ele>
        <time>2018-10-14T09:19:17Z</time>
      </trkpt>
      <trkpt lat="43.24356" lon="5.95704">
        <ele>546.94921875</ele>
        <time>2018-10-14T09:19:18Z</time>
      </trkpt>
      <trkpt lat="43.24354" lon="5.95703">
        <ele>547.1796875</ele>
        <time>2018-10-14T09:19:27Z</time>
      </trkpt>
      <trkpt lat="43.24353" lon="5.95702">
        <ele>547.296875</ele>
        <time>2018-10-14T09:19:39Z</time>
      </trkpt>
      <trkpt lat="43.24353" lon="5.95696">
        <ele>547.30859375</ele>
        <time>2018-10-14T09:19:42Z</time>
      </trkpt>
      <trkpt lat="43.24363" lon="5.95663">
        <ele>547.171875</ele>
        <time>2018-10-14T09:19:56Z</time>
      </trkpt>
      <trkpt lat="43.24368" lon="5.95643">
        <ele>546.7421875</ele>
        <time>2018-10-14T09:20:02Z</time>
      </trkpt>
      <trkpt lat="43.24375" lon="5.95605">
        <ele>547.015625</ele>
        <time>2018-10-14T09:20:14Z</time>
      </trkpt>
      <trkpt lat="43.24381" lon="5.95593">
        <ele>546.4921875</ele>
        <time>2018-10-14T09:20:18Z</time>
      </trkpt>
      <trkpt lat="43.24391" lon="5.95585">
        <ele>545.23828125</ele>
        <time>2018-10-14T09:20:23Z</time>
      </trkpt>
      <trkpt lat="43.24397" lon="5.95576">
        <ele>544.796875</ele>
        <time>2018-10-14T09:20:27Z</time>
      </trkpt>
      <trkpt lat="43.24399" lon="5.95569">
        <ele>544.6953125</ele>
        <time>2018-10-14T09:20:33Z</time>
      </trkpt>
      <trkpt lat="43.24402" lon="5.95548">
        <ele>545.07421875</ele>
        <time>2018-10-14T09:20:44Z</time>
      </trkpt>
      <trkpt lat="43.24402" lon="5.95533">
        <ele>545.9921875</ele>
        <time>2018-10-14T09:20:58Z</time>
      </trkpt>
      <trkpt lat="43.24403" lon="5.95526">
        <ele>546.12890625</ele>
        <time>2018-10-14T09:21:01Z</time>
      </trkpt>
      <trkpt lat="43.24405" lon="5.95503">
        <ele>546.8359375</ele>
        <time>2018-10-14T09:21:13Z</time>
      </trkpt>
      <trkpt lat="43.24406" lon="5.95481">
        <ele>547.8125</ele>
        <time>2018-10-14T09:21:21Z</time>
      </trkpt>
      <trkpt lat="43.24406" lon="5.9546">
        <ele>548.85546875</ele>
        <time>2018-10-14T09:21:28Z</time>
      </trkpt>
      <trkpt lat="43.24407" lon="5.95456">
        <ele>548.76171875</ele>
        <time>2018-10-14T09:21:30Z</time>
      </trkpt>
      <trkpt lat="43.24407" lon="5.95436">
        <ele>549.72265625</ele>
        <time>2018-10-14T09:21:39Z</time>
      </trkpt>
      <trkpt lat="43.24414" lon="5.95407">
        <ele>549.578125</ele>
        <time>2018-10-14T09:21:51Z</time>
      </trkpt>
      <trkpt lat="43.24414" lon="5.95395">
        <ele>550.3046875</ele>
        <time>2018-10-14T09:22:02Z</time>
      </trkpt>
      <trkpt lat="43.24416" lon="5.95383">
        <ele>550.63671875</ele>
        <time>2018-10-14T09:22:14Z</time>
      </trkpt>
      <trkpt lat="43.24424" lon="5.95363">
        <ele>550.11328125</ele>
        <time>2018-10-14T09:22:24Z</time>
      </trkpt>
      <trkpt lat="43.24424" lon="5.95351">
        <ele>550.80859375</ele>
        <time>2018-10-14T09:22:29Z</time>
      </trkpt>
      <trkpt lat="43.24428" lon="5.9533">
        <ele>551.1484375</ele>
        <time>2018-10-14T09:22:38Z</time>
      </trkpt>
      <trkpt lat="43.24428" lon="5.95324">
        <ele>551.5234375</ele>
        <time>2018-10-14T09:22:41Z</time>
      </trkpt>
      <trkpt lat="43.2443" lon="5.9532">
        <ele>551.46875</ele>
        <time>2018-10-14T09:22:43Z</time>
      </trkpt>
      <trkpt lat="43.24434" lon="5.95294">
        <ele>551.94140625</ele>
        <time>2018-10-14T09:22:54Z</time>
      </trkpt>
      <trkpt lat="43.24435" lon="5.95289">
        <ele>551.80859375</ele>
        <time>2018-10-14T09:22:56Z</time>
      </trkpt>
      <trkpt lat="43.24441" lon="5.95252">
        <ele>553.08984375</ele>
        <time>2018-10-14T09:23:09Z</time>
      </trkpt>
      <trkpt lat="43.24442" lon="5.95243">
        <ele>553.57421875</ele>
        <time>2018-10-14T09:23:13Z</time>
      </trkpt>
      <trkpt lat="43.24439" lon="5.9522">
        <ele>556.04296875</ele>
        <time>2018-10-14T09:23:22Z</time>
      </trkpt>
      <trkpt lat="43.24434" lon="5.95207">
        <ele>558.27734375</ele>
        <time>2018-10-14T09:23:28Z</time>
      </trkpt>
      <trkpt lat="43.24427" lon="5.95197">
        <ele>560.7890625</ele>
        <time>2018-10-14T09:23:34Z</time>
      </trkpt>
      <trkpt lat="43.24426" lon="5.95194">
        <ele>561.2890625</ele>
        <time>2018-10-14T09:23:36Z</time>
      </trkpt>
      <trkpt lat="43.24414" lon="5.95167">
        <ele>564.60546875</ele>
        <time>2018-10-14T09:23:48Z</time>
      </trkpt>
      <trkpt lat="43.24403" lon="5.9515">
        <ele>566.31640625</ele>
        <time>2018-10-14T09:23:56Z</time>
      </trkpt>
      <trkpt lat="43.24388" lon="5.95126">
        <ele>567.9140625</ele>
        <time>2018-10-14T09:24:09Z</time>
      </trkpt>
      <trkpt lat="43.24369" lon="5.95105">
        <ele>569.703125</ele>
        <time>2018-10-14T09:24:22Z</time>
      </trkpt>
      <trkpt lat="43.24365" lon="5.95101">
        <ele>570.0078125</ele>
        <time>2018-10-14T09:24:24Z</time>
      </trkpt>
      <trkpt lat="43.24364" lon="5.95098">
        <ele>570.09765625</ele>
        <time>2018-10-14T09:24:25Z</time>
      </trkpt>
      <trkpt lat="43.24347" lon="5.95059">
        <ele>568.91796875</ele>
        <time>2018-10-14T09:24:37Z</time>
      </trkpt>
      <trkpt lat="43.24343" lon="5.95027">
        <ele>567.97265625</ele>
        <time>2018-10-14T09:24:48Z</time>
      </trkpt>
      <trkpt lat="43.24344" lon="5.9501">
        <ele>567.9375</ele>
        <time>2018-10-14T09:24:54Z</time>
      </trkpt>
      <trkpt lat="43.24344" lon="5.95007">
        <ele>567.93359375</ele>
        <time>2018-10-14T09:24:55Z</time>
      </trkpt>
      <trkpt lat="43.24344" lon="5.95005">
        <ele>568.00390625</ele>
        <time>2018-10-14T09:24:56Z</time>
      </trkpt>
      <trkpt lat="43.24344" lon="5.95003">
        <ele>568.0546875</ele>
        <time>2018-10-14T09:24:57Z</time>
      </trkpt>
      <trkpt lat="43.24344" lon="5.95">
        <ele>568.03515625</ele>
        <time>2018-10-14T09:24:58Z</time>
      </trkpt>
      <trkpt lat="43.24345" lon="5.94998">
        <ele>568.03125</ele>
        <time>2018-10-14T09:24:59Z</time>
      </trkpt>
      <trkpt lat="43.24345" lon="5.94995">
        <ele>568.18359375</ele>
        <time>2018-10-14T09:25:00Z</time>
      </trkpt>
      <trkpt lat="43.24346" lon="5.94993">
        <ele>568.26171875</ele>
        <time>2018-10-14T09:25:01Z</time>
      </trkpt>
      <trkpt lat="43.24347" lon="5.94991">
        <ele>568.26171875</ele>
        <time>2018-10-14T09:25:02Z</time>
      </trkpt>
      <trkpt lat="43.24347" lon="5.94988">
        <ele>568.4375</ele>
        <time>2018-10-14T09:25:03Z</time>
      </trkpt>
      <trkpt lat="43.24348" lon="5.94986">
        <ele>568.61328125</ele>
        <time>2018-10-14T09:25:04Z</time>
      </trkpt>
      <trkpt lat="43.24348" lon="5.94984">
        <ele>568.80859375</ele>
        <time>2018-10-14T09:25:05Z</time>
      </trkpt>
      <trkpt lat="43.24343" lon="5.94967">
        <ele>570.7109375</ele>
        <time>2018-10-14T09:25:18Z</time>
      </trkpt>
      <trkpt lat="43.24342" lon="5.94957">
        <ele>571.54296875</ele>
        <time>2018-10-14T09:25:27Z</time>
      </trkpt>
      <trkpt lat="43.24342" lon="5.94956">
        <ele>571.65234375</ele>
        <time>2018-10-14T09:25:28Z</time>
      </trkpt>
      <trkpt lat="43.24342" lon="5.94954">
        <ele>571.8125</ele>
        <time>2018-10-14T09:25:29Z</time>
      </trkpt>
      <trkpt lat="43.24345" lon="5.94933">
        <ele>573.27734375</ele>
        <time>2018-10-14T09:25:41Z</time>
      </trkpt>
      <trkpt lat="43.24344" lon="5.94929">
        <ele>573.66015625</ele>
        <time>2018-10-14T09:26:10Z</time>
      </trkpt>
      <trkpt lat="43.24344" lon="5.94928">
        <ele>573.70703125</ele>
        <time>2018-10-14T09:26:37Z</time>
      </trkpt>
      <trkpt lat="43.24345" lon="5.94929">
        <ele>573.6484375</ele>
        <time>2018-10-14T09:27:03Z</time>
      </trkpt>
      <trkpt lat="43.24343" lon="5.94929">
        <ele>573.7421875</ele>
        <time>2018-10-14T09:27:35Z</time>
      </trkpt>
      <trkpt lat="43.24343" lon="5.94929">
        <ele>573.765625</ele>
        <time>2018-10-14T09:28:06Z</time>
      </trkpt>
      <trkpt lat="43.24345" lon="5.94927">
        <ele>573.75</ele>
        <time>2018-10-14T09:28:40Z</time>
      </trkpt>
      <trkpt lat="43.24345" lon="5.94929">
        <ele>573.65234375</ele>
        <time>2018-10-14T09:29:14Z</time>
      </trkpt>
      <trkpt lat="43.24341" lon="5.94926">
        <ele>574.0390625</ele>
        <time>2018-10-14T09:29:54Z</time>
      </trkpt>
      <trkpt lat="43.24346" lon="5.94917">
        <ele>574.54296875</ele>
        <time>2018-10-14T09:30:12Z</time>
      </trkpt>
      <trkpt lat="43.24346" lon="5.94913">
        <ele>574.6484375</ele>
        <time>2018-10-14T09:30:13Z</time>
      </trkpt>
      <trkpt lat="43.24345" lon="5.94909">
        <ele>574.5703125</ele>
        <time>2018-10-14T09:30:14Z</time>
      </trkpt>
      <trkpt lat="43.24345" lon="5.94884">
        <ele>573.85546875</ele>
        <time>2018-10-14T09:30:19Z</time>
      </trkpt>
      <trkpt lat="43.24345" lon="5.94877">
        <ele>573.625</ele>
        <time>2018-10-14T09:30:20Z</time>
      </trkpt>
      <trkpt lat="43.24347" lon="5.94839">
        <ele>571.5078125</ele>
        <time>2018-10-14T09:30:25Z</time>
      </trkpt>
      <trkpt lat="43.24348" lon="5.94832">
        <ele>571.0234375</ele>
        <time>2018-10-14T09:30:26Z</time>
      </trkpt>
      <trkpt lat="43.24351" lon="5.94826">
        <ele>570.578125</ele>
        <time>2018-10-14T09:30:27Z</time>
      </trkpt>
      <trkpt lat="43.24354" lon="5.9482">
        <ele>570.10546875</ele>
        <time>2018-10-14T09:30:28Z</time>
      </trkpt>
      <trkpt lat="43.24356" lon="5.94812">
        <ele>569.546875</ele>
        <time>2018-10-14T09:30:29Z</time>
      </trkpt>
      <trkpt lat="43.24358" lon="5.94803">
        <ele>568.921875</ele>
        <time>2018-10-14T09:30:30Z</time>
      </trkpt>
      <trkpt lat="43.2436" lon="5.94794">
        <ele>568.32421875</ele>
        <time>2018-10-14T09:30:31Z</time>
      </trkpt>
      <trkpt lat="43.2436" lon="5.94785">
        <ele>567.734375</ele>
        <time>2018-10-14T09:30:32Z</time>
      </trkpt>
      <trkpt lat="43.24361" lon="5.94776">
        <ele>567.14453125</ele>
        <time>2018-10-14T09:30:33Z</time>
      </trkpt>
      <trkpt lat="43.24362" lon="5.94759">
        <ele>565.8984375</ele>
        <time>2018-10-14T09:30:35Z</time>
      </trkpt>
      <trkpt lat="43.24364" lon="5.94751">
        <ele>565.2265625</ele>
        <time>2018-10-14T09:30:36Z</time>
      </trkpt>
      <trkpt lat="43.24366" lon="5.94742">
        <ele>564.72265625</ele>
        <time>2018-10-14T09:30:37Z</time>
      </trkpt>
      <trkpt lat="43.24367" lon="5.94734">
        <ele>564.328125</ele>
        <time>2018-10-14T09:30:38Z</time>
      </trkpt>
      <trkpt lat="43.24367" lon="5.94726">
        <ele>564.0390625</ele>
        <time>2018-10-14T09:30:39Z</time>
      </trkpt>
      <trkpt lat="43.24367" lon="5.94722">
        <ele>563.91015625</ele>
        <time>2018-10-14T09:30:40Z</time>
      </trkpt>
      <trkpt lat="43.24367" lon="5.94719">
        <ele>563.8828125</ele>
        <time>2018-10-14T09:30:41Z</time>
      </trkpt>
      <trkpt lat="43.24367" lon="5.94716">
        <ele>563.87890625</ele>
        <time>2018-10-14T09:30:42Z</time>
      </trkpt>
      <trkpt lat="43.24367" lon="5.94712">
        <ele>563.8515625</ele>
        <time>2018-10-14T09:30:43Z</time>
      </trkpt>
      <trkpt lat="43.24368" lon="5.94709">
        <ele>563.81640625</ele>
        <time>2018-10-14T09:30:44Z</time>
      </trkpt>
      <trkpt lat="43.24368" lon="5.94705">
        <ele>563.765625</ele>
        <time>2018-10-14T09:30:45Z</time>
      </trkpt>
      <trkpt lat="43.2437" lon="5.94685">
        <ele>563.5859375</ele>
        <time>2018-10-14T09:30:54Z</time>
      </trkpt>
      <trkpt lat="43.24372" lon="5.94685">
        <ele>563.43359375</ele>
        <time>2018-10-14T09:30:57Z</time>
      </trkpt>
      <trkpt lat="43.24374" lon="5.94685">
        <ele>563.30859375</ele>
        <time>2018-10-14T09:30:58Z</time>
      </trkpt>
      <trkpt lat="43.24375" lon="5.94684">
        <ele>563.140625</ele>
        <time>2018-10-14T09:30:59Z</time>
      </trkpt>
      <trkpt lat="43.24378" lon="5.94683">
        <ele>562.89453125</ele>
        <time>2018-10-14T09:31:00Z</time>
      </trkpt>
      <trkpt lat="43.24381" lon="5.94682">
        <ele>562.6328125</ele>
        <time>2018-10-14T09:31:01Z</time>
      </trkpt>
      <trkpt lat="43.24407" lon="5.94678">
        <ele>559.953125</ele>
        <time>2018-10-14T09:31:10Z</time>
      </trkpt>
      <trkpt lat="43.24449" lon="5.94694">
        <ele>555.00390625</ele>
        <time>2018-10-14T09:31:18Z</time>
      </trkpt>
      <trkpt lat="43.24462" lon="5.94704">
        <ele>553.9140625</ele>
        <time>2018-10-14T09:31:20Z</time>
      </trkpt>
      <trkpt lat="43.24469" lon="5.94707">
        <ele>553.2734375</ele>
        <time>2018-10-14T09:31:21Z</time>
      </trkpt>
      <trkpt lat="43.24476" lon="5.94709">
        <ele>552.55859375</ele>
        <time>2018-10-14T09:31:22Z</time>
      </trkpt>
      <trkpt lat="43.24483" lon="5.94708">
        <ele>551.94921875</ele>
        <time>2018-10-14T09:31:23Z</time>
      </trkpt>
      <trkpt lat="43.24488" lon="5.94705">
        <ele>551.390625</ele>
        <time>2018-10-14T09:31:24Z</time>
      </trkpt>
      <trkpt lat="43.24493" lon="5.947">
        <ele>550.90625</ele>
        <time>2018-10-14T09:31:25Z</time>
      </trkpt>
      <trkpt lat="43.24497" lon="5.94694">
        <ele>550.5234375</ele>
        <time>2018-10-14T09:31:26Z</time>
      </trkpt>
      <trkpt lat="43.245" lon="5.94686">
        <ele>550.26171875</ele>
        <time>2018-10-14T09:31:27Z</time>
      </trkpt>
      <trkpt lat="43.2453" lon="5.94644">
        <ele>549.14453125</ele>
        <time>2018-10-14T09:31:33Z</time>
      </trkpt>
      <trkpt lat="43.24536" lon="5.94638">
        <ele>549.14453125</ele>
        <time>2018-10-14T09:31:34Z</time>
      </trkpt>
      <trkpt lat="43.24542" lon="5.94632">
        <ele>549.50390625</ele>
        <time>2018-10-14T09:31:35Z</time>
      </trkpt>
      <trkpt lat="43.24549" lon="5.94627">
        <ele>549.76953125</ele>
        <time>2018-10-14T09:31:36Z</time>
      </trkpt>
      <trkpt lat="43.24556" lon="5.94623">
        <ele>549.9453125</ele>
        <time>2018-10-14T09:31:37Z</time>
      </trkpt>
      <trkpt lat="43.24564" lon="5.94621">
        <ele>550.4296875</ele>
        <time>2018-10-14T09:31:38Z</time>
      </trkpt>
      <trkpt lat="43.24571" lon="5.94618">
        <ele>551.15234375</ele>
        <time>2018-10-14T09:31:39Z</time>
      </trkpt>
      <trkpt lat="43.24578" lon="5.94615">
        <ele>551.87109375</ele>
        <time>2018-10-14T09:31:40Z</time>
      </trkpt>
      <trkpt lat="43.24583" lon="5.9461">
        <ele>552.5546875</ele>
        <time>2018-10-14T09:31:41Z</time>
      </trkpt>
      <trkpt lat="43.24588" lon="5.94605">
        <ele>553.03125</ele>
        <time>2018-10-14T09:31:42Z</time>
      </trkpt>
      <trkpt lat="43.24592" lon="5.94599">
        <ele>553.4609375</ele>
        <time>2018-10-14T09:31:43Z</time>
      </trkpt>
      <trkpt lat="43.24595" lon="5.94593">
        <ele>553.80859375</ele>
        <time>2018-10-14T09:31:44Z</time>
      </trkpt>
      <trkpt lat="43.24598" lon="5.94588">
        <ele>554.10546875</ele>
        <time>2018-10-14T09:31:45Z</time>
      </trkpt>
      <trkpt lat="43.246" lon="5.94582">
        <ele>554.3984375</ele>
        <time>2018-10-14T09:31:46Z</time>
      </trkpt>
      <trkpt lat="43.24603" lon="5.94577">
        <ele>554.578125</ele>
        <time>2018-10-14T09:31:47Z</time>
      </trkpt>
      <trkpt lat="43.24606" lon="5.94572">
        <ele>554.7421875</ele>
        <time>2018-10-14T09:31:48Z</time>
      </trkpt>
      <trkpt lat="43.24628" lon="5.9453">
        <ele>555.6015625</ele>
        <time>2018-10-14T09:31:58Z</time>
      </trkpt>
      <trkpt lat="43.2463" lon="5.94518">
        <ele>555.1640625</ele>
        <time>2018-10-14T09:32:00Z</time>
      </trkpt>
      <trkpt lat="43.24631" lon="5.94511">
        <ele>554.83984375</ele>
        <time>2018-10-14T09:32:01Z</time>
      </trkpt>
      <trkpt lat="43.24631" lon="5.94505">
        <ele>554.46484375</ele>
        <time>2018-10-14T09:32:02Z</time>
      </trkpt>
      <trkpt lat="43.2463" lon="5.94478">
        <ele>552.48828125</ele>
        <time>2018-10-14T09:32:10Z</time>
      </trkpt>
      <trkpt lat="43.24626" lon="5.94437">
        <ele>549.0390625</ele>
        <time>2018-10-14T09:32:20Z</time>
      </trkpt>
      <trkpt lat="43.24625" lon="5.94429">
        <ele>548.4453125</ele>
        <time>2018-10-14T09:32:21Z</time>
      </trkpt>
      <trkpt lat="43.24624" lon="5.94422">
        <ele>547.84765625</ele>
        <time>2018-10-14T09:32:22Z</time>
      </trkpt>
      <trkpt lat="43.24624" lon="5.94414">
        <ele>547.25</ele>
        <time>2018-10-14T09:32:23Z</time>
      </trkpt>
      <trkpt lat="43.24622" lon="5.94406">
        <ele>546.6796875</ele>
        <time>2018-10-14T09:32:24Z</time>
      </trkpt>
      <trkpt lat="43.24617" lon="5.94372">
        <ele>543.421875</ele>
        <time>2018-10-14T09:32:28Z</time>
      </trkpt>
      <trkpt lat="43.24618" lon="5.94363">
        <ele>541.96875</ele>
        <time>2018-10-14T09:32:30Z</time>
      </trkpt>
      <trkpt lat="43.24618" lon="5.94361">
        <ele>541.7109375</ele>
        <time>2018-10-14T09:32:31Z</time>
      </trkpt>
      <trkpt lat="43.24617" lon="5.94358">
        <ele>541.46875</ele>
        <time>2018-10-14T09:32:32Z</time>
      </trkpt>
      <trkpt lat="43.24618" lon="5.94356">
        <ele>541.18359375</ele>
        <time>2018-10-14T09:32:33Z</time>
      </trkpt>
      <trkpt lat="43.24619" lon="5.94354">
        <ele>540.8359375</ele>
        <time>2018-10-14T09:32:34Z</time>
      </trkpt>
      <trkpt lat="43.2462" lon="5.94353">
        <ele>540.46875</ele>
        <time>2018-10-14T09:32:35Z</time>
      </trkpt>
      <trkpt lat="43.24622" lon="5.94351">
        <ele>539.9921875</ele>
        <time>2018-10-14T09:32:36Z</time>
      </trkpt>
      <trkpt lat="43.24624" lon="5.94349">
        <ele>539.4765625</ele>
        <time>2018-10-14T09:32:37Z</time>
      </trkpt>
      <trkpt lat="43.24625" lon="5.94346">
        <ele>538.93359375</ele>
        <time>2018-10-14T09:32:38Z</time>
      </trkpt>
      <trkpt lat="43.24626" lon="5.94341">
        <ele>538.29296875</ele>
        <time>2018-10-14T09:32:39Z</time>
      </trkpt>
      <trkpt lat="43.24627" lon="5.94335">
        <ele>537.6171875</ele>
        <time>2018-10-14T09:32:40Z</time>
      </trkpt>
      <trkpt lat="43.24627" lon="5.94328">
        <ele>536.734375</ele>
        <time>2018-10-14T09:32:41Z</time>
      </trkpt>
      <trkpt lat="43.24628" lon="5.94322">
        <ele>535.81640625</ele>
        <time>2018-10-14T09:32:42Z</time>
      </trkpt>
      <trkpt lat="43.24628" lon="5.94316">
        <ele>535.03125</ele>
        <time>2018-10-14T09:32:43Z</time>
      </trkpt>
      <trkpt lat="43.24628" lon="5.9431">
        <ele>534.265625</ele>
        <time>2018-10-14T09:32:44Z</time>
      </trkpt>
      <trkpt lat="43.24629" lon="5.94305">
        <ele>533.50390625</ele>
        <time>2018-10-14T09:32:45Z</time>
      </trkpt>
      <trkpt lat="43.24629" lon="5.94283">
        <ele>531.2421875</ele>
        <time>2018-10-14T09:32:49Z</time>
      </trkpt>
      <trkpt lat="43.24628" lon="5.94261">
        <ele>529.1875</ele>
        <time>2018-10-14T09:32:53Z</time>
      </trkpt>
      <trkpt lat="43.24629" lon="5.94258">
        <ele>528.859375</ele>
        <time>2018-10-14T09:32:54Z</time>
      </trkpt>
      <trkpt lat="43.2463" lon="5.94258">
        <ele>528.515625</ele>
        <time>2018-10-14T09:32:55Z</time>
      </trkpt>
      <trkpt lat="43.24632" lon="5.94259">
        <ele>528.22265625</ele>
        <time>2018-10-14T09:32:56Z</time>
      </trkpt>
      <trkpt lat="43.24634" lon="5.9426">
        <ele>527.9921875</ele>
        <time>2018-10-14T09:32:57Z</time>
      </trkpt>
      <trkpt lat="43.24636" lon="5.94262">
        <ele>527.7109375</ele>
        <time>2018-10-14T09:32:58Z</time>
      </trkpt>
      <trkpt lat="43.24638" lon="5.94264">
        <ele>527.4609375</ele>
        <time>2018-10-14T09:32:59Z</time>
      </trkpt>
      <trkpt lat="43.24641" lon="5.94267">
        <ele>527.234375</ele>
        <time>2018-10-14T09:33:00Z</time>
      </trkpt>
      <trkpt lat="43.24644" lon="5.9427">
        <ele>527.09375</ele>
        <time>2018-10-14T09:33:01Z</time>
      </trkpt>
      <trkpt lat="43.24653" lon="5.94282">
        <ele>527.0078125</ele>
        <time>2018-10-14T09:33:04Z</time>
      </trkpt>
      <trkpt lat="43.24656" lon="5.94285">
        <ele>526.95703125</ele>
        <time>2018-10-14T09:33:05Z</time>
      </trkpt>
      <trkpt lat="43.24659" lon="5.94288">
        <ele>526.9296875</ele>
        <time>2018-10-14T09:33:06Z</time>
      </trkpt>
      <trkpt lat="43.24665" lon="5.94295">
        <ele>526.82421875</ele>
        <time>2018-10-14T09:33:08Z</time>
      </trkpt>
      <trkpt lat="43.24669" lon="5.94302">
        <ele>526.875</ele>
        <time>2018-10-14T09:33:10Z</time>
      </trkpt>
      <trkpt lat="43.24678" lon="5.94309">
        <ele>528.33984375</ele>
        <time>2018-10-14T09:33:13Z</time>
      </trkpt>
      <trkpt lat="43.24682" lon="5.94309">
        <ele>528.48046875</ele>
        <time>2018-10-14T09:33:14Z</time>
      </trkpt>
      <trkpt lat="43.24686" lon="5.94307">
        <ele>528.4375</ele>
        <time>2018-10-14T09:33:15Z</time>
      </trkpt>
      <trkpt lat="43.2469" lon="5.94304">
        <ele>528.2734375</ele>
        <time>2018-10-14T09:33:16Z</time>
      </trkpt>
      <trkpt lat="43.24693" lon="5.943">
        <ele>528.06640625</ele>
        <time>2018-10-14T09:33:17Z</time>
      </trkpt>
      <trkpt lat="43.24696" lon="5.94295">
        <ele>527.5234375</ele>
        <time>2018-10-14T09:33:19Z</time>
      </trkpt>
      <trkpt lat="43.24696" lon="5.94292">
        <ele>527.11328125</ele>
        <time>2018-10-14T09:33:20Z</time>
      </trkpt>
      <trkpt lat="43.24694" lon="5.94272">
        <ele>524.31640625</ele>
        <time>2018-10-14T09:33:25Z</time>
      </trkpt>
      <trkpt lat="43.24694" lon="5.94268">
        <ele>523.890625</ele>
        <time>2018-10-14T09:33:26Z</time>
      </trkpt>
      <trkpt lat="43.24693" lon="5.94256">
        <ele>522.40234375</ele>
        <time>2018-10-14T09:33:29Z</time>
      </trkpt>
      <trkpt lat="43.24689" lon="5.9423">
        <ele>518.83984375</ele>
        <time>2018-10-14T09:33:34Z</time>
      </trkpt>
      <trkpt lat="43.24686" lon="5.94211">
        <ele>516.03515625</ele>
        <time>2018-10-14T09:33:38Z</time>
      </trkpt>
      <trkpt lat="43.24685" lon="5.94207">
        <ele>515.51953125</ele>
        <time>2018-10-14T09:33:39Z</time>
      </trkpt>
      <trkpt lat="43.24684" lon="5.94204">
        <ele>515.04296875</ele>
        <time>2018-10-14T09:33:40Z</time>
      </trkpt>
      <trkpt lat="43.24683" lon="5.94201">
        <ele>514.4765625</ele>
        <time>2018-10-14T09:33:41Z</time>
      </trkpt>
      <trkpt lat="43.24682" lon="5.94196">
        <ele>513.85546875</ele>
        <time>2018-10-14T09:33:42Z</time>
      </trkpt>
      <trkpt lat="43.24681" lon="5.94194">
        <ele>513.39453125</ele>
        <time>2018-10-14T09:33:43Z</time>
      </trkpt>
      <trkpt lat="43.2468" lon="5.94191">
        <ele>512.84765625</ele>
        <time>2018-10-14T09:33:44Z</time>
      </trkpt>
      <trkpt lat="43.24679" lon="5.94188">
        <ele>512.32421875</ele>
        <time>2018-10-14T09:33:45Z</time>
      </trkpt>
      <trkpt lat="43.24679" lon="5.94185">
        <ele>511.77734375</ele>
        <time>2018-10-14T09:33:46Z</time>
      </trkpt>
      <trkpt lat="43.24678" lon="5.94181">
        <ele>511.078125</ele>
        <time>2018-10-14T09:33:47Z</time>
      </trkpt>
      <trkpt lat="43.24676" lon="5.94176">
        <ele>510.2421875</ele>
        <time>2018-10-14T09:33:48Z</time>
      </trkpt>
      <trkpt lat="43.24675" lon="5.94172">
        <ele>509.43359375</ele>
        <time>2018-10-14T09:33:49Z</time>
      </trkpt>
      <trkpt lat="43.24674" lon="5.9417">
        <ele>509.01953125</ele>
        <time>2018-10-14T09:33:50Z</time>
      </trkpt>
      <trkpt lat="43.24673" lon="5.94163">
        <ele>507.703125</ele>
        <time>2018-10-14T09:33:51Z</time>
      </trkpt>
      <trkpt lat="43.24669" lon="5.94141">
        <ele>503.82421875</ele>
        <time>2018-10-14T09:33:55Z</time>
      </trkpt>
      <trkpt lat="43.24666" lon="5.94119">
        <ele>500.4453125</ele>
        <time>2018-10-14T09:33:59Z</time>
      </trkpt>
      <trkpt lat="43.24667" lon="5.94118">
        <ele>499.89453125</ele>
        <time>2018-10-14T09:34:00Z</time>
      </trkpt>
      <trkpt lat="43.24669" lon="5.94118">
        <ele>499.65625</ele>
        <time>2018-10-14T09:34:01Z</time>
      </trkpt>
      <trkpt lat="43.24671" lon="5.94121">
        <ele>499.92578125</ele>
        <time>2018-10-14T09:34:02Z</time>
      </trkpt>
      <trkpt lat="43.24672" lon="5.94124">
        <ele>500.68359375</ele>
        <time>2018-10-14T09:34:03Z</time>
      </trkpt>
      <trkpt lat="43.24674" lon="5.94127">
        <ele>501.58203125</ele>
        <time>2018-10-14T09:34:04Z</time>
      </trkpt>
      <trkpt lat="43.24676" lon="5.94131">
        <ele>502.546875</ele>
        <time>2018-10-14T09:34:05Z</time>
      </trkpt>
      <trkpt lat="43.24678" lon="5.94134">
        <ele>503.30859375</ele>
        <time>2018-10-14T09:34:06Z</time>
      </trkpt>
      <trkpt lat="43.2468" lon="5.94135">
        <ele>503.828125</ele>
        <time>2018-10-14T09:34:07Z</time>
      </trkpt>
      <trkpt lat="43.24683" lon="5.94135">
        <ele>504.15625</ele>
        <time>2018-10-14T09:34:08Z</time>
      </trkpt>
      <trkpt lat="43.24684" lon="5.94134">
        <ele>504.28515625</ele>
        <time>2018-10-14T09:34:09Z</time>
      </trkpt>
      <trkpt lat="43.24685" lon="5.94132">
        <ele>504.1015625</ele>
        <time>2018-10-14T09:34:24Z</time>
      </trkpt>
      <trkpt lat="43.24686" lon="5.9413">
        <ele>503.87109375</ele>
        <time>2018-10-14T09:34:53Z</time>
      </trkpt>
      <trkpt lat="43.24681" lon="5.94128">
        <ele>502.86328125</ele>
        <time>2018-10-14T09:35:21Z</time>
      </trkpt>
      <trkpt lat="43.24679" lon="5.94131">
        <ele>503.0546875</ele>
        <time>2018-10-14T09:35:37Z</time>
      </trkpt>
      <trkpt lat="43.24676" lon="5.94129">
        <ele>502.140625</ele>
        <time>2018-10-14T09:36:07Z</time>
      </trkpt>
      <trkpt lat="43.24676" lon="5.94128">
        <ele>502.0625</ele>
        <time>2018-10-14T09:36:27Z</time>
      </trkpt>
      <trkpt lat="43.24674" lon="5.94126">
        <ele>501.41015625</ele>
        <time>2018-10-14T09:36:49Z</time>
      </trkpt>
      <trkpt lat="43.24674" lon="5.94123">
        <ele>500.82421875</ele>
        <time>2018-10-14T09:36:51Z</time>
      </trkpt>
      <trkpt lat="43.24674" lon="5.9412">
        <ele>500.33203125</ele>
        <time>2018-10-14T09:36:52Z</time>
      </trkpt>
      <trkpt lat="43.24674" lon="5.94116">
        <ele>499.78515625</ele>
        <time>2018-10-14T09:36:53Z</time>
      </trkpt>
      <trkpt lat="43.24675" lon="5.94112">
        <ele>499.16796875</ele>
        <time>2018-10-14T09:36:54Z</time>
      </trkpt>
      <trkpt lat="43.24675" lon="5.94107">
        <ele>498.54296875</ele>
        <time>2018-10-14T09:36:55Z</time>
      </trkpt>
      <trkpt lat="43.24675" lon="5.94102">
        <ele>498.00390625</ele>
        <time>2018-10-14T09:36:56Z</time>
      </trkpt>
      <trkpt lat="43.24674" lon="5.9409">
        <ele>496.69921875</ele>
        <time>2018-10-14T09:36:58Z</time>
      </trkpt>
      <trkpt lat="43.24673" lon="5.94075">
        <ele>495.2265625</ele>
        <time>2018-10-14T09:37:00Z</time>
      </trkpt>
      <trkpt lat="43.24673" lon="5.94068">
        <ele>494.49609375</ele>
        <time>2018-10-14T09:37:01Z</time>
      </trkpt>
      <trkpt lat="43.24671" lon="5.94062">
        <ele>493.7109375</ele>
        <time>2018-10-14T09:37:02Z</time>
      </trkpt>
      <trkpt lat="43.2467" lon="5.94057">
        <ele>493.203125</ele>
        <time>2018-10-14T09:37:03Z</time>
      </trkpt>
      <trkpt lat="43.24667" lon="5.94053">
        <ele>493.0859375</ele>
        <time>2018-10-14T09:37:04Z</time>
      </trkpt>
      <trkpt lat="43.24665" lon="5.94051">
        <ele>493.0859375</ele>
        <time>2018-10-14T09:37:05Z</time>
      </trkpt>
      <trkpt lat="43.24661" lon="5.94049">
        <ele>493.046875</ele>
        <time>2018-10-14T09:37:06Z</time>
      </trkpt>
      <trkpt lat="43.24657" lon="5.94047">
        <ele>492.9140625</ele>
        <time>2018-10-14T09:37:07Z</time>
      </trkpt>
      <trkpt lat="43.24631" lon="5.94022">
        <ele>489.48046875</ele>
        <time>2018-10-14T09:37:16Z</time>
      </trkpt>
      <trkpt lat="43.24636" lon="5.94023">
        <ele>489.703125</ele>
        <time>2018-10-14T09:37:26Z</time>
      </trkpt>
      <trkpt lat="43.24638" lon="5.94024">
        <ele>489.7734375</ele>
        <time>2018-10-14T09:37:27Z</time>
      </trkpt>
      <trkpt lat="43.2464" lon="5.94024">
        <ele>489.8515625</ele>
        <time>2018-10-14T09:37:28Z</time>
      </trkpt>
      <trkpt lat="43.24643" lon="5.94024">
        <ele>489.91796875</ele>
        <time>2018-10-14T09:37:29Z</time>
      </trkpt>
      <trkpt lat="43.24646" lon="5.94025">
        <ele>490.265625</ele>
        <time>2018-10-14T09:37:30Z</time>
      </trkpt>
      <trkpt lat="43.24648" lon="5.94025">
        <ele>490.59375</ele>
        <time>2018-10-14T09:37:31Z</time>
      </trkpt>
      <trkpt lat="43.24666" lon="5.94028">
        <ele>492.4765625</ele>
        <time>2018-10-14T09:37:39Z</time>
      </trkpt>
      <trkpt lat="43.24669" lon="5.94029">
        <ele>492.86328125</ele>
        <time>2018-10-14T09:37:51Z</time>
      </trkpt>
      <trkpt lat="43.24669" lon="5.94028">
        <ele>492.8515625</ele>
        <time>2018-10-14T09:37:56Z</time>
      </trkpt>
      <trkpt lat="43.24668" lon="5.94027">
        <ele>492.6953125</ele>
        <time>2018-10-14T09:37:57Z</time>
      </trkpt>
      <trkpt lat="43.24666" lon="5.94026">
        <ele>492.53515625</ele>
        <time>2018-10-14T09:37:58Z</time>
      </trkpt>
      <trkpt lat="43.24664" lon="5.94026">
        <ele>492.3984375</ele>
        <time>2018-10-14T09:37:59Z</time>
      </trkpt>
      <trkpt lat="43.24657" lon="5.94024">
        <ele>491.703125</ele>
        <time>2018-10-14T09:38:07Z</time>
      </trkpt>
      <trkpt lat="43.24656" lon="5.94024">
        <ele>491.515625</ele>
        <time>2018-10-14T09:38:08Z</time>
      </trkpt>
      <trkpt lat="43.24654" lon="5.94025">
        <ele>491.27734375</ele>
        <time>2018-10-14T09:38:09Z</time>
      </trkpt>
      <trkpt lat="43.24649" lon="5.94025">
        <ele>490.71484375</ele>
        <time>2018-10-14T09:38:20Z</time>
      </trkpt>
      <trkpt lat="43.24627" lon="5.94017">
        <ele>488.63671875</ele>
        <time>2018-10-14T09:38:30Z</time>
      </trkpt>
      <trkpt lat="43.24605" lon="5.93993">
        <ele>483.01171875</ele>
        <time>2018-10-14T09:38:39Z</time>
      </trkpt>
      <trkpt lat="43.24605" lon="5.9399">
        <ele>482.39453125</ele>
        <time>2018-10-14T09:38:40Z</time>
      </trkpt>
      <trkpt lat="43.24606" lon="5.93974">
        <ele>479.1640625</ele>
        <time>2018-10-14T09:38:46Z</time>
      </trkpt>
      <trkpt lat="43.24607" lon="5.93955">
        <ele>476.32421875</ele>
        <time>2018-10-14T09:38:56Z</time>
      </trkpt>
      <trkpt lat="43.24609" lon="5.93952">
        <ele>475.98046875</ele>
        <time>2018-10-14T09:39:06Z</time>
      </trkpt>
      <trkpt lat="43.24607" lon="5.93947">
        <ele>475.22265625</ele>
        <time>2018-10-14T09:39:17Z</time>
      </trkpt>
      <trkpt lat="43.24606" lon="5.93944">
        <ele>474.6640625</ele>
        <time>2018-10-14T09:39:19Z</time>
      </trkpt>
      <trkpt lat="43.24607" lon="5.93939">
        <ele>474.1484375</ele>
        <time>2018-10-14T09:39:25Z</time>
      </trkpt>
      <trkpt lat="43.24611" lon="5.93937">
        <ele>474.07421875</ele>
        <time>2018-10-14T09:39:37Z</time>
      </trkpt>
      <trkpt lat="43.24609" lon="5.93933">
        <ele>473.65234375</ele>
        <time>2018-10-14T09:40:01Z</time>
      </trkpt>
      <trkpt lat="43.24608" lon="5.93932">
        <ele>473.48828125</ele>
        <time>2018-10-14T09:40:31Z</time>
      </trkpt>
      <trkpt lat="43.2461" lon="5.93933">
        <ele>473.71484375</ele>
        <time>2018-10-14T09:40:51Z</time>
      </trkpt>
      <trkpt lat="43.24611" lon="5.93929">
        <ele>473.296875</ele>
        <time>2018-10-14T09:41:07Z</time>
      </trkpt>
      <trkpt lat="43.24611" lon="5.93927">
        <ele>473.08203125</ele>
        <time>2018-10-14T09:41:08Z</time>
      </trkpt>
      <trkpt lat="43.24613" lon="5.93919">
        <ele>472.30859375</ele>
        <time>2018-10-14T09:41:11Z</time>
      </trkpt>
      <trkpt lat="43.2462" lon="5.93909">
        <ele>473.76953125</ele>
        <time>2018-10-14T09:41:15Z</time>
      </trkpt>
      <trkpt lat="43.24626" lon="5.93889">
        <ele>474.8203125</ele>
        <time>2018-10-14T09:41:21Z</time>
      </trkpt>
      <trkpt lat="43.24633" lon="5.93865">
        <ele>475.546875</ele>
        <time>2018-10-14T09:41:27Z</time>
      </trkpt>
      <trkpt lat="43.24645" lon="5.93828">
        <ele>475.48046875</ele>
        <time>2018-10-14T09:41:38Z</time>
      </trkpt>
      <trkpt lat="43.2465" lon="5.93775">
        <ele>469.984375</ele>
        <time>2018-10-14T09:41:49Z</time>
      </trkpt>
      <trkpt lat="43.24654" lon="5.93764">
        <ele>469.79296875</ele>
        <time>2018-10-14T09:41:51Z</time>
      </trkpt>
      <trkpt lat="43.24666" lon="5.93717">
        <ele>466.16796875</ele>
        <time>2018-10-14T09:42:00Z</time>
      </trkpt>
      <trkpt lat="43.2467" lon="5.93695">
        <ele>463.2421875</ele>
        <time>2018-10-14T09:42:04Z</time>
      </trkpt>
      <trkpt lat="43.24684" lon="5.93646">
        <ele>460.0078125</ele>
        <time>2018-10-14T09:42:14Z</time>
      </trkpt>
      <trkpt lat="43.24701" lon="5.93606">
        <ele>457</ele>
        <time>2018-10-14T09:42:23Z</time>
      </trkpt>
      <trkpt lat="43.24714" lon="5.93581">
        <ele>455.48046875</ele>
        <time>2018-10-14T09:42:28Z</time>
      </trkpt>
      <trkpt lat="43.24724" lon="5.93559">
        <ele>453.40234375</ele>
        <time>2018-10-14T09:42:32Z</time>
      </trkpt>
      <trkpt lat="43.24745" lon="5.93513">
        <ele>449.2421875</ele>
        <time>2018-10-14T09:42:41Z</time>
      </trkpt>
      <trkpt lat="43.2475" lon="5.93503">
        <ele>447.48046875</ele>
        <time>2018-10-14T09:42:43Z</time>
      </trkpt>
      <trkpt lat="43.24756" lon="5.93487">
        <ele>445.62109375</ele>
        <time>2018-10-14T09:42:46Z</time>
      </trkpt>
      <trkpt lat="43.24775" lon="5.93465">
        <ele>444.97265625</ele>
        <time>2018-10-14T09:42:54Z</time>
      </trkpt>
      <trkpt lat="43.24806" lon="5.93429">
        <ele>442.4765625</ele>
        <time>2018-10-14T09:43:05Z</time>
      </trkpt>
      <trkpt lat="43.24815" lon="5.93413">
        <ele>438.5625</ele>
        <time>2018-10-14T09:43:10Z</time>
      </trkpt>
      <trkpt lat="43.24816" lon="5.93408">
        <ele>437.59765625</ele>
        <time>2018-10-14T09:43:11Z</time>
      </trkpt>
      <trkpt lat="43.24817" lon="5.93405">
        <ele>436.8515625</ele>
        <time>2018-10-14T09:43:12Z</time>
      </trkpt>
      <trkpt lat="43.24818" lon="5.93398">
        <ele>435.453125</ele>
        <time>2018-10-14T09:43:22Z</time>
      </trkpt>
      <trkpt lat="43.24817" lon="5.93394">
        <ele>434.86328125</ele>
        <time>2018-10-14T09:43:47Z</time>
      </trkpt>
      <trkpt lat="43.2482" lon="5.93389">
        <ele>433.4375</ele>
        <time>2018-10-14T09:43:53Z</time>
      </trkpt>
      <trkpt lat="43.24821" lon="5.93386">
        <ele>432.9140625</ele>
        <time>2018-10-14T09:43:54Z</time>
      </trkpt>
      <trkpt lat="43.24831" lon="5.93362">
        <ele>427.72265625</ele>
        <time>2018-10-14T09:44:00Z</time>
      </trkpt>
      <trkpt lat="43.24834" lon="5.93352">
        <ele>426.89453125</ele>
        <time>2018-10-14T09:44:02Z</time>
      </trkpt>
      <trkpt lat="43.24837" lon="5.93347">
        <ele>426.54296875</ele>
        <time>2018-10-14T09:44:03Z</time>
      </trkpt>
      <trkpt lat="43.24839" lon="5.93343">
        <ele>426.19921875</ele>
        <time>2018-10-14T09:44:04Z</time>
      </trkpt>
      <trkpt lat="43.24842" lon="5.93341">
        <ele>425.9296875</ele>
        <time>2018-10-14T09:44:05Z</time>
      </trkpt>
      <trkpt lat="43.24844" lon="5.9334">
        <ele>425.74609375</ele>
        <time>2018-10-14T09:44:06Z</time>
      </trkpt>
      <trkpt lat="43.24845" lon="5.93341">
        <ele>425.62109375</ele>
        <time>2018-10-14T09:44:14Z</time>
      </trkpt>
      <trkpt lat="43.24847" lon="5.93342">
        <ele>425.5</ele>
        <time>2018-10-14T09:44:15Z</time>
      </trkpt>
      <trkpt lat="43.24849" lon="5.93342">
        <ele>425.34765625</ele>
        <time>2018-10-14T09:44:16Z</time>
      </trkpt>
      <trkpt lat="43.2488" lon="5.93353">
        <ele>422.79296875</ele>
        <time>2018-10-14T09:44:25Z</time>
      </trkpt>
      <trkpt lat="43.24883" lon="5.93357">
        <ele>422.6484375</ele>
        <time>2018-10-14T09:44:26Z</time>
      </trkpt>
      <trkpt lat="43.24894" lon="5.93373">
        <ele>423.27734375</ele>
        <time>2018-10-14T09:44:29Z</time>
      </trkpt>
      <trkpt lat="43.24899" lon="5.93377">
        <ele>423.5546875</ele>
        <time>2018-10-14T09:44:30Z</time>
      </trkpt>
      <trkpt lat="43.24904" lon="5.9338">
        <ele>423.6796875</ele>
        <time>2018-10-14T09:44:31Z</time>
      </trkpt>
      <trkpt lat="43.24909" lon="5.93381">
        <ele>423.66015625</ele>
        <time>2018-10-14T09:44:32Z</time>
      </trkpt>
      <trkpt lat="43.24915" lon="5.93382">
        <ele>423.5078125</ele>
        <time>2018-10-14T09:44:33Z</time>
      </trkpt>
      <trkpt lat="43.2492" lon="5.93382">
        <ele>423.34375</ele>
        <time>2018-10-14T09:44:34Z</time>
      </trkpt>
      <trkpt lat="43.24926" lon="5.93383">
        <ele>423.59765625</ele>
        <time>2018-10-14T09:44:35Z</time>
      </trkpt>
      <trkpt lat="43.24932" lon="5.93385">
        <ele>423.9609375</ele>
        <time>2018-10-14T09:44:36Z</time>
      </trkpt>
      <trkpt lat="43.24938" lon="5.93387">
        <ele>424.4765625</ele>
        <time>2018-10-14T09:44:37Z</time>
      </trkpt>
      <trkpt lat="43.24944" lon="5.9339">
        <ele>425.09765625</ele>
        <time>2018-10-14T09:44:38Z</time>
      </trkpt>
      <trkpt lat="43.2495" lon="5.93391">
        <ele>425.734375</ele>
        <time>2018-10-14T09:44:39Z</time>
      </trkpt>
      <trkpt lat="43.24956" lon="5.93391">
        <ele>426.41015625</ele>
        <time>2018-10-14T09:44:40Z</time>
      </trkpt>
      <trkpt lat="43.24962" lon="5.93391">
        <ele>426.91796875</ele>
        <time>2018-10-14T09:44:41Z</time>
      </trkpt>
      <trkpt lat="43.24968" lon="5.93389">
        <ele>427.22265625</ele>
        <time>2018-10-14T09:44:42Z</time>
      </trkpt>
      <trkpt lat="43.24974" lon="5.93385">
        <ele>427.20703125</ele>
        <time>2018-10-14T09:44:43Z</time>
      </trkpt>
      <trkpt lat="43.2498" lon="5.9338">
        <ele>426.6640625</ele>
        <time>2018-10-14T09:44:44Z</time>
      </trkpt>
      <trkpt lat="43.24985" lon="5.93374">
        <ele>425.78515625</ele>
        <time>2018-10-14T09:44:45Z</time>
      </trkpt>
      <trkpt lat="43.2499" lon="5.93368">
        <ele>424.76171875</ele>
        <time>2018-10-14T09:44:46Z</time>
      </trkpt>
      <trkpt lat="43.24994" lon="5.93361">
        <ele>423.66015625</ele>
        <time>2018-10-14T09:44:47Z</time>
      </trkpt>
      <trkpt lat="43.2501" lon="5.9333">
        <ele>419.4296875</ele>
        <time>2018-10-14T09:44:51Z</time>
      </trkpt>
      <trkpt lat="43.25014" lon="5.93323">
        <ele>418.27734375</ele>
        <time>2018-10-14T09:44:52Z</time>
      </trkpt>
      <trkpt lat="43.25031" lon="5.93287">
        <ele>415.34375</ele>
        <time>2018-10-14T09:44:57Z</time>
      </trkpt>
      <trkpt lat="43.25036" lon="5.93282">
        <ele>415.1640625</ele>
        <time>2018-10-14T09:44:58Z</time>
      </trkpt>
      <trkpt lat="43.2504" lon="5.93278">
        <ele>415.01953125</ele>
        <time>2018-10-14T09:44:59Z</time>
      </trkpt>
      <trkpt lat="43.25045" lon="5.93274">
        <ele>414.8828125</ele>
        <time>2018-10-14T09:45:00Z</time>
      </trkpt>
      <trkpt lat="43.2505" lon="5.93271">
        <ele>414.765625</ele>
        <time>2018-10-14T09:45:01Z</time>
      </trkpt>
      <trkpt lat="43.25055" lon="5.93268">
        <ele>414.671875</ele>
        <time>2018-10-14T09:45:02Z</time>
      </trkpt>
      <trkpt lat="43.25061" lon="5.93265">
        <ele>414.5234375</ele>
        <time>2018-10-14T09:45:03Z</time>
      </trkpt>
      <trkpt lat="43.25072" lon="5.93256">
        <ele>413.890625</ele>
        <time>2018-10-14T09:45:05Z</time>
      </trkpt>
      <trkpt lat="43.25111" lon="5.93215">
        <ele>409.05078125</ele>
        <time>2018-10-14T09:45:13Z</time>
      </trkpt>
      <trkpt lat="43.25117" lon="5.93211">
        <ele>408.43359375</ele>
        <time>2018-10-14T09:45:14Z</time>
      </trkpt>
      <trkpt lat="43.25123" lon="5.93209">
        <ele>407.8125</ele>
        <time>2018-10-14T09:45:15Z</time>
      </trkpt>
      <trkpt lat="43.25129" lon="5.93208">
        <ele>407.21875</ele>
        <time>2018-10-14T09:45:16Z</time>
      </trkpt>
      <trkpt lat="43.25135" lon="5.93209">
        <ele>406.640625</ele>
        <time>2018-10-14T09:45:17Z</time>
      </trkpt>
      <trkpt lat="43.25142" lon="5.93211">
        <ele>406.0546875</ele>
        <time>2018-10-14T09:45:18Z</time>
      </trkpt>
      <trkpt lat="43.25148" lon="5.93213">
        <ele>405.71875</ele>
        <time>2018-10-14T09:45:19Z</time>
      </trkpt>
      <trkpt lat="43.25155" lon="5.93213">
        <ele>405.41015625</ele>
        <time>2018-10-14T09:45:20Z</time>
      </trkpt>
      <trkpt lat="43.25162" lon="5.93214">
        <ele>405.1328125</ele>
        <time>2018-10-14T09:45:21Z</time>
      </trkpt>
      <trkpt lat="43.25168" lon="5.93217">
        <ele>404.92578125</ele>
        <time>2018-10-14T09:45:22Z</time>
      </trkpt>
      <trkpt lat="43.25173" lon="5.9322">
        <ele>404.734375</ele>
        <time>2018-10-14T09:45:23Z</time>
      </trkpt>
      <trkpt lat="43.25178" lon="5.93225">
        <ele>404.64453125</ele>
        <time>2018-10-14T09:45:24Z</time>
      </trkpt>
      <trkpt lat="43.25184" lon="5.9323">
        <ele>404.58984375</ele>
        <time>2018-10-14T09:45:25Z</time>
      </trkpt>
      <trkpt lat="43.2519" lon="5.93232">
        <ele>404.30859375</ele>
        <time>2018-10-14T09:45:26Z</time>
      </trkpt>
      <trkpt lat="43.25197" lon="5.93232">
        <ele>403.7890625</ele>
        <time>2018-10-14T09:45:27Z</time>
      </trkpt>
      <trkpt lat="43.25204" lon="5.9323">
        <ele>403.26953125</ele>
        <time>2018-10-14T09:45:28Z</time>
      </trkpt>
      <trkpt lat="43.25211" lon="5.93226">
        <ele>402.734375</ele>
        <time>2018-10-14T09:45:29Z</time>
      </trkpt>
      <trkpt lat="43.25218" lon="5.93221">
        <ele>402.25</ele>
        <time>2018-10-14T09:45:30Z</time>
      </trkpt>
      <trkpt lat="43.25225" lon="5.93215">
        <ele>401.796875</ele>
        <time>2018-10-14T09:45:31Z</time>
      </trkpt>
      <trkpt lat="43.25232" lon="5.9321">
        <ele>401.24609375</ele>
        <time>2018-10-14T09:45:32Z</time>
      </trkpt>
      <trkpt lat="43.25239" lon="5.93206">
        <ele>400.6640625</ele>
        <time>2018-10-14T09:45:33Z</time>
      </trkpt>
      <trkpt lat="43.25247" lon="5.93204">
        <ele>400.109375</ele>
        <time>2018-10-14T09:45:34Z</time>
      </trkpt>
      <trkpt lat="43.25255" lon="5.93203">
        <ele>399.61328125</ele>
        <time>2018-10-14T09:45:35Z</time>
      </trkpt>
      <trkpt lat="43.25263" lon="5.93203">
        <ele>399.3203125</ele>
        <time>2018-10-14T09:45:36Z</time>
      </trkpt>
      <trkpt lat="43.25271" lon="5.93203">
        <ele>398.98828125</ele>
        <time>2018-10-14T09:45:37Z</time>
      </trkpt>
      <trkpt lat="43.25297" lon="5.93198">
        <ele>397.72265625</ele>
        <time>2018-10-14T09:45:40Z</time>
      </trkpt>
      <trkpt lat="43.25306" lon="5.93194">
        <ele>397.11328125</ele>
        <time>2018-10-14T09:45:41Z</time>
      </trkpt>
      <trkpt lat="43.25314" lon="5.93188">
        <ele>396.6328125</ele>
        <time>2018-10-14T09:45:42Z</time>
      </trkpt>
      <trkpt lat="43.25321" lon="5.93183">
        <ele>396.16796875</ele>
        <time>2018-10-14T09:45:43Z</time>
      </trkpt>
      <trkpt lat="43.25329" lon="5.93179">
        <ele>395.73828125</ele>
        <time>2018-10-14T09:45:44Z</time>
      </trkpt>
      <trkpt lat="43.25337" lon="5.93177">
        <ele>395.359375</ele>
        <time>2018-10-14T09:45:45Z</time>
      </trkpt>
      <trkpt lat="43.25346" lon="5.93176">
        <ele>395.03125</ele>
        <time>2018-10-14T09:45:46Z</time>
      </trkpt>
      <trkpt lat="43.25354" lon="5.93177">
        <ele>394.75</ele>
        <time>2018-10-14T09:45:47Z</time>
      </trkpt>
      <trkpt lat="43.25362" lon="5.93178">
        <ele>394.5</ele>
        <time>2018-10-14T09:45:48Z</time>
      </trkpt>
      <trkpt lat="43.25371" lon="5.9318">
        <ele>394.28125</ele>
        <time>2018-10-14T09:45:49Z</time>
      </trkpt>
      <trkpt lat="43.25379" lon="5.93183">
        <ele>394.09375</ele>
        <time>2018-10-14T09:45:50Z</time>
      </trkpt>
      <trkpt lat="43.25438" lon="5.9321">
        <ele>393.12890625</ele>
        <time>2018-10-14T09:45:57Z</time>
      </trkpt>
      <trkpt lat="43.25455" lon="5.93213">
        <ele>393.27734375</ele>
        <time>2018-10-14T09:45:59Z</time>
      </trkpt>
      <trkpt lat="43.25463" lon="5.93213">
        <ele>393.16015625</ele>
        <time>2018-10-14T09:46:00Z</time>
      </trkpt>
      <trkpt lat="43.25498" lon="5.93212">
        <ele>391.578125</ele>
        <time>2018-10-14T09:46:05Z</time>
      </trkpt>
      <trkpt lat="43.25502" lon="5.93213">
        <ele>391.4140625</ele>
        <time>2018-10-14T09:46:06Z</time>
      </trkpt>
      <trkpt lat="43.25518" lon="5.93219">
        <ele>391.3359375</ele>
        <time>2018-10-14T09:46:13Z</time>
      </trkpt>
      <trkpt lat="43.25519" lon="5.93221">
        <ele>391.40234375</ele>
        <time>2018-10-14T09:46:14Z</time>
      </trkpt>
      <trkpt lat="43.25522" lon="5.93226">
        <ele>391.9453125</ele>
        <time>2018-10-14T09:46:27Z</time>
      </trkpt>
      <trkpt lat="43.25536" lon="5.93241">
        <ele>393.64453125</ele>
        <time>2018-10-14T09:46:40Z</time>
      </trkpt>
      <trkpt lat="43.25537" lon="5.93244">
        <ele>393.96484375</ele>
        <time>2018-10-14T09:46:41Z</time>
      </trkpt>
      <trkpt lat="43.25538" lon="5.93246">
        <ele>394.22265625</ele>
        <time>2018-10-14T09:46:42Z</time>
      </trkpt>
      <trkpt lat="43.25539" lon="5.93248">
        <ele>394.453125</ele>
        <time>2018-10-14T09:46:43Z</time>
      </trkpt>
      <trkpt lat="43.2554" lon="5.93249">
        <ele>394.64453125</ele>
        <time>2018-10-14T09:46:44Z</time>
      </trkpt>
      <trkpt lat="43.25541" lon="5.93251">
        <ele>394.7890625</ele>
        <time>2018-10-14T09:46:45Z</time>
      </trkpt>
      <trkpt lat="43.25542" lon="5.93252">
        <ele>395.01171875</ele>
        <time>2018-10-14T09:46:46Z</time>
      </trkpt>
      <trkpt lat="43.25543" lon="5.93255">
        <ele>395.28515625</ele>
        <time>2018-10-14T09:46:47Z</time>
      </trkpt>
      <trkpt lat="43.25545" lon="5.93256">
        <ele>395.4921875</ele>
        <time>2018-10-14T09:46:48Z</time>
      </trkpt>
      <trkpt lat="43.25546" lon="5.93258">
        <ele>395.69921875</ele>
        <time>2018-10-14T09:46:49Z</time>
      </trkpt>
      <trkpt lat="43.25547" lon="5.9326">
        <ele>395.9140625</ele>
        <time>2018-10-14T09:46:50Z</time>
      </trkpt>
      <trkpt lat="43.25549" lon="5.93262">
        <ele>396.05859375</ele>
        <time>2018-10-14T09:46:51Z</time>
      </trkpt>
      <trkpt lat="43.25551" lon="5.93264">
        <ele>396.12890625</ele>
        <time>2018-10-14T09:46:52Z</time>
      </trkpt>
      <trkpt lat="43.25553" lon="5.93265">
        <ele>396.15625</ele>
        <time>2018-10-14T09:46:53Z</time>
      </trkpt>
      <trkpt lat="43.25554" lon="5.93266">
        <ele>396.13671875</ele>
        <time>2018-10-14T09:46:54Z</time>
      </trkpt>
      <trkpt lat="43.25556" lon="5.93266">
        <ele>396.07421875</ele>
        <time>2018-10-14T09:46:55Z</time>
      </trkpt>
      <trkpt lat="43.25557" lon="5.93267">
        <ele>396.02734375</ele>
        <time>2018-10-14T09:46:56Z</time>
      </trkpt>
      <trkpt lat="43.25559" lon="5.93268">
        <ele>396.00390625</ele>
        <time>2018-10-14T09:46:57Z</time>
      </trkpt>
      <trkpt lat="43.2556" lon="5.93269">
        <ele>396.04296875</ele>
        <time>2018-10-14T09:46:58Z</time>
      </trkpt>
      <trkpt lat="43.25561" lon="5.93269">
        <ele>396.09375</ele>
        <time>2018-10-14T09:46:59Z</time>
      </trkpt>
      <trkpt lat="43.25581" lon="5.93282">
        <ele>397.609375</ele>
        <time>2018-10-14T09:47:12Z</time>
      </trkpt>
      <trkpt lat="43.25583" lon="5.93285">
        <ele>397.9140625</ele>
        <time>2018-10-14T09:47:14Z</time>
      </trkpt>
      <trkpt lat="43.25585" lon="5.93286">
        <ele>398</ele>
        <time>2018-10-14T09:47:15Z</time>
      </trkpt>
      <trkpt lat="43.25587" lon="5.93287">
        <ele>398.07421875</ele>
        <time>2018-10-14T09:47:16Z</time>
      </trkpt>
      <trkpt lat="43.25589" lon="5.93288">
        <ele>398.13671875</ele>
        <time>2018-10-14T09:47:17Z</time>
      </trkpt>
      <trkpt lat="43.25591" lon="5.9329">
        <ele>398.25390625</ele>
        <time>2018-10-14T09:47:18Z</time>
      </trkpt>
      <trkpt lat="43.25593" lon="5.93291">
        <ele>398.390625</ele>
        <time>2018-10-14T09:47:19Z</time>
      </trkpt>
      <trkpt lat="43.25594" lon="5.93293">
        <ele>398.4921875</ele>
        <time>2018-10-14T09:47:20Z</time>
      </trkpt>
      <trkpt lat="43.25596" lon="5.93293">
        <ele>398.51953125</ele>
        <time>2018-10-14T09:47:21Z</time>
      </trkpt>
      <trkpt lat="43.25598" lon="5.93294">
        <ele>398.5546875</ele>
        <time>2018-10-14T09:47:22Z</time>
      </trkpt>
      <trkpt lat="43.256" lon="5.93295">
        <ele>398.5859375</ele>
        <time>2018-10-14T09:47:23Z</time>
      </trkpt>
      <trkpt lat="43.25602" lon="5.93296">
        <ele>398.59375</ele>
        <time>2018-10-14T09:47:24Z</time>
      </trkpt>
      <trkpt lat="43.25604" lon="5.93296">
        <ele>398.58203125</ele>
        <time>2018-10-14T09:47:25Z</time>
      </trkpt>
      <trkpt lat="43.25606" lon="5.93297">
        <ele>398.59375</ele>
        <time>2018-10-14T09:47:26Z</time>
      </trkpt>
      <trkpt lat="43.25608" lon="5.93298">
        <ele>398.61328125</ele>
        <time>2018-10-14T09:47:27Z</time>
      </trkpt>
      <trkpt lat="43.25619" lon="5.93301">
        <ele>398.8671875</ele>
        <time>2018-10-14T09:47:33Z</time>
      </trkpt>
      <trkpt lat="43.25621" lon="5.93301">
        <ele>398.875</ele>
        <time>2018-10-14T09:47:34Z</time>
      </trkpt>
      <trkpt lat="43.25623" lon="5.933">
        <ele>398.91015625</ele>
        <time>2018-10-14T09:47:35Z</time>
      </trkpt>
      <trkpt lat="43.25647" lon="5.9331">
        <ele>400.68359375</ele>
        <time>2018-10-14T09:47:50Z</time>
      </trkpt>
      <trkpt lat="43.2565" lon="5.9331">
        <ele>400.7109375</ele>
        <time>2018-10-14T09:48:08Z</time>
      </trkpt>
      <trkpt lat="43.25651" lon="5.93305">
        <ele>399.9921875</ele>
        <time>2018-10-14T09:48:14Z</time>
      </trkpt>
      <trkpt lat="43.25649" lon="5.93295">
        <ele>398.8671875</ele>
        <time>2018-10-14T09:48:25Z</time>
      </trkpt>
      <trkpt lat="43.25647" lon="5.93292">
        <ele>398.5859375</ele>
        <time>2018-10-14T09:48:26Z</time>
      </trkpt>
      <trkpt lat="43.25647" lon="5.93283">
        <ele>397.5625</ele>
        <time>2018-10-14T09:48:29Z</time>
      </trkpt>
      <trkpt lat="43.25652" lon="5.93278">
        <ele>397.015625</ele>
        <time>2018-10-14T09:48:31Z</time>
      </trkpt>
      <trkpt lat="43.25655" lon="5.93277">
        <ele>396.98828125</ele>
        <time>2018-10-14T09:48:32Z</time>
      </trkpt>
      <trkpt lat="43.25691" lon="5.93284">
        <ele>397.69140625</ele>
        <time>2018-10-14T09:48:47Z</time>
      </trkpt>
      <trkpt lat="43.25729" lon="5.93286">
        <ele>397.85546875</ele>
        <time>2018-10-14T09:49:02Z</time>
      </trkpt>
      <trkpt lat="43.25761" lon="5.93305">
        <ele>398.97265625</ele>
        <time>2018-10-14T09:49:16Z</time>
      </trkpt>
      <trkpt lat="43.25794" lon="5.93337">
        <ele>401.390625</ele>
        <time>2018-10-14T09:49:31Z</time>
      </trkpt>
      <trkpt lat="43.25822" lon="5.93349">
        <ele>400.20703125</ele>
        <time>2018-10-14T09:49:42Z</time>
      </trkpt>
      <trkpt lat="43.2585" lon="5.93379">
        <ele>399.1953125</ele>
        <time>2018-10-14T09:49:54Z</time>
      </trkpt>
      <trkpt lat="43.25852" lon="5.93448">
        <ele>403.72265625</ele>
        <time>2018-10-14T09:50:09Z</time>
      </trkpt>
      <trkpt lat="43.25861" lon="5.93485">
        <ele>405.890625</ele>
        <time>2018-10-14T09:50:20Z</time>
      </trkpt>
      <trkpt lat="43.25891" lon="5.93501">
        <ele>403.2734375</ele>
        <time>2018-10-14T09:50:31Z</time>
      </trkpt>
      <trkpt lat="43.25908" lon="5.93557">
        <ele>410.13671875</ele>
        <time>2018-10-14T09:50:47Z</time>
      </trkpt>
      <trkpt lat="43.2593" lon="5.93592">
        <ele>421.16015625</ele>
        <time>2018-10-14T09:51:00Z</time>
      </trkpt>
      <trkpt lat="43.25956" lon="5.93584">
        <ele>421.7578125</ele>
        <time>2018-10-14T09:51:13Z</time>
      </trkpt>
      <trkpt lat="43.25958" lon="5.93583">
        <ele>421.66015625</ele>
        <time>2018-10-14T09:51:26Z</time>
      </trkpt>
      <trkpt lat="43.25961" lon="5.93582">
        <ele>421.69140625</ele>
        <time>2018-10-14T09:51:39Z</time>
      </trkpt>
      <trkpt lat="43.25962" lon="5.93579">
        <ele>420.9453125</ele>
        <time>2018-10-14T09:51:41Z</time>
      </trkpt>
      <trkpt lat="43.25965" lon="5.93577">
        <ele>420.69921875</ele>
        <time>2018-10-14T09:51:55Z</time>
      </trkpt>
      <trkpt lat="43.25963" lon="5.93579">
        <ele>421.0859375</ele>
        <time>2018-10-14T09:52:15Z</time>
      </trkpt>
      <trkpt lat="43.25962" lon="5.9358">
        <ele>421.2890625</ele>
        <time>2018-10-14T09:52:37Z</time>
      </trkpt>
      <trkpt lat="43.25962" lon="5.93579">
        <ele>420.93359375</ele>
        <time>2018-10-14T09:53:00Z</time>
      </trkpt>
      <trkpt lat="43.25964" lon="5.9358">
        <ele>421.39453125</ele>
        <time>2018-10-14T09:53:20Z</time>
      </trkpt>
      <trkpt lat="43.25962" lon="5.93581">
        <ele>421.640625</ele>
        <time>2018-10-14T09:53:43Z</time>
      </trkpt>
      <trkpt lat="43.25964" lon="5.9358">
        <ele>421.4765625</ele>
        <time>2018-10-14T09:54:08Z</time>
      </trkpt>
      <trkpt lat="43.25965" lon="5.93579">
        <ele>421.30859375</ele>
        <time>2018-10-14T09:54:15Z</time>
      </trkpt>
      <trkpt lat="43.25964" lon="5.93579">
        <ele>421.17578125</ele>
        <time>2018-10-14T09:54:44Z</time>
      </trkpt>
      <trkpt lat="43.25974" lon="5.93568">
        <ele>418.796875</ele>
        <time>2018-10-14T09:55:00Z</time>
      </trkpt>
      <trkpt lat="43.26009" lon="5.93545">
        <ele>411.171875</ele>
        <time>2018-10-14T09:55:11Z</time>
      </trkpt>
      <trkpt lat="43.26013" lon="5.93546">
        <ele>411.0546875</ele>
        <time>2018-10-14T09:55:12Z</time>
      </trkpt>
      <trkpt lat="43.26017" lon="5.93548">
        <ele>411.09765625</ele>
        <time>2018-10-14T09:55:13Z</time>
      </trkpt>
      <trkpt lat="43.26021" lon="5.9355">
        <ele>411.15625</ele>
        <time>2018-10-14T09:55:14Z</time>
      </trkpt>
      <trkpt lat="43.26025" lon="5.93552">
        <ele>411.07421875</ele>
        <time>2018-10-14T09:55:15Z</time>
      </trkpt>
      <trkpt lat="43.26043" lon="5.93559">
        <ele>409.61328125</ele>
        <time>2018-10-14T09:55:19Z</time>
      </trkpt>
      <trkpt lat="43.26047" lon="5.93561">
        <ele>409.4140625</ele>
        <time>2018-10-14T09:55:20Z</time>
      </trkpt>
      <trkpt lat="43.2605" lon="5.93563">
        <ele>409.3984375</ele>
        <time>2018-10-14T09:55:21Z</time>
      </trkpt>
      <trkpt lat="43.26053" lon="5.93565">
        <ele>409.046875</ele>
        <time>2018-10-14T09:55:22Z</time>
      </trkpt>
      <trkpt lat="43.26056" lon="5.93566">
        <ele>408.89453125</ele>
        <time>2018-10-14T09:55:23Z</time>
      </trkpt>
      <trkpt lat="43.26057" lon="5.93568">
        <ele>408.88671875</ele>
        <time>2018-10-14T09:55:24Z</time>
      </trkpt>
      <trkpt lat="43.2606" lon="5.93571">
        <ele>409.07421875</ele>
        <time>2018-10-14T09:55:35Z</time>
      </trkpt>
      <trkpt lat="43.26066" lon="5.9357">
        <ele>407.49609375</ele>
        <time>2018-10-14T09:55:47Z</time>
      </trkpt>
      <trkpt lat="43.26068" lon="5.93571">
        <ele>407.3671875</ele>
        <time>2018-10-14T09:55:48Z</time>
      </trkpt>
      <trkpt lat="43.2607" lon="5.93571">
        <ele>406.97265625</ele>
        <time>2018-10-14T09:55:49Z</time>
      </trkpt>
      <trkpt lat="43.26072" lon="5.93572">
        <ele>406.5546875</ele>
        <time>2018-10-14T09:55:50Z</time>
      </trkpt>
      <trkpt lat="43.26074" lon="5.93573">
        <ele>406.21484375</ele>
        <time>2018-10-14T09:55:51Z</time>
      </trkpt>
      <trkpt lat="43.26077" lon="5.93573">
        <ele>405.5703125</ele>
        <time>2018-10-14T09:55:52Z</time>
      </trkpt>
      <trkpt lat="43.2608" lon="5.93573">
        <ele>404.6875</ele>
        <time>2018-10-14T09:55:53Z</time>
      </trkpt>
      <trkpt lat="43.26084" lon="5.93573">
        <ele>403.875</ele>
        <time>2018-10-14T09:55:54Z</time>
      </trkpt>
      <trkpt lat="43.26088" lon="5.93574">
        <ele>403.234375</ele>
        <time>2018-10-14T09:55:55Z</time>
      </trkpt>
      <trkpt lat="43.26092" lon="5.93576">
        <ele>402.7578125</ele>
        <time>2018-10-14T09:55:56Z</time>
      </trkpt>
      <trkpt lat="43.26096" lon="5.93579">
        <ele>402.51953125</ele>
        <time>2018-10-14T09:55:57Z</time>
      </trkpt>
      <trkpt lat="43.261" lon="5.93582">
        <ele>402.36328125</ele>
        <time>2018-10-14T09:55:58Z</time>
      </trkpt>
      <trkpt lat="43.26104" lon="5.93586">
        <ele>402.59375</ele>
        <time>2018-10-14T09:55:59Z</time>
      </trkpt>
      <trkpt lat="43.26107" lon="5.93591">
        <ele>402.86328125</ele>
        <time>2018-10-14T09:56:00Z</time>
      </trkpt>
      <trkpt lat="43.26129" lon="5.93613">
        <ele>403.546875</ele>
        <time>2018-10-14T09:56:06Z</time>
      </trkpt>
      <trkpt lat="43.26133" lon="5.93618">
        <ele>403.8515625</ele>
        <time>2018-10-14T09:56:07Z</time>
      </trkpt>
      <trkpt lat="43.26175" lon="5.93652">
        <ele>403.19921875</ele>
        <time>2018-10-14T09:56:19Z</time>
      </trkpt>
      <trkpt lat="43.262" lon="5.93686">
        <ele>406.27734375</ele>
        <time>2018-10-14T09:56:33Z</time>
      </trkpt>
      <trkpt lat="43.26217" lon="5.93719">
        <ele>409.515625</ele>
        <time>2018-10-14T09:56:47Z</time>
      </trkpt>
      <trkpt lat="43.26223" lon="5.93732">
        <ele>410.390625</ele>
        <time>2018-10-14T09:56:53Z</time>
      </trkpt>
      <trkpt lat="43.26224" lon="5.93733">
        <ele>410.45703125</ele>
        <time>2018-10-14T09:56:54Z</time>
      </trkpt>
      <trkpt lat="43.26224" lon="5.93735">
        <ele>410.5546875</ele>
        <time>2018-10-14T09:56:55Z</time>
      </trkpt>
      <trkpt lat="43.26225" lon="5.93737">
        <ele>410.6328125</ele>
        <time>2018-10-14T09:56:56Z</time>
      </trkpt>
      <trkpt lat="43.26226" lon="5.93738">
        <ele>410.7734375</ele>
        <time>2018-10-14T09:56:57Z</time>
      </trkpt>
      <trkpt lat="43.26227" lon="5.9374">
        <ele>410.88671875</ele>
        <time>2018-10-14T09:56:58Z</time>
      </trkpt>
      <trkpt lat="43.26229" lon="5.93741">
        <ele>410.9765625</ele>
        <time>2018-10-14T09:56:59Z</time>
      </trkpt>
      <trkpt lat="43.2623" lon="5.93743">
        <ele>411.09765625</ele>
        <time>2018-10-14T09:57:00Z</time>
      </trkpt>
      <trkpt lat="43.2625" lon="5.93763">
        <ele>412.1640625</ele>
        <time>2018-10-14T09:57:16Z</time>
      </trkpt>
      <trkpt lat="43.26262" lon="5.93773">
        <ele>411.49609375</ele>
        <time>2018-10-14T09:57:26Z</time>
      </trkpt>
      <trkpt lat="43.26263" lon="5.93773">
        <ele>411.359375</ele>
        <time>2018-10-14T09:57:27Z</time>
      </trkpt>
      <trkpt lat="43.26277" lon="5.93779">
        <ele>409.56640625</ele>
        <time>2018-10-14T09:57:39Z</time>
      </trkpt>
      <trkpt lat="43.26278" lon="5.9378">
        <ele>409.40234375</ele>
        <time>2018-10-14T09:57:40Z</time>
      </trkpt>
      <trkpt lat="43.26279" lon="5.93781">
        <ele>409.23046875</ele>
        <time>2018-10-14T09:57:41Z</time>
      </trkpt>
      <trkpt lat="43.2628" lon="5.93781">
        <ele>409.0546875</ele>
        <time>2018-10-14T09:57:42Z</time>
      </trkpt>
      <trkpt lat="43.26282" lon="5.93782">
        <ele>408.80859375</ele>
        <time>2018-10-14T09:57:43Z</time>
      </trkpt>
      <trkpt lat="43.26283" lon="5.93783">
        <ele>408.49609375</ele>
        <time>2018-10-14T09:57:45Z</time>
      </trkpt>
      <trkpt lat="43.26284" lon="5.93784">
        <ele>408.35546875</ele>
        <time>2018-10-14T09:57:46Z</time>
      </trkpt>
      <trkpt lat="43.26285" lon="5.93785">
        <ele>408.171875</ele>
        <time>2018-10-14T09:57:47Z</time>
      </trkpt>
      <trkpt lat="43.26286" lon="5.93786">
        <ele>407.98828125</ele>
        <time>2018-10-14T09:57:48Z</time>
      </trkpt>
      <trkpt lat="43.26287" lon="5.93787">
        <ele>407.80859375</ele>
        <time>2018-10-14T09:57:49Z</time>
      </trkpt>
      <trkpt lat="43.26288" lon="5.93788">
        <ele>407.59765625</ele>
        <time>2018-10-14T09:57:50Z</time>
      </trkpt>
      <trkpt lat="43.26289" lon="5.93789">
        <ele>407.453125</ele>
        <time>2018-10-14T09:57:51Z</time>
      </trkpt>
      <trkpt lat="43.2629" lon="5.93789">
        <ele>407.30078125</ele>
        <time>2018-10-14T09:57:52Z</time>
      </trkpt>
      <trkpt lat="43.26291" lon="5.9379">
        <ele>407.14453125</ele>
        <time>2018-10-14T09:57:53Z</time>
      </trkpt>
      <trkpt lat="43.26292" lon="5.93792">
        <ele>407</ele>
        <time>2018-10-14T09:57:54Z</time>
      </trkpt>
      <trkpt lat="43.26293" lon="5.93793">
        <ele>406.83984375</ele>
        <time>2018-10-14T09:57:55Z</time>
      </trkpt>
      <trkpt lat="43.26293" lon="5.93808">
        <ele>406.65234375</ele>
        <time>2018-10-14T09:58:05Z</time>
      </trkpt>
      <trkpt lat="43.26292" lon="5.93809">
        <ele>406.76171875</ele>
        <time>2018-10-14T09:58:06Z</time>
      </trkpt>
      <trkpt lat="43.26287" lon="5.93815">
        <ele>407.49609375</ele>
        <time>2018-10-14T09:58:13Z</time>
      </trkpt>
      <trkpt lat="43.26286" lon="5.93816">
        <ele>407.671875</ele>
        <time>2018-10-14T09:58:14Z</time>
      </trkpt>
      <trkpt lat="43.26279" lon="5.93813">
        <ele>409.0625</ele>
        <time>2018-10-14T09:58:21Z</time>
      </trkpt>
      <trkpt lat="43.26277" lon="5.93813">
        <ele>409.28515625</ele>
        <time>2018-10-14T09:58:22Z</time>
      </trkpt>
      <trkpt lat="43.26276" lon="5.93813">
        <ele>409.55078125</ele>
        <time>2018-10-14T09:58:23Z</time>
      </trkpt>
      <trkpt lat="43.26274" lon="5.93813">
        <ele>409.828125</ele>
        <time>2018-10-14T09:58:24Z</time>
      </trkpt>
      <trkpt lat="43.26273" lon="5.93812">
        <ele>410.0703125</ele>
        <time>2018-10-14T09:58:25Z</time>
      </trkpt>
      <trkpt lat="43.26249" lon="5.9381">
        <ele>413.71875</ele>
        <time>2018-10-14T09:58:40Z</time>
      </trkpt>
      <trkpt lat="43.26227" lon="5.93816">
        <ele>417.4765625</ele>
        <time>2018-10-14T09:58:56Z</time>
      </trkpt>
      <trkpt lat="43.26218" lon="5.93821">
        <ele>419.546875</ele>
        <time>2018-10-14T09:59:05Z</time>
      </trkpt>
      <trkpt lat="43.26217" lon="5.93823">
        <ele>419.703125</ele>
        <time>2018-10-14T09:59:06Z</time>
      </trkpt>
      <trkpt lat="43.26218" lon="5.93825">
        <ele>419.78125</ele>
        <time>2018-10-14T09:59:07Z</time>
      </trkpt>
      <trkpt lat="43.26218" lon="5.93827">
        <ele>419.87109375</ele>
        <time>2018-10-14T09:59:08Z</time>
      </trkpt>
      <trkpt lat="43.26218" lon="5.93829">
        <ele>419.95703125</ele>
        <time>2018-10-14T09:59:09Z</time>
      </trkpt>
      <trkpt lat="43.26219" lon="5.93831">
        <ele>420.00390625</ele>
        <time>2018-10-14T09:59:10Z</time>
      </trkpt>
      <trkpt lat="43.2622" lon="5.93832">
        <ele>419.97265625</ele>
        <time>2018-10-14T09:59:11Z</time>
      </trkpt>
      <trkpt lat="43.26222" lon="5.9384">
        <ele>419.26171875</ele>
        <time>2018-10-14T09:59:16Z</time>
      </trkpt>
      <trkpt lat="43.26223" lon="5.93841">
        <ele>419.15625</ele>
        <time>2018-10-14T09:59:17Z</time>
      </trkpt>
      <trkpt lat="43.26223" lon="5.93843">
        <ele>419.01953125</ele>
        <time>2018-10-14T09:59:18Z</time>
      </trkpt>
      <trkpt lat="43.26224" lon="5.93844">
        <ele>418.87890625</ele>
        <time>2018-10-14T09:59:19Z</time>
      </trkpt>
      <trkpt lat="43.26224" lon="5.93846">
        <ele>418.70703125</ele>
        <time>2018-10-14T09:59:20Z</time>
      </trkpt>
      <trkpt lat="43.26225" lon="5.93848">
        <ele>418.5546875</ele>
        <time>2018-10-14T09:59:21Z</time>
      </trkpt>
      <trkpt lat="43.26225" lon="5.93857">
        <ele>418.1484375</ele>
        <time>2018-10-14T09:59:35Z</time>
      </trkpt>
      <trkpt lat="43.26225" lon="5.93857">
        <ele>418.203125</ele>
        <time>2018-10-14T10:00:02Z</time>
      </trkpt>
      <trkpt lat="43.26226" lon="5.93861">
        <ele>417.73046875</ele>
        <time>2018-10-14T10:00:24Z</time>
      </trkpt>
      <trkpt lat="43.26226" lon="5.93861">
        <ele>417.7109375</ele>
        <time>2018-10-14T10:00:25Z</time>
      </trkpt>
      <trkpt lat="43.26227" lon="5.9386">
        <ele>417.62109375</ele>
        <time>2018-10-14T10:00:31Z</time>
      </trkpt>
      <trkpt lat="43.26229" lon="5.9386">
        <ele>417.125</ele>
        <time>2018-10-14T10:01:01Z</time>
      </trkpt>
      <trkpt lat="43.26227" lon="5.93858">
        <ele>417.6484375</ele>
        <time>2018-10-14T10:01:27Z</time>
      </trkpt>
      <trkpt lat="43.26227" lon="5.93863">
        <ele>417.48828125</ele>
        <time>2018-10-14T10:01:49Z</time>
      </trkpt>
      <trkpt lat="43.26227" lon="5.93865">
        <ele>417.39453125</ele>
        <time>2018-10-14T10:01:50Z</time>
      </trkpt>
      <trkpt lat="43.26227" lon="5.93867">
        <ele>417.37109375</ele>
        <time>2018-10-14T10:01:51Z</time>
      </trkpt>
      <trkpt lat="43.26227" lon="5.93868">
        <ele>417.23828125</ele>
        <time>2018-10-14T10:01:52Z</time>
      </trkpt>
      <trkpt lat="43.26228" lon="5.9387">
        <ele>417.08984375</ele>
        <time>2018-10-14T10:01:53Z</time>
      </trkpt>
      <trkpt lat="43.26228" lon="5.93872">
        <ele>416.97265625</ele>
        <time>2018-10-14T10:01:54Z</time>
      </trkpt>
      <trkpt lat="43.26228" lon="5.93874">
        <ele>416.8515625</ele>
        <time>2018-10-14T10:01:55Z</time>
      </trkpt>
      <trkpt lat="43.26228" lon="5.93877">
        <ele>416.73828125</ele>
        <time>2018-10-14T10:01:56Z</time>
      </trkpt>
      <trkpt lat="43.26229" lon="5.9388">
        <ele>416.5703125</ele>
        <time>2018-10-14T10:01:57Z</time>
      </trkpt>
      <trkpt lat="43.26235" lon="5.93934">
        <ele>413.4375</ele>
        <time>2018-10-14T10:02:09Z</time>
      </trkpt>
      <trkpt lat="43.26239" lon="5.93958">
        <ele>411.26953125</ele>
        <time>2018-10-14T10:02:15Z</time>
      </trkpt>
      <trkpt lat="43.26222" lon="5.94002">
        <ele>414.921875</ele>
        <time>2018-10-14T10:02:28Z</time>
      </trkpt>
      <trkpt lat="43.26217" lon="5.94024">
        <ele>416.078125</ele>
        <time>2018-10-14T10:02:40Z</time>
      </trkpt>
      <trkpt lat="43.26213" lon="5.94037">
        <ele>416.83984375</ele>
        <time>2018-10-14T10:02:57Z</time>
      </trkpt>
      <trkpt lat="43.26209" lon="5.94047">
        <ele>417.8671875</ele>
        <time>2018-10-14T10:03:10Z</time>
      </trkpt>
      <trkpt lat="43.26199" lon="5.94044">
        <ele>420.49609375</ele>
        <time>2018-10-14T10:03:24Z</time>
      </trkpt>
      <trkpt lat="43.26193" lon="5.94055">
        <ele>422.17578125</ele>
        <time>2018-10-14T10:03:37Z</time>
      </trkpt>
      <trkpt lat="43.26189" lon="5.94067">
        <ele>423.02734375</ele>
        <time>2018-10-14T10:03:51Z</time>
      </trkpt>
      <trkpt lat="43.26188" lon="5.94073">
        <ele>423.046875</ele>
        <time>2018-10-14T10:04:10Z</time>
      </trkpt>
      <trkpt lat="43.26186" lon="5.94085">
        <ele>423.65234375</ele>
        <time>2018-10-14T10:04:18Z</time>
      </trkpt>
      <trkpt lat="43.26184" lon="5.94094">
        <ele>423.98046875</ele>
        <time>2018-10-14T10:04:23Z</time>
      </trkpt>
      <trkpt lat="43.26179" lon="5.9413">
        <ele>424.296875</ele>
        <time>2018-10-14T10:04:39Z</time>
      </trkpt>
      <trkpt lat="43.26167" lon="5.94166">
        <ele>426.64453125</ele>
        <time>2018-10-14T10:04:54Z</time>
      </trkpt>
      <trkpt lat="43.26148" lon="5.94203">
        <ele>430.3515625</ele>
        <time>2018-10-14T10:05:10Z</time>
      </trkpt>
      <trkpt lat="43.26124" lon="5.9424">
        <ele>433.52734375</ele>
        <time>2018-10-14T10:05:27Z</time>
      </trkpt>
      <trkpt lat="43.26106" lon="5.94267">
        <ele>434.9453125</ele>
        <time>2018-10-14T10:05:42Z</time>
      </trkpt>
      <trkpt lat="43.26088" lon="5.94292">
        <ele>435.87890625</ele>
        <time>2018-10-14T10:05:57Z</time>
      </trkpt>
      <trkpt lat="43.2607" lon="5.94315">
        <ele>436.80859375</ele>
        <time>2018-10-14T10:06:12Z</time>
      </trkpt>
      <trkpt lat="43.26047" lon="5.94344">
        <ele>437.41796875</ele>
        <time>2018-10-14T10:06:31Z</time>
      </trkpt>
      <trkpt lat="43.26022" lon="5.94368">
        <ele>437.8984375</ele>
        <time>2018-10-14T10:06:48Z</time>
      </trkpt>
      <trkpt lat="43.25999" lon="5.94397">
        <ele>438.8359375</ele>
        <time>2018-10-14T10:07:02Z</time>
      </trkpt>
      <trkpt lat="43.25983" lon="5.94426">
        <ele>439.48828125</ele>
        <time>2018-10-14T10:07:15Z</time>
      </trkpt>
      <trkpt lat="43.2596" lon="5.94451">
        <ele>441.1171875</ele>
        <time>2018-10-14T10:07:32Z</time>
      </trkpt>
      <trkpt lat="43.25948" lon="5.94476">
        <ele>440.66796875</ele>
        <time>2018-10-14T10:07:46Z</time>
      </trkpt>
      <trkpt lat="43.25942" lon="5.94484">
        <ele>441.0078125</ele>
        <time>2018-10-14T10:07:59Z</time>
      </trkpt>
      <trkpt lat="43.2594" lon="5.94488">
        <ele>440.953125</ele>
        <time>2018-10-14T10:08:25Z</time>
      </trkpt>
      <trkpt lat="43.2594" lon="5.94488">
        <ele>440.984375</ele>
        <time>2018-10-14T10:08:26Z</time>
      </trkpt>
      <trkpt lat="43.2594" lon="5.94488">
        <ele>441.01953125</ele>
        <time>2018-10-14T10:08:27Z</time>
      </trkpt>
      <trkpt lat="43.2594" lon="5.94488">
        <ele>441.0703125</ele>
        <time>2018-10-14T10:08:29Z</time>
      </trkpt>
      <trkpt lat="43.2594" lon="5.9449">
        <ele>440.92578125</ele>
        <time>2018-10-14T10:08:55Z</time>
      </trkpt>
      <trkpt lat="43.25939" lon="5.94489">
        <ele>441.17578125</ele>
        <time>2018-10-14T10:09:16Z</time>
      </trkpt>
      <trkpt lat="43.25938" lon="5.94489">
        <ele>441.2734375</ele>
        <time>2018-10-14T10:09:36Z</time>
      </trkpt>
      <trkpt lat="43.25936" lon="5.94489">
        <ele>441.63671875</ele>
        <time>2018-10-14T10:09:39Z</time>
      </trkpt>
      <trkpt lat="43.25933" lon="5.94491">
        <ele>442.046875</ele>
        <time>2018-10-14T10:09:41Z</time>
      </trkpt>
      <trkpt lat="43.25922" lon="5.94507">
        <ele>443.25</ele>
        <time>2018-10-14T10:09:50Z</time>
      </trkpt>
      <trkpt lat="43.25936" lon="5.94547">
        <ele>439.9140625</ele>
        <time>2018-10-14T10:10:04Z</time>
      </trkpt>
      <trkpt lat="43.25964" lon="5.94592">
        <ele>435.546875</ele>
        <time>2018-10-14T10:10:17Z</time>
      </trkpt>
      <trkpt lat="43.25976" lon="5.94618">
        <ele>431.5859375</ele>
        <time>2018-10-14T10:10:23Z</time>
      </trkpt>
      <trkpt lat="43.25976" lon="5.94628">
        <ele>431.2109375</ele>
        <time>2018-10-14T10:10:25Z</time>
      </trkpt>
      <trkpt lat="43.25974" lon="5.94639">
        <ele>431.2109375</ele>
        <time>2018-10-14T10:10:27Z</time>
      </trkpt>
      <trkpt lat="43.25965" lon="5.94671">
        <ele>429.84765625</ele>
        <time>2018-10-14T10:10:32Z</time>
      </trkpt>
      <trkpt lat="43.25961" lon="5.94685">
        <ele>429.09375</ele>
        <time>2018-10-14T10:10:34Z</time>
      </trkpt>
      <trkpt lat="43.25946" lon="5.94726">
        <ele>424.3046875</ele>
        <time>2018-10-14T10:10:40Z</time>
      </trkpt>
      <trkpt lat="43.25934" lon="5.94745">
        <ele>422.85546875</ele>
        <time>2018-10-14T10:10:43Z</time>
      </trkpt>
      <trkpt lat="43.2593" lon="5.9475">
        <ele>422.5703125</ele>
        <time>2018-10-14T10:10:44Z</time>
      </trkpt>
      <trkpt lat="43.25925" lon="5.94755">
        <ele>422.14453125</ele>
        <time>2018-10-14T10:10:45Z</time>
      </trkpt>
      <trkpt lat="43.2592" lon="5.94761">
        <ele>421.47265625</ele>
        <time>2018-10-14T10:10:46Z</time>
      </trkpt>
      <trkpt lat="43.25916" lon="5.94767">
        <ele>420.7578125</ele>
        <time>2018-10-14T10:10:47Z</time>
      </trkpt>
      <trkpt lat="43.25912" lon="5.94774">
        <ele>419.94921875</ele>
        <time>2018-10-14T10:10:48Z</time>
      </trkpt>
      <trkpt lat="43.25908" lon="5.94782">
        <ele>419.1171875</ele>
        <time>2018-10-14T10:10:49Z</time>
      </trkpt>
      <trkpt lat="43.25863" lon="5.94853">
        <ele>415.6328125</ele>
        <time>2018-10-14T10:11:00Z</time>
      </trkpt>
      <trkpt lat="43.25855" lon="5.9486">
        <ele>416.578125</ele>
        <time>2018-10-14T10:11:02Z</time>
      </trkpt>
      <trkpt lat="43.25842" lon="5.94867">
        <ele>418.87890625</ele>
        <time>2018-10-14T10:11:05Z</time>
      </trkpt>
      <trkpt lat="43.25838" lon="5.94869">
        <ele>419.6640625</ele>
        <time>2018-10-14T10:11:06Z</time>
      </trkpt>
      <trkpt lat="43.25822" lon="5.94873">
        <ele>422.16796875</ele>
        <time>2018-10-14T10:11:10Z</time>
      </trkpt>
      <trkpt lat="43.25818" lon="5.94874">
        <ele>423.0625</ele>
        <time>2018-10-14T10:11:11Z</time>
      </trkpt>
      <trkpt lat="43.25803" lon="5.94877">
        <ele>425.015625</ele>
        <time>2018-10-14T10:11:14Z</time>
      </trkpt>
      <trkpt lat="43.25797" lon="5.94879">
        <ele>425.05859375</ele>
        <time>2018-10-14T10:11:15Z</time>
      </trkpt>
      <trkpt lat="43.25792" lon="5.94883">
        <ele>424.83984375</ele>
        <time>2018-10-14T10:11:16Z</time>
      </trkpt>
      <trkpt lat="43.25787" lon="5.94887">
        <ele>424.3125</ele>
        <time>2018-10-14T10:11:17Z</time>
      </trkpt>
      <trkpt lat="43.25783" lon="5.94893">
        <ele>423.67578125</ele>
        <time>2018-10-14T10:11:18Z</time>
      </trkpt>
      <trkpt lat="43.2578" lon="5.949">
        <ele>422.7890625</ele>
        <time>2018-10-14T10:11:19Z</time>
      </trkpt>
      <trkpt lat="43.25777" lon="5.94907">
        <ele>421.64453125</ele>
        <time>2018-10-14T10:11:20Z</time>
      </trkpt>
      <trkpt lat="43.25763" lon="5.94935">
        <ele>417.5078125</ele>
        <time>2018-10-14T10:11:24Z</time>
      </trkpt>
      <trkpt lat="43.25747" lon="5.94969">
        <ele>414.16796875</ele>
        <time>2018-10-14T10:11:29Z</time>
      </trkpt>
      <trkpt lat="43.25746" lon="5.94974">
        <ele>413.703125</ele>
        <time>2018-10-14T10:11:30Z</time>
      </trkpt>
      <trkpt lat="43.25745" lon="5.94979">
        <ele>413.296875</ele>
        <time>2018-10-14T10:11:31Z</time>
      </trkpt>
      <trkpt lat="43.25744" lon="5.94984">
        <ele>412.94921875</ele>
        <time>2018-10-14T10:11:32Z</time>
      </trkpt>
      <trkpt lat="43.25743" lon="5.94988">
        <ele>412.69921875</ele>
        <time>2018-10-14T10:11:33Z</time>
      </trkpt>
      <trkpt lat="43.25742" lon="5.94991">
        <ele>412.5</ele>
        <time>2018-10-14T10:11:34Z</time>
      </trkpt>
      <trkpt lat="43.25737" lon="5.94998">
        <ele>412.328125</ele>
        <time>2018-10-14T10:11:43Z</time>
      </trkpt>
      <trkpt lat="43.25737" lon="5.94998">
        <ele>412.34375</ele>
        <time>2018-10-14T10:11:44Z</time>
      </trkpt>
      <trkpt lat="43.25737" lon="5.94998">
        <ele>412.3671875</ele>
        <time>2018-10-14T10:11:45Z</time>
      </trkpt>
      <trkpt lat="43.25737" lon="5.94999">
        <ele>412.3984375</ele>
        <time>2018-10-14T10:11:52Z</time>
      </trkpt>
      <trkpt lat="43.25737" lon="5.94999">
        <ele>412.39453125</ele>
        <time>2018-10-14T10:11:53Z</time>
      </trkpt>
      <trkpt lat="43.25737" lon="5.94999">
        <ele>412.3828125</ele>
        <time>2018-10-14T10:11:54Z</time>
      </trkpt>
      <trkpt lat="43.25737" lon="5.94999">
        <ele>412.38671875</ele>
        <time>2018-10-14T10:11:55Z</time>
      </trkpt>
      <trkpt lat="43.25736" lon="5.95">
        <ele>412.39453125</ele>
        <time>2018-10-14T10:11:57Z</time>
      </trkpt>
      <trkpt lat="43.25737" lon="5.95002">
        <ele>412.16796875</ele>
        <time>2018-10-14T10:12:22Z</time>
      </trkpt>
      <trkpt lat="43.25736" lon="5.95004">
        <ele>412.26171875</ele>
        <time>2018-10-14T10:12:28Z</time>
      </trkpt>
      <trkpt lat="43.25734" lon="5.95006">
        <ele>412.39453125</ele>
        <time>2018-10-14T10:12:29Z</time>
      </trkpt>
      <trkpt lat="43.25733" lon="5.95009">
        <ele>412.51171875</ele>
        <time>2018-10-14T10:12:30Z</time>
      </trkpt>
      <trkpt lat="43.2573" lon="5.95012">
        <ele>412.7265625</ele>
        <time>2018-10-14T10:12:31Z</time>
      </trkpt>
      <trkpt lat="43.25728" lon="5.95017">
        <ele>413.00390625</ele>
        <time>2018-10-14T10:12:32Z</time>
      </trkpt>
      <trkpt lat="43.25725" lon="5.95022">
        <ele>413.21484375</ele>
        <time>2018-10-14T10:12:33Z</time>
      </trkpt>
      <trkpt lat="43.25724" lon="5.95027">
        <ele>413.421875</ele>
        <time>2018-10-14T10:12:34Z</time>
      </trkpt>
      <trkpt lat="43.25724" lon="5.95033">
        <ele>413.51953125</ele>
        <time>2018-10-14T10:12:35Z</time>
      </trkpt>
      <trkpt lat="43.25724" lon="5.95039">
        <ele>413.32421875</ele>
        <time>2018-10-14T10:12:36Z</time>
      </trkpt>
      <trkpt lat="43.25726" lon="5.95045">
        <ele>412.97265625</ele>
        <time>2018-10-14T10:12:37Z</time>
      </trkpt>
      <trkpt lat="43.25727" lon="5.95051">
        <ele>412.66796875</ele>
        <time>2018-10-14T10:12:38Z</time>
      </trkpt>
      <trkpt lat="43.25728" lon="5.95058">
        <ele>412.3515625</ele>
        <time>2018-10-14T10:12:39Z</time>
      </trkpt>
      <trkpt lat="43.25732" lon="5.95077">
        <ele>411.6484375</ele>
        <time>2018-10-14T10:12:42Z</time>
      </trkpt>
      <trkpt lat="43.25727" lon="5.95126">
        <ele>413.29296875</ele>
        <time>2018-10-14T10:12:53Z</time>
      </trkpt>
      <trkpt lat="43.25736" lon="5.95171">
        <ele>413.69921875</ele>
        <time>2018-10-14T10:13:04Z</time>
      </trkpt>
      <trkpt lat="43.25742" lon="5.95222">
        <ele>414.4453125</ele>
        <time>2018-10-14T10:13:15Z</time>
      </trkpt>
      <trkpt lat="43.2574" lon="5.95276">
        <ele>414.37890625</ele>
        <time>2018-10-14T10:13:30Z</time>
      </trkpt>
      <trkpt lat="43.25731" lon="5.9532">
        <ele>412.9296875</ele>
        <time>2018-10-14T10:13:39Z</time>
      </trkpt>
      <trkpt lat="43.25728" lon="5.95326">
        <ele>412.95703125</ele>
        <time>2018-10-14T10:13:40Z</time>
      </trkpt>
      <trkpt lat="43.25725" lon="5.95332">
        <ele>413.109375</ele>
        <time>2018-10-14T10:13:41Z</time>
      </trkpt>
      <trkpt lat="43.25722" lon="5.95337">
        <ele>413.078125</ele>
        <time>2018-10-14T10:13:42Z</time>
      </trkpt>
      <trkpt lat="43.25719" lon="5.95344">
        <ele>412.83984375</ele>
        <time>2018-10-14T10:13:43Z</time>
      </trkpt>
      <trkpt lat="43.25718" lon="5.95352">
        <ele>412.359375</ele>
        <time>2018-10-14T10:13:44Z</time>
      </trkpt>
      <trkpt lat="43.25717" lon="5.9536">
        <ele>411.86328125</ele>
        <time>2018-10-14T10:13:45Z</time>
      </trkpt>
      <trkpt lat="43.25715" lon="5.95368">
        <ele>411.23046875</ele>
        <time>2018-10-14T10:13:46Z</time>
      </trkpt>
      <trkpt lat="43.25713" lon="5.95376">
        <ele>410.625</ele>
        <time>2018-10-14T10:13:47Z</time>
      </trkpt>
      <trkpt lat="43.25697" lon="5.95438">
        <ele>408.578125</ele>
        <time>2018-10-14T10:13:56Z</time>
      </trkpt>
      <trkpt lat="43.25695" lon="5.95443">
        <ele>409.02734375</ele>
        <time>2018-10-14T10:13:57Z</time>
      </trkpt>
      <trkpt lat="43.25692" lon="5.95448">
        <ele>409.4921875</ele>
        <time>2018-10-14T10:13:58Z</time>
      </trkpt>
      <trkpt lat="43.2569" lon="5.95455">
        <ele>409.66796875</ele>
        <time>2018-10-14T10:13:59Z</time>
      </trkpt>
      <trkpt lat="43.25689" lon="5.95461">
        <ele>409.5078125</ele>
        <time>2018-10-14T10:14:00Z</time>
      </trkpt>
      <trkpt lat="43.25689" lon="5.95469">
        <ele>409.09375</ele>
        <time>2018-10-14T10:14:01Z</time>
      </trkpt>
      <trkpt lat="43.25689" lon="5.95476">
        <ele>408.390625</ele>
        <time>2018-10-14T10:14:02Z</time>
      </trkpt>
      <trkpt lat="43.25689" lon="5.95484">
        <ele>407.6875</ele>
        <time>2018-10-14T10:14:03Z</time>
      </trkpt>
      <trkpt lat="43.25689" lon="5.95491">
        <ele>407.03515625</ele>
        <time>2018-10-14T10:14:04Z</time>
      </trkpt>
      <trkpt lat="43.25689" lon="5.955">
        <ele>406.3046875</ele>
        <time>2018-10-14T10:14:05Z</time>
      </trkpt>
      <trkpt lat="43.25689" lon="5.95518">
        <ele>404.26953125</ele>
        <time>2018-10-14T10:14:07Z</time>
      </trkpt>
      <trkpt lat="43.25686" lon="5.95536">
        <ele>402.5</ele>
        <time>2018-10-14T10:14:09Z</time>
      </trkpt>
      <trkpt lat="43.25684" lon="5.95545">
        <ele>401.72265625</ele>
        <time>2018-10-14T10:14:10Z</time>
      </trkpt>
      <trkpt lat="43.25664" lon="5.95601">
        <ele>398.7890625</ele>
        <time>2018-10-14T10:14:16Z</time>
      </trkpt>
      <trkpt lat="43.2566" lon="5.9561">
        <ele>398.921875</ele>
        <time>2018-10-14T10:14:17Z</time>
      </trkpt>
      <trkpt lat="43.25654" lon="5.95617">
        <ele>399.4375</ele>
        <time>2018-10-14T10:14:18Z</time>
      </trkpt>
      <trkpt lat="43.25642" lon="5.95632">
        <ele>400.71875</ele>
        <time>2018-10-14T10:14:20Z</time>
      </trkpt>
      <trkpt lat="43.25639" lon="5.9564">
        <ele>400.484375</ele>
        <time>2018-10-14T10:14:21Z</time>
      </trkpt>
      <trkpt lat="43.25636" lon="5.9565">
        <ele>399.9453125</ele>
        <time>2018-10-14T10:14:22Z</time>
      </trkpt>
      <trkpt lat="43.25634" lon="5.9566">
        <ele>399.34765625</ele>
        <time>2018-10-14T10:14:23Z</time>
      </trkpt>
      <trkpt lat="43.2563" lon="5.9567">
        <ele>398.76953125</ele>
        <time>2018-10-14T10:14:24Z</time>
      </trkpt>
      <trkpt lat="43.25626" lon="5.95679">
        <ele>398.45703125</ele>
        <time>2018-10-14T10:14:25Z</time>
      </trkpt>
      <trkpt lat="43.25621" lon="5.95686">
        <ele>398.515625</ele>
        <time>2018-10-14T10:14:26Z</time>
      </trkpt>
      <trkpt lat="43.25616" lon="5.95693">
        <ele>398.6484375</ele>
        <time>2018-10-14T10:14:27Z</time>
      </trkpt>
      <trkpt lat="43.25612" lon="5.957">
        <ele>398.5859375</ele>
        <time>2018-10-14T10:14:28Z</time>
      </trkpt>
      <trkpt lat="43.25608" lon="5.95709">
        <ele>398.1015625</ele>
        <time>2018-10-14T10:14:29Z</time>
      </trkpt>
      <trkpt lat="43.25606" lon="5.95717">
        <ele>397.33203125</ele>
        <time>2018-10-14T10:14:30Z</time>
      </trkpt>
      <trkpt lat="43.25599" lon="5.95746">
        <ele>395.02734375</ele>
        <time>2018-10-14T10:14:33Z</time>
      </trkpt>
      <trkpt lat="43.25595" lon="5.95756">
        <ele>394.7421875</ele>
        <time>2018-10-14T10:14:34Z</time>
      </trkpt>
      <trkpt lat="43.25591" lon="5.95764">
        <ele>394.66015625</ele>
        <time>2018-10-14T10:14:35Z</time>
      </trkpt>
      <trkpt lat="43.2558" lon="5.95778">
        <ele>394.75</ele>
        <time>2018-10-14T10:14:37Z</time>
      </trkpt>
      <trkpt lat="43.25546" lon="5.95819">
        <ele>394.83203125</ele>
        <time>2018-10-14T10:14:44Z</time>
      </trkpt>
      <trkpt lat="43.25542" lon="5.95824">
        <ele>394.87890625</ele>
        <time>2018-10-14T10:14:45Z</time>
      </trkpt>
      <trkpt lat="43.25537" lon="5.95827">
        <ele>394.9765625</ele>
        <time>2018-10-14T10:14:46Z</time>
      </trkpt>
      <trkpt lat="43.25532" lon="5.95831">
        <ele>395.015625</ele>
        <time>2018-10-14T10:14:47Z</time>
      </trkpt>
      <trkpt lat="43.25527" lon="5.95836">
        <ele>395.3046875</ele>
        <time>2018-10-14T10:14:48Z</time>
      </trkpt>
      <trkpt lat="43.25522" lon="5.95841">
        <ele>395.40234375</ele>
        <time>2018-10-14T10:14:49Z</time>
      </trkpt>
      <trkpt lat="43.25518" lon="5.95848">
        <ele>395.21875</ele>
        <time>2018-10-14T10:14:50Z</time>
      </trkpt>
      <trkpt lat="43.25515" lon="5.95856">
        <ele>394.76171875</ele>
        <time>2018-10-14T10:14:51Z</time>
      </trkpt>
      <trkpt lat="43.25511" lon="5.95864">
        <ele>394.08984375</ele>
        <time>2018-10-14T10:14:52Z</time>
      </trkpt>
      <trkpt lat="43.25507" lon="5.95871">
        <ele>393.37109375</ele>
        <time>2018-10-14T10:14:53Z</time>
      </trkpt>
      <trkpt lat="43.255" lon="5.95887">
        <ele>391.66796875</ele>
        <time>2018-10-14T10:14:55Z</time>
      </trkpt>
      <trkpt lat="43.25497" lon="5.95896">
        <ele>390.796875</ele>
        <time>2018-10-14T10:14:56Z</time>
      </trkpt>
      <trkpt lat="43.25495" lon="5.95905">
        <ele>389.578125</ele>
        <time>2018-10-14T10:14:57Z</time>
      </trkpt>
      <trkpt lat="43.25494" lon="5.95926">
        <ele>387.15234375</ele>
        <time>2018-10-14T10:14:59Z</time>
      </trkpt>
      <trkpt lat="43.25494" lon="5.95936">
        <ele>385.96484375</ele>
        <time>2018-10-14T10:15:00Z</time>
      </trkpt>
      <trkpt lat="43.25499" lon="5.95969">
        <ele>381.6796875</ele>
        <time>2018-10-14T10:15:04Z</time>
      </trkpt>
      <trkpt lat="43.25502" lon="5.95982">
        <ele>379.86328125</ele>
        <time>2018-10-14T10:15:06Z</time>
      </trkpt>
      <trkpt lat="43.25504" lon="5.95987">
        <ele>379.04296875</ele>
        <time>2018-10-14T10:15:07Z</time>
      </trkpt>
      <trkpt lat="43.25508" lon="5.95991">
        <ele>378.21875</ele>
        <time>2018-10-14T10:15:08Z</time>
      </trkpt>
      <trkpt lat="43.25512" lon="5.95992">
        <ele>377.5703125</ele>
        <time>2018-10-14T10:15:09Z</time>
      </trkpt>
      <trkpt lat="43.25517" lon="5.95991">
        <ele>377.1640625</ele>
        <time>2018-10-14T10:15:10Z</time>
      </trkpt>
      <trkpt lat="43.25521" lon="5.95988">
        <ele>377.01171875</ele>
        <time>2018-10-14T10:15:11Z</time>
      </trkpt>
      <trkpt lat="43.25524" lon="5.95982">
        <ele>377.04296875</ele>
        <time>2018-10-14T10:15:12Z</time>
      </trkpt>
      <trkpt lat="43.25526" lon="5.95978">
        <ele>377.11328125</ele>
        <time>2018-10-14T10:15:13Z</time>
      </trkpt>
      <trkpt lat="43.25529" lon="5.95972">
        <ele>377.15234375</ele>
        <time>2018-10-14T10:15:20Z</time>
      </trkpt>
      <trkpt lat="43.25537" lon="5.95941">
        <ele>379.75</ele>
        <time>2018-10-14T10:15:30Z</time>
      </trkpt>
      <trkpt lat="43.25551" lon="5.95936">
        <ele>379.44140625</ele>
        <time>2018-10-14T10:15:34Z</time>
      </trkpt>
      <trkpt lat="43.25554" lon="5.9594">
        <ele>378.76171875</ele>
        <time>2018-10-14T10:15:35Z</time>
      </trkpt>
      <trkpt lat="43.25556" lon="5.95944">
        <ele>377.9375</ele>
        <time>2018-10-14T10:15:36Z</time>
      </trkpt>
      <trkpt lat="43.25557" lon="5.9595">
        <ele>377.0546875</ele>
        <time>2018-10-14T10:15:37Z</time>
      </trkpt>
      <trkpt lat="43.25557" lon="5.95956">
        <ele>376.13671875</ele>
        <time>2018-10-14T10:15:38Z</time>
      </trkpt>
      <trkpt lat="43.25558" lon="5.95962">
        <ele>375.2265625</ele>
        <time>2018-10-14T10:15:39Z</time>
      </trkpt>
      <trkpt lat="43.25561" lon="5.95999">
        <ele>370.81640625</ele>
        <time>2018-10-14T10:15:47Z</time>
      </trkpt>
      <trkpt lat="43.25566" lon="5.9602">
        <ele>368.38671875</ele>
        <time>2018-10-14T10:15:51Z</time>
      </trkpt>
      <trkpt lat="43.25568" lon="5.96026">
        <ele>367.64453125</ele>
        <time>2018-10-14T10:15:52Z</time>
      </trkpt>
      <trkpt lat="43.25569" lon="5.96033">
        <ele>366.63671875</ele>
        <time>2018-10-14T10:15:53Z</time>
      </trkpt>
      <trkpt lat="43.25573" lon="5.96049">
        <ele>364.51171875</ele>
        <time>2018-10-14T10:15:55Z</time>
      </trkpt>
      <trkpt lat="43.25573" lon="5.96058">
        <ele>363.23828125</ele>
        <time>2018-10-14T10:15:56Z</time>
      </trkpt>
      <trkpt lat="43.25572" lon="5.96065">
        <ele>361.91796875</ele>
        <time>2018-10-14T10:15:57Z</time>
      </trkpt>
      <trkpt lat="43.2557" lon="5.96071">
        <ele>360.77734375</ele>
        <time>2018-10-14T10:15:58Z</time>
      </trkpt>
      <trkpt lat="43.25566" lon="5.96077">
        <ele>359.796875</ele>
        <time>2018-10-14T10:15:59Z</time>
      </trkpt>
      <trkpt lat="43.25562" lon="5.96081">
        <ele>359.046875</ele>
        <time>2018-10-14T10:16:00Z</time>
      </trkpt>
      <trkpt lat="43.25557" lon="5.96084">
        <ele>358.53125</ele>
        <time>2018-10-14T10:16:01Z</time>
      </trkpt>
      <trkpt lat="43.25553" lon="5.96085">
        <ele>358.4375</ele>
        <time>2018-10-14T10:16:02Z</time>
      </trkpt>
      <trkpt lat="43.25548" lon="5.96086">
        <ele>358.34375</ele>
        <time>2018-10-14T10:16:03Z</time>
      </trkpt>
      <trkpt lat="43.25543" lon="5.96088">
        <ele>358.125</ele>
        <time>2018-10-14T10:16:04Z</time>
      </trkpt>
      <trkpt lat="43.25537" lon="5.96091">
        <ele>357.58984375</ele>
        <time>2018-10-14T10:16:10Z</time>
      </trkpt>
      <trkpt lat="43.25544" lon="5.96087">
        <ele>358.24609375</ele>
        <time>2018-10-14T10:16:21Z</time>
      </trkpt>
      <trkpt lat="43.25545" lon="5.96092">
        <ele>357.2421875</ele>
        <time>2018-10-14T10:16:34Z</time>
      </trkpt>
      <trkpt lat="43.25544" lon="5.96093">
        <ele>356.94140625</ele>
        <time>2018-10-14T10:16:35Z</time>
      </trkpt>
      <trkpt lat="43.25542" lon="5.96096">
        <ele>356.48046875</ele>
        <time>2018-10-14T10:16:36Z</time>
      </trkpt>
      <trkpt lat="43.2554" lon="5.96099">
        <ele>355.890625</ele>
        <time>2018-10-14T10:16:37Z</time>
      </trkpt>
      <trkpt lat="43.25538" lon="5.96102">
        <ele>355.21484375</ele>
        <time>2018-10-14T10:16:38Z</time>
      </trkpt>
      <trkpt lat="43.25534" lon="5.96106">
        <ele>354.47265625</ele>
        <time>2018-10-14T10:16:39Z</time>
      </trkpt>
      <trkpt lat="43.2553" lon="5.9611">
        <ele>353.73046875</ele>
        <time>2018-10-14T10:16:40Z</time>
      </trkpt>
      <trkpt lat="43.25526" lon="5.96115">
        <ele>352.93359375</ele>
        <time>2018-10-14T10:16:41Z</time>
      </trkpt>
      <trkpt lat="43.25522" lon="5.96119">
        <ele>352</ele>
        <time>2018-10-14T10:16:42Z</time>
      </trkpt>
      <trkpt lat="43.25518" lon="5.96124">
        <ele>350.94140625</ele>
        <time>2018-10-14T10:16:43Z</time>
      </trkpt>
      <trkpt lat="43.2551" lon="5.96133">
        <ele>348.8203125</ele>
        <time>2018-10-14T10:16:45Z</time>
      </trkpt>
      <trkpt lat="43.25506" lon="5.96136">
        <ele>348.296875</ele>
        <time>2018-10-14T10:16:46Z</time>
      </trkpt>
      <trkpt lat="43.25502" lon="5.96137">
        <ele>348.06640625</ele>
        <time>2018-10-14T10:16:47Z</time>
      </trkpt>
      <trkpt lat="43.25496" lon="5.96139">
        <ele>347.91796875</ele>
        <time>2018-10-14T10:16:49Z</time>
      </trkpt>
      <trkpt lat="43.25495" lon="5.9614">
        <ele>347.6640625</ele>
        <time>2018-10-14T10:16:50Z</time>
      </trkpt>
      <trkpt lat="43.25494" lon="5.96144">
        <ele>347.109375</ele>
        <time>2018-10-14T10:16:51Z</time>
      </trkpt>
      <trkpt lat="43.25494" lon="5.96148">
        <ele>346.28125</ele>
        <time>2018-10-14T10:16:52Z</time>
      </trkpt>
      <trkpt lat="43.25493" lon="5.96154">
        <ele>345.265625</ele>
        <time>2018-10-14T10:16:53Z</time>
      </trkpt>
      <trkpt lat="43.25493" lon="5.9616">
        <ele>344.2421875</ele>
        <time>2018-10-14T10:16:54Z</time>
      </trkpt>
      <trkpt lat="43.25493" lon="5.96165">
        <ele>343.25390625</ele>
        <time>2018-10-14T10:16:55Z</time>
      </trkpt>
      <trkpt lat="43.25493" lon="5.96171">
        <ele>342.33984375</ele>
        <time>2018-10-14T10:16:56Z</time>
      </trkpt>
      <trkpt lat="43.25491" lon="5.96178">
        <ele>341.41015625</ele>
        <time>2018-10-14T10:16:57Z</time>
      </trkpt>
      <trkpt lat="43.25486" lon="5.96198">
        <ele>339.375</ele>
        <time>2018-10-14T10:17:00Z</time>
      </trkpt>
      <trkpt lat="43.25486" lon="5.9621">
        <ele>338.41796875</ele>
        <time>2018-10-14T10:17:02Z</time>
      </trkpt>
      <trkpt lat="43.25487" lon="5.96216">
        <ele>337.6953125</ele>
        <time>2018-10-14T10:17:03Z</time>
      </trkpt>
      <trkpt lat="43.25489" lon="5.96223">
        <ele>336.83984375</ele>
        <time>2018-10-14T10:17:04Z</time>
      </trkpt>
      <trkpt lat="43.2549" lon="5.96232">
        <ele>335.87109375</ele>
        <time>2018-10-14T10:17:05Z</time>
      </trkpt>
      <trkpt lat="43.25492" lon="5.9624">
        <ele>334.765625</ele>
        <time>2018-10-14T10:17:06Z</time>
      </trkpt>
      <trkpt lat="43.25495" lon="5.96247">
        <ele>333.63671875</ele>
        <time>2018-10-14T10:17:07Z</time>
      </trkpt>
      <trkpt lat="43.25496" lon="5.96254">
        <ele>332.76953125</ele>
        <time>2018-10-14T10:17:08Z</time>
      </trkpt>
      <trkpt lat="43.25498" lon="5.96262">
        <ele>331.98828125</ele>
        <time>2018-10-14T10:17:09Z</time>
      </trkpt>
      <trkpt lat="43.25499" lon="5.96269">
        <ele>331.31640625</ele>
        <time>2018-10-14T10:17:10Z</time>
      </trkpt>
      <trkpt lat="43.25499" lon="5.96277">
        <ele>330.7421875</ele>
        <time>2018-10-14T10:17:11Z</time>
      </trkpt>
      <trkpt lat="43.255" lon="5.96284">
        <ele>330.359375</ele>
        <time>2018-10-14T10:17:12Z</time>
      </trkpt>
      <trkpt lat="43.25501" lon="5.96292">
        <ele>329.87890625</ele>
        <time>2018-10-14T10:17:13Z</time>
      </trkpt>
      <trkpt lat="43.25501" lon="5.96299">
        <ele>329.4921875</ele>
        <time>2018-10-14T10:17:14Z</time>
      </trkpt>
      <trkpt lat="43.25502" lon="5.96306">
        <ele>329.1484375</ele>
        <time>2018-10-14T10:17:15Z</time>
      </trkpt>
      <trkpt lat="43.25503" lon="5.96345">
        <ele>327.50390625</ele>
        <time>2018-10-14T10:17:22Z</time>
      </trkpt>
      <trkpt lat="43.25508" lon="5.96358">
        <ele>326.33203125</ele>
        <time>2018-10-14T10:17:26Z</time>
      </trkpt>
      <trkpt lat="43.25508" lon="5.96362">
        <ele>326.23828125</ele>
        <time>2018-10-14T10:17:27Z</time>
      </trkpt>
      <trkpt lat="43.25508" lon="5.96365">
        <ele>326.12890625</ele>
        <time>2018-10-14T10:17:28Z</time>
      </trkpt>
      <trkpt lat="43.25508" lon="5.96368">
        <ele>325.9609375</ele>
        <time>2018-10-14T10:17:29Z</time>
      </trkpt>
      <trkpt lat="43.25509" lon="5.96371">
        <ele>325.81640625</ele>
        <time>2018-10-14T10:17:30Z</time>
      </trkpt>
      <trkpt lat="43.25509" lon="5.96374">
        <ele>325.6484375</ele>
        <time>2018-10-14T10:17:31Z</time>
      </trkpt>
      <trkpt lat="43.25509" lon="5.96378">
        <ele>325.44921875</ele>
        <time>2018-10-14T10:17:32Z</time>
      </trkpt>
      <trkpt lat="43.25517" lon="5.96413">
        <ele>324.0078125</ele>
        <time>2018-10-14T10:17:42Z</time>
      </trkpt>
      <trkpt lat="43.2552" lon="5.96436">
        <ele>322.875</ele>
        <time>2018-10-14T10:17:49Z</time>
      </trkpt>
      <trkpt lat="43.2552" lon="5.96439">
        <ele>322.7578125</ele>
        <time>2018-10-14T10:17:50Z</time>
      </trkpt>
      <trkpt lat="43.2552" lon="5.96442">
        <ele>322.6328125</ele>
        <time>2018-10-14T10:17:51Z</time>
      </trkpt>
      <trkpt lat="43.2552" lon="5.96444">
        <ele>322.48046875</ele>
        <time>2018-10-14T10:17:52Z</time>
      </trkpt>
      <trkpt lat="43.25521" lon="5.96448">
        <ele>322.26171875</ele>
        <time>2018-10-14T10:17:53Z</time>
      </trkpt>
      <trkpt lat="43.25522" lon="5.96452">
        <ele>321.98828125</ele>
        <time>2018-10-14T10:17:54Z</time>
      </trkpt>
      <trkpt lat="43.25523" lon="5.96456">
        <ele>321.62109375</ele>
        <time>2018-10-14T10:17:55Z</time>
      </trkpt>
      <trkpt lat="43.25526" lon="5.96468">
        <ele>320.83203125</ele>
        <time>2018-10-14T10:17:57Z</time>
      </trkpt>
      <trkpt lat="43.25527" lon="5.96474">
        <ele>320.32421875</ele>
        <time>2018-10-14T10:17:58Z</time>
      </trkpt>
      <trkpt lat="43.25529" lon="5.96479">
        <ele>319.71875</ele>
        <time>2018-10-14T10:17:59Z</time>
      </trkpt>
      <trkpt lat="43.25531" lon="5.96484">
        <ele>319.05859375</ele>
        <time>2018-10-14T10:18:00Z</time>
      </trkpt>
      <trkpt lat="43.25533" lon="5.9649">
        <ele>318.3203125</ele>
        <time>2018-10-14T10:18:01Z</time>
      </trkpt>
      <trkpt lat="43.25535" lon="5.96497">
        <ele>317.55859375</ele>
        <time>2018-10-14T10:18:02Z</time>
      </trkpt>
      <trkpt lat="43.25542" lon="5.96523">
        <ele>315.51953125</ele>
        <time>2018-10-14T10:18:08Z</time>
      </trkpt>
      <trkpt lat="43.25544" lon="5.96523">
        <ele>315.2734375</ele>
        <time>2018-10-14T10:18:09Z</time>
      </trkpt>
      <trkpt lat="43.25548" lon="5.96521">
        <ele>314.70703125</ele>
        <time>2018-10-14T10:18:19Z</time>
      </trkpt>
      <trkpt lat="43.2555" lon="5.9652">
        <ele>314.47265625</ele>
        <time>2018-10-14T10:18:20Z</time>
      </trkpt>
      <trkpt lat="43.25553" lon="5.9652">
        <ele>314.0234375</ele>
        <time>2018-10-14T10:18:22Z</time>
      </trkpt>
      <trkpt lat="43.25577" lon="5.96504">
        <ele>311.8046875</ele>
        <time>2018-10-14T10:18:30Z</time>
      </trkpt>
      <trkpt lat="43.25597" lon="5.96487">
        <ele>309.95703125</ele>
        <time>2018-10-14T10:18:36Z</time>
      </trkpt>
      <trkpt lat="43.25615" lon="5.96464">
        <ele>308.15234375</ele>
        <time>2018-10-14T10:18:40Z</time>
      </trkpt>
      <trkpt lat="43.25628" lon="5.96452">
        <ele>307.984375</ele>
        <time>2018-10-14T10:18:42Z</time>
      </trkpt>
      <trkpt lat="43.25654" lon="5.96432">
        <ele>308.33203125</ele>
        <time>2018-10-14T10:18:46Z</time>
      </trkpt>
      <trkpt lat="43.2566" lon="5.96431">
        <ele>308.16796875</ele>
        <time>2018-10-14T10:18:47Z</time>
      </trkpt>
      <trkpt lat="43.25665" lon="5.96433">
        <ele>307.82421875</ele>
        <time>2018-10-14T10:18:48Z</time>
      </trkpt>
      <trkpt lat="43.2567" lon="5.96437">
        <ele>307.36328125</ele>
        <time>2018-10-14T10:18:49Z</time>
      </trkpt>
      <trkpt lat="43.25675" lon="5.96442">
        <ele>306.8359375</ele>
        <time>2018-10-14T10:18:50Z</time>
      </trkpt>
      <trkpt lat="43.25704" lon="5.9647">
        <ele>302.35546875</ele>
        <time>2018-10-14T10:18:55Z</time>
      </trkpt>
      <trkpt lat="43.25709" lon="5.96476">
        <ele>301.375</ele>
        <time>2018-10-14T10:18:56Z</time>
      </trkpt>
      <trkpt lat="43.25716" lon="5.96482">
        <ele>300.46875</ele>
        <time>2018-10-14T10:18:57Z</time>
      </trkpt>
      <trkpt lat="43.25723" lon="5.96487">
        <ele>299.64453125</ele>
        <time>2018-10-14T10:18:58Z</time>
      </trkpt>
      <trkpt lat="43.2573" lon="5.9649">
        <ele>298.93359375</ele>
        <time>2018-10-14T10:18:59Z</time>
      </trkpt>
      <trkpt lat="43.25736" lon="5.96493">
        <ele>298.30859375</ele>
        <time>2018-10-14T10:19:00Z</time>
      </trkpt>
      <trkpt lat="43.25742" lon="5.96497">
        <ele>297.78515625</ele>
        <time>2018-10-14T10:19:01Z</time>
      </trkpt>
      <trkpt lat="43.25747" lon="5.96503">
        <ele>297.24609375</ele>
        <time>2018-10-14T10:19:02Z</time>
      </trkpt>
      <trkpt lat="43.25751" lon="5.9651">
        <ele>296.6953125</ele>
        <time>2018-10-14T10:19:03Z</time>
      </trkpt>
      <trkpt lat="43.25754" lon="5.96519">
        <ele>296.18359375</ele>
        <time>2018-10-14T10:19:04Z</time>
      </trkpt>
      <trkpt lat="43.25758" lon="5.96529">
        <ele>295.94140625</ele>
        <time>2018-10-14T10:19:05Z</time>
      </trkpt>
      <trkpt lat="43.25771" lon="5.96567">
        <ele>295.91015625</ele>
        <time>2018-10-14T10:19:09Z</time>
      </trkpt>
      <trkpt lat="43.25773" lon="5.96574">
        <ele>295.8125</ele>
        <time>2018-10-14T10:19:10Z</time>
      </trkpt>
      <trkpt lat="43.25773" lon="5.96579">
        <ele>295.80859375</ele>
        <time>2018-10-14T10:19:11Z</time>
      </trkpt>
      <trkpt lat="43.25773" lon="5.96581">
        <ele>295.859375</ele>
        <time>2018-10-14T10:19:12Z</time>
      </trkpt>
      <trkpt lat="43.25772" lon="5.96582">
        <ele>296.04296875</ele>
        <time>2018-10-14T10:19:24Z</time>
      </trkpt>
      <trkpt lat="43.25775" lon="5.96582">
        <ele>295.72265625</ele>
        <time>2018-10-14T10:19:44Z</time>
      </trkpt>
      <trkpt lat="43.25775" lon="5.9658">
        <ele>295.66796875</ele>
        <time>2018-10-14T10:20:17Z</time>
      </trkpt>
      <trkpt lat="43.25776" lon="5.9658">
        <ele>295.57421875</ele>
        <time>2018-10-14T10:20:39Z</time>
      </trkpt>
      <trkpt lat="43.25776" lon="5.96584">
        <ele>295.65625</ele>
        <time>2018-10-14T10:20:55Z</time>
      </trkpt>
      <trkpt lat="43.25777" lon="5.96586">
        <ele>295.61328125</ele>
        <time>2018-10-14T10:20:56Z</time>
      </trkpt>
      <trkpt lat="43.25778" lon="5.96587">
        <ele>295.55859375</ele>
        <time>2018-10-14T10:20:57Z</time>
      </trkpt>
      <trkpt lat="43.25783" lon="5.96598">
        <ele>295.43359375</ele>
        <time>2018-10-14T10:21:03Z</time>
      </trkpt>
      <trkpt lat="43.25784" lon="5.96599">
        <ele>295.36328125</ele>
        <time>2018-10-14T10:21:04Z</time>
      </trkpt>
      <trkpt lat="43.25785" lon="5.966">
        <ele>295.22265625</ele>
        <time>2018-10-14T10:21:05Z</time>
      </trkpt>
      <trkpt lat="43.25786" lon="5.96601">
        <ele>295.05859375</ele>
        <time>2018-10-14T10:21:06Z</time>
      </trkpt>
      <trkpt lat="43.25788" lon="5.96601">
        <ele>294.8984375</ele>
        <time>2018-10-14T10:21:07Z</time>
      </trkpt>
      <trkpt lat="43.25789" lon="5.96602">
        <ele>294.72265625</ele>
        <time>2018-10-14T10:21:08Z</time>
      </trkpt>
      <trkpt lat="43.25791" lon="5.96604">
        <ele>294.5625</ele>
        <time>2018-10-14T10:21:09Z</time>
      </trkpt>
      <trkpt lat="43.25792" lon="5.96606">
        <ele>294.421875</ele>
        <time>2018-10-14T10:21:10Z</time>
      </trkpt>
      <trkpt lat="43.25793" lon="5.96608">
        <ele>294.2265625</ele>
        <time>2018-10-14T10:21:11Z</time>
      </trkpt>
      <trkpt lat="43.25795" lon="5.96611">
        <ele>294.19921875</ele>
        <time>2018-10-14T10:21:12Z</time>
      </trkpt>
      <trkpt lat="43.25821" lon="5.96648">
        <ele>294.703125</ele>
        <time>2018-10-14T10:21:25Z</time>
      </trkpt>
      <trkpt lat="43.25854" lon="5.96693">
        <ele>293.3984375</ele>
        <time>2018-10-14T10:21:37Z</time>
      </trkpt>
      <trkpt lat="43.25886" lon="5.96743">
        <ele>290.6875</ele>
        <time>2018-10-14T10:21:47Z</time>
      </trkpt>
      <trkpt lat="43.25889" lon="5.96749">
        <ele>290.1875</ele>
        <time>2018-10-14T10:21:48Z</time>
      </trkpt>
      <trkpt lat="43.25892" lon="5.96755">
        <ele>290.11328125</ele>
        <time>2018-10-14T10:21:49Z</time>
      </trkpt>
      <trkpt lat="43.25897" lon="5.96761">
        <ele>290.23828125</ele>
        <time>2018-10-14T10:21:50Z</time>
      </trkpt>
      <trkpt lat="43.259" lon="5.96767">
        <ele>290.390625</ele>
        <time>2018-10-14T10:21:51Z</time>
      </trkpt>
      <trkpt lat="43.25903" lon="5.96774">
        <ele>290.3984375</ele>
        <time>2018-10-14T10:21:52Z</time>
      </trkpt>
      <trkpt lat="43.25907" lon="5.9678">
        <ele>290.26953125</ele>
        <time>2018-10-14T10:21:53Z</time>
      </trkpt>
      <trkpt lat="43.25913" lon="5.9679">
        <ele>289.8515625</ele>
        <time>2018-10-14T10:21:55Z</time>
      </trkpt>
      <trkpt lat="43.25916" lon="5.96795">
        <ele>289.52734375</ele>
        <time>2018-10-14T10:21:56Z</time>
      </trkpt>
      <trkpt lat="43.25945" lon="5.96832">
        <ele>286.87109375</ele>
        <time>2018-10-14T10:22:08Z</time>
      </trkpt>
      <trkpt lat="43.25964" lon="5.96854">
        <ele>284.8359375</ele>
        <time>2018-10-14T10:22:18Z</time>
      </trkpt>
      <trkpt lat="43.25972" lon="5.96872">
        <ele>285.45703125</ele>
        <time>2018-10-14T10:22:22Z</time>
      </trkpt>
      <trkpt lat="43.25975" lon="5.96877">
        <ele>285.4921875</ele>
        <time>2018-10-14T10:22:23Z</time>
      </trkpt>
      <trkpt lat="43.25979" lon="5.96882">
        <ele>285.46484375</ele>
        <time>2018-10-14T10:22:24Z</time>
      </trkpt>
      <trkpt lat="43.25984" lon="5.96887">
        <ele>285.2578125</ele>
        <time>2018-10-14T10:22:25Z</time>
      </trkpt>
      <trkpt lat="43.25989" lon="5.96892">
        <ele>284.74609375</ele>
        <time>2018-10-14T10:22:26Z</time>
      </trkpt>
      <trkpt lat="43.26022" lon="5.9692">
        <ele>282.79296875</ele>
        <time>2018-10-14T10:22:31Z</time>
      </trkpt>
      <trkpt lat="43.26031" lon="5.96926">
        <ele>281.8984375</ele>
        <time>2018-10-14T10:22:32Z</time>
      </trkpt>
      <trkpt lat="43.2604" lon="5.96931">
        <ele>284.15625</ele>
        <time>2018-10-14T10:22:33Z</time>
      </trkpt>
      <trkpt lat="43.26048" lon="5.96932">
        <ele>285.96484375</ele>
        <time>2018-10-14T10:22:34Z</time>
      </trkpt>
      <trkpt lat="43.26054" lon="5.9693">
        <ele>287.1640625</ele>
        <time>2018-10-14T10:22:35Z</time>
      </trkpt>
      <trkpt lat="43.26059" lon="5.96924">
        <ele>287.9921875</ele>
        <time>2018-10-14T10:22:36Z</time>
      </trkpt>
      <trkpt lat="43.26062" lon="5.96915">
        <ele>288.3125</ele>
        <time>2018-10-14T10:22:37Z</time>
      </trkpt>
      <trkpt lat="43.26064" lon="5.96905">
        <ele>287.625</ele>
        <time>2018-10-14T10:22:38Z</time>
      </trkpt>
      <trkpt lat="43.26065" lon="5.96894">
        <ele>286.625</ele>
        <time>2018-10-14T10:22:39Z</time>
      </trkpt>
      <trkpt lat="43.26068" lon="5.96855">
        <ele>283.20703125</ele>
        <time>2018-10-14T10:22:42Z</time>
      </trkpt>
      <trkpt lat="43.2607" lon="5.9681">
        <ele>279.4453125</ele>
        <time>2018-10-14T10:22:45Z</time>
      </trkpt>
      <trkpt lat="43.26073" lon="5.9677">
        <ele>277.23828125</ele>
        <time>2018-10-14T10:22:48Z</time>
      </trkpt>
      <trkpt lat="43.26074" lon="5.96757">
        <ele>276.97265625</ele>
        <time>2018-10-14T10:22:49Z</time>
      </trkpt>
      <trkpt lat="43.26077" lon="5.96745">
        <ele>276.8984375</ele>
        <time>2018-10-14T10:22:50Z</time>
      </trkpt>
      <trkpt lat="43.26084" lon="5.9672">
        <ele>276.72265625</ele>
        <time>2018-10-14T10:22:52Z</time>
      </trkpt>
      <trkpt lat="43.26102" lon="5.9666">
        <ele>276.5234375</ele>
        <time>2018-10-14T10:22:57Z</time>
      </trkpt>
      <trkpt lat="43.26122" lon="5.96599">
        <ele>271.69140625</ele>
        <time>2018-10-14T10:23:03Z</time>
      </trkpt>
      <trkpt lat="43.26125" lon="5.96591">
        <ele>270.56640625</ele>
        <time>2018-10-14T10:23:04Z</time>
      </trkpt>
      <trkpt lat="43.26132" lon="5.9658">
        <ele>268.7109375</ele>
        <time>2018-10-14T10:23:06Z</time>
      </trkpt>
      <trkpt lat="43.26136" lon="5.96575">
        <ele>268.3125</ele>
        <time>2018-10-14T10:23:07Z</time>
      </trkpt>
      <trkpt lat="43.26142" lon="5.96572">
        <ele>268.0390625</ele>
        <time>2018-10-14T10:23:08Z</time>
      </trkpt>
      <trkpt lat="43.26149" lon="5.96569">
        <ele>269.0859375</ele>
        <time>2018-10-14T10:23:09Z</time>
      </trkpt>
      <trkpt lat="43.26157" lon="5.96567">
        <ele>270.34375</ele>
        <time>2018-10-14T10:23:10Z</time>
      </trkpt>
      <trkpt lat="43.26189" lon="5.9655">
        <ele>273.4375</ele>
        <time>2018-10-14T10:23:14Z</time>
      </trkpt>
      <trkpt lat="43.26194" lon="5.96542">
        <ele>272.3984375</ele>
        <time>2018-10-14T10:23:15Z</time>
      </trkpt>
      <trkpt lat="43.26195" lon="5.96533">
        <ele>269.8046875</ele>
        <time>2018-10-14T10:23:16Z</time>
      </trkpt>
      <trkpt lat="43.26194" lon="5.96523">
        <ele>266.4453125</ele>
        <time>2018-10-14T10:23:17Z</time>
      </trkpt>
      <trkpt lat="43.26193" lon="5.96513">
        <ele>263.89453125</ele>
        <time>2018-10-14T10:23:18Z</time>
      </trkpt>
      <trkpt lat="43.26194" lon="5.96503">
        <ele>261.6953125</ele>
        <time>2018-10-14T10:23:19Z</time>
      </trkpt>
      <trkpt lat="43.26196" lon="5.96493">
        <ele>259.7421875</ele>
        <time>2018-10-14T10:23:20Z</time>
      </trkpt>
      <trkpt lat="43.262" lon="5.96482">
        <ele>258.21875</ele>
        <time>2018-10-14T10:23:21Z</time>
      </trkpt>
      <trkpt lat="43.26204" lon="5.96472">
        <ele>256.89453125</ele>
        <time>2018-10-14T10:23:22Z</time>
      </trkpt>
      <trkpt lat="43.26209" lon="5.96463">
        <ele>256.00390625</ele>
        <time>2018-10-14T10:23:23Z</time>
      </trkpt>
      <trkpt lat="43.26214" lon="5.96453">
        <ele>254.58203125</ele>
        <time>2018-10-14T10:23:24Z</time>
      </trkpt>
      <trkpt lat="43.26235" lon="5.96417">
        <ele>248.05859375</ele>
        <time>2018-10-14T10:23:28Z</time>
      </trkpt>
      <trkpt lat="43.26248" lon="5.964">
        <ele>245.83984375</ele>
        <time>2018-10-14T10:23:30Z</time>
      </trkpt>
      <trkpt lat="43.26253" lon="5.9639">
        <ele>243.83984375</ele>
        <time>2018-10-14T10:23:31Z</time>
      </trkpt>
      <trkpt lat="43.26258" lon="5.96381">
        <ele>241.8984375</ele>
        <time>2018-10-14T10:23:32Z</time>
      </trkpt>
      <trkpt lat="43.26263" lon="5.96373">
        <ele>240.39453125</ele>
        <time>2018-10-14T10:23:33Z</time>
      </trkpt>
      <trkpt lat="43.26267" lon="5.96368">
        <ele>239.12109375</ele>
        <time>2018-10-14T10:23:34Z</time>
      </trkpt>
      <trkpt lat="43.2627" lon="5.96365">
        <ele>238.2578125</ele>
        <time>2018-10-14T10:23:35Z</time>
      </trkpt>
      <trkpt lat="43.26273" lon="5.96363">
        <ele>237.6953125</ele>
        <time>2018-10-14T10:23:36Z</time>
      </trkpt>
      <trkpt lat="43.26275" lon="5.96362">
        <ele>237.28125</ele>
        <time>2018-10-14T10:23:37Z</time>
      </trkpt>
      <trkpt lat="43.26282" lon="5.96357">
        <ele>235.42578125</ele>
        <time>2018-10-14T10:23:40Z</time>
      </trkpt>
      <trkpt lat="43.26296" lon="5.96334">
        <ele>229.98828125</ele>
        <time>2018-10-14T10:23:50Z</time>
      </trkpt>
      <trkpt lat="43.26298" lon="5.96326">
        <ele>229.62890625</ele>
        <time>2018-10-14T10:24:04Z</time>
      </trkpt>
      <trkpt lat="43.26294" lon="5.96323">
        <ele>229.81640625</ele>
        <time>2018-10-14T10:24:17Z</time>
      </trkpt>
      <trkpt lat="43.26292" lon="5.96323">
        <ele>229.83203125</ele>
        <time>2018-10-14T10:24:36Z</time>
      </trkpt>
      <trkpt lat="43.26292" lon="5.96324">
        <ele>229.79296875</ele>
        <time>2018-10-14T10:24:50Z</time>
      </trkpt>
    </trkseg>
  </trk>
</gpx>